[[[{"header":{"parameterUnit":"kt","parameterCategory":2,"dx":1,"dy":1,"la1":29.587661999999998,"la2":31.0,"lo1":-88.76705300000003,"lo2":-86.6583820000003,"nx":115,"ny":88,"refTime":"2022-10-06T00:00:00:Z","depth":0,"parameterNumber":1,"parameterNumberName":"U-component_of_WINDS"},"data":[4.4154,4.3393,4.3664,4.4864,4.633,4.6602,4.7019,4.7645,4.8768,4.8579,4.8424,5.1232,5.3536,5.4342,5.6904,5.8122,5.8469,5.9652,6.0593,6.1049,6.0759,6.1258,6.1713,6.1923,6.2448,6.302,6.3665,6.4123,6.4338,6.3685,6.294,6.2412,6.1074,6.0106,5.8799,5.8567,5.8688,5.9213,6.0376,6.1598,6.3126,6.4118,6.5111,6.5323,6.5397,6.5397,6.5486,6.5468,6.5468,6.5449,6.5304,6.5249,6.5268,6.5342,6.5522,6.5627,6.5715,6.5715,6.5715,6.5732,6.5886,6.6037,6.6136,6.6234,6.6427,6.6438,6.6715,6.6841,6.7229,6.7668,6.7668,6.7744,6.7473,6.6921,6.6451,6.6023,6.5803,6.587,6.5835,6.5936,6.6037,6.6185,6.6379,6.6521,6.6614,6.7009,6.7224,6.7302,6.7344,6.751,6.7705,6.7589,6.743,6.7628,6.7781,6.7818,6.7855,6.7818,6.7855,6.7855,6.7855,6.7855,6.7892,6.7855,6.7855,6.7855,6.7818,6.7818,6.7045,6.6786,6.7485,6.7743,6.7705,6.7628,6.7389,4.4043,4.3511,4.4405,4.5617,4.699,4.7349,4.7495,4.7729,4.8051,4.8542,4.9775,5.179,5.3513,5.5214,5.7137,5.8027,5.8838,5.9577,5.9925,6.0146,6.0487,6.0791,6.1124,6.1378,6.1885,6.2482,6.3285,6.3797,6.4167,6.4142,6.3544,6.2728,6.206,6.1496,6.0493,6.0088,6.014,6.0632,6.1373,6.2541,6.3498,6.4508,6.5001,6.5213,6.5233,6.5268,6.5268,6.5249,6.5193,6.5193,6.5137,6.5158,6.5178,6.5342,6.5522,6.5627,6.5715,6.5715,6.5715,6.5732,6.5886,6.6073,6.6087,6.6234,6.6427,6.6669,6.7023,6.7353,6.7818,6.8037,6.7819,6.7668,6.7234,6.6751,6.6331,6.5835,6.5835,6.587,6.5819,6.5767,6.5886,6.6037,6.6234,6.6438,6.6796,6.7224,6.7466,6.7543,6.7583,6.7704,6.7743,6.7667,6.7589,6.7667,6.7818,6.7855,6.7855,6.7855,6.7892,6.7855,6.7855,6.7818,6.7781,6.7818,6.7817,6.7779,6.7742,6.778,6.7742,6.7445,6.774,6.7818,6.7743,6.7665,6.7507,4.4314,4.3975,4.5444,4.6671,4.7675,4.8098,4.7721,4.7011,4.7447,4.8897,5.0878,5.1836,5.3378,5.5774,5.6912,5.7626,5.7967,5.8784,5.9112,5.9387,5.966,6.0133,6.0553,6.0857,6.1305,6.1957,6.2721,6.332,6.3699,6.3967,6.4234,6.3745,6.3464,6.2912,6.1832,6.1604,6.1658,6.171,6.2347,6.314,6.3917,6.451,6.5011,6.5137,6.5158,6.5213,6.5193,6.5279,6.5208,6.5081,6.5116,6.5137,6.5178,6.5288,6.5504,6.5663,6.5715,6.5715,6.5767,6.5783,6.5886,6.6037,6.6136,6.6379,6.6614,6.6849,6.7192,6.7589,6.8002,6.8037,6.7818,6.7591,6.7151,6.6751,6.6283,6.6037,6.5987,6.5936,6.5936,6.5886,6.5987,6.6136,6.6438,6.6669,6.7102,6.7547,6.7547,6.7583,6.7662,6.7742,6.7781,6.7781,6.7781,6.7818,6.7818,6.7818,6.7855,6.7855,6.7855,6.7818,6.7705,6.7743,6.7743,6.7667,6.7626,6.7626,6.7662,6.7702,6.7662,6.7662,6.7704,6.7818,6.7742,6.7662,6.7466,4.4451,4.4342,4.5887,4.7088,4.8014,4.8249,4.7463,4.6499,4.714,4.8705,5.0886,5.1539,5.2974,5.5241,5.6239,5.6562,5.6975,5.7631,5.8253,5.865,5.9013,5.958,6.0088,6.0476,6.0974,6.1564,6.2065,6.2585,6.3151,6.3538,6.3817,6.4028,6.4164,6.3779,6.2869,6.294,6.2954,6.2869,6.3285,6.3697,6.4212,6.4632,6.4968,6.5081,6.5213,6.5268,6.5228,6.5279,6.5264,6.5173,6.5187,6.5116,6.5067,6.5213,6.5397,6.5663,6.5663,6.5663,6.5715,6.5732,6.5886,6.6037,6.6234,6.6521,6.6841,6.7066,6.7353,6.7667,6.7855,6.7781,6.7705,6.7473,6.7229,6.6796,6.6367,6.6234,6.6136,6.61,6.61,6.61,6.6185,6.639,6.6715,6.7023,6.747,6.7626,6.7623,6.7662,6.7702,6.7665,6.7742,6.778,6.7818,6.7781,6.7781,6.778,6.7742,6.7779,6.7704,6.7626,6.751,6.7589,6.7665,6.7586,6.747,6.7466,6.7503,6.7543,6.7586,6.7586,6.7628,6.7742,6.7702,6.7623,6.7503,4.4039,4.4325,4.4913,4.6286,4.7785,4.723,4.7315,4.7751,4.6872,4.7893,5.0099,5.1099,5.2258,5.4185,5.5394,5.557,5.5928,5.6912,5.7806,5.803,5.8567,5.9257,5.9772,6.0133,6.0475,6.1098,6.1642,6.1933,6.2686,6.3117,6.3376,6.363,6.3975,6.4019,6.361,6.3768,6.3709,6.3575,6.3775,6.3999,6.4398,6.4761,6.5081,6.5025,6.5158,6.5484,6.541,6.5304,6.5378,6.5213,6.5193,6.5137,6.5081,6.5081,6.5342,6.5504,6.5557,6.561,6.5663,6.568,6.5886,6.5987,6.6087,6.6379,6.6633,6.6871,6.744,6.7819,6.7929,6.7855,6.7591,6.7393,6.7102,6.666,6.6379,6.6283,6.6234,6.6185,6.6198,6.6259,6.6415,6.7001,6.7204,6.706,6.7466,6.7583,6.7583,6.766,6.766,6.7623,6.7623,6.7662,6.7702,6.7704,6.7704,6.7704,6.7702,6.7583,6.7466,6.7385,6.743,6.7507,6.7623,6.7507,6.7348,6.7344,6.7344,6.7462,6.7507,6.7547,6.7586,6.7702,6.7662,6.7543,6.7462,4.3748,4.3593,4.4284,4.5682,4.7419,4.7546,4.7775,4.7893,4.7287,4.8089,4.9858,4.9744,5.1014,5.3134,5.4306,5.4969,5.518,5.6505,5.7547,5.7945,5.8484,5.9095,5.9612,5.9944,6.0017,6.0213,6.0652,6.1378,6.1227,6.1905,6.2853,6.3151,6.3445,6.3636,6.3797,6.3928,6.3935,6.3866,6.3928,6.4114,6.4358,6.4621,6.4911,6.5025,6.5025,6.5773,6.6374,6.5469,6.59,6.6338,6.5363,6.513,6.4968,6.4968,6.5158,6.5378,6.5486,6.5557,6.561,6.5663,6.5835,6.5987,6.6087,6.6439,6.6814,6.7364,6.7814,6.8002,6.8,6.7928,6.7555,6.7234,6.6929,6.664,6.6499,6.6403,6.6427,6.6427,6.6475,6.6535,6.6929,6.7539,6.7656,6.7394,6.7339,6.7568,6.7682,6.7759,6.7759,6.7869,6.802,6.7617,6.7583,6.7583,6.7623,6.7662,6.7583,6.7503,6.7344,6.7344,6.7307,6.7426,6.7426,6.7385,6.7307,6.7266,6.7302,6.7385,6.7462,6.7426,6.7426,6.7503,6.7503,6.7645,6.7751,4.3752,4.3578,4.4299,4.5312,4.6522,4.7265,4.7727,4.7773,4.7615,4.8095,4.9372,4.8744,4.9745,5.1759,5.3103,5.3885,5.4969,5.6205,5.7099,5.7774,5.8115,5.8682,5.9176,5.9515,5.9656,5.9882,6.0394,6.1058,6.0918,6.1393,6.2346,6.2788,6.3285,6.3415,6.3518,6.3594,6.3488,6.3514,6.3783,6.3975,6.4228,6.4562,6.5288,6.5426,6.5448,6.648,6.6939,6.6338,6.6126,6.6691,6.5858,6.5109,6.4968,6.4968,6.5003,6.5249,6.5323,6.5486,6.554,6.5646,6.5819,6.6001,6.7235,6.7509,6.8254,6.883,6.8997,6.874,6.8554,6.7966,6.7473,6.7417,6.7351,6.7394,6.7629,6.7978,6.8736,6.8687,6.865,6.864,6.8086,6.8604,6.8969,6.8701,6.8172,6.7917,6.785,6.7965,6.8074,6.8445,6.8487,6.7645,6.7466,6.7426,6.7466,6.78,6.765,6.7536,6.7344,6.7302,6.7417,6.7495,6.738,6.7385,6.7426,6.7385,6.7412,6.7302,6.7344,6.7302,6.7526,6.7453,6.7448,6.8111,6.8403,4.4081,4.4879,4.5302,4.5257,4.5116,4.592,4.6568,4.6918,4.7301,4.7632,4.8,4.8946,4.909,4.904,5.167,5.2594,5.268,5.5209,5.6474,5.7342,5.7688,5.8348,5.8765,5.9144,5.9318,6.0027,6.0617,6.0899,6.1725,6.186,6.2138,6.2619,6.3089,6.3285,6.3186,6.3189,6.322,6.344,6.3651,6.3836,6.4071,6.4538,6.5381,6.6061,6.6236,6.7199,6.801,6.7575,6.7045,6.6903,6.643,6.5611,6.5187,6.5081,6.5025,6.506,6.5081,6.5552,6.5929,6.6251,6.6357,6.7118,6.8907,7.0468,7.1208,7.1429,7.0932,7.0173,6.8666,6.7997,6.7792,6.799,6.8225,6.8465,6.8833,6.9435,7.0373,7.0626,7.059,7.0518,6.9963,7.01,7.0537,6.9828,6.926,6.9194,6.9267,6.9274,6.9493,6.9755,6.9426,6.8586,6.8148,6.7819,6.7631,6.8001,6.8074,6.8513,6.8142,6.8507,6.7787,6.7792,6.8304,6.8528,6.8023,6.7946,6.833,6.8136,6.7552,6.7594,6.7892,6.8074,6.9024,6.939,6.9639,4.4389,4.4624,4.5001,4.522,4.5432,4.5361,4.6049,4.6833,4.7389,4.8076,4.8551,4.7747,4.7879,4.9124,5.0188,5.0537,5.2595,5.4363,5.5559,5.6991,5.7285,5.7806,5.8348,5.8733,5.8952,5.9045,5.9732,6.0338,6.0362,6.1345,6.1997,6.231,6.2653,6.2956,6.3058,6.3061,6.3095,6.3612,6.3894,6.401,6.428,6.4542,6.5221,6.6418,6.6985,6.7903,6.9496,6.9698,6.8879,6.9496,6.9029,6.7716,6.6917,6.6765,6.6835,6.6108,6.5919,6.6281,6.7712,6.8287,6.8673,6.891,6.9965,7.1055,7.1669,7.3448,7.2835,7.107,6.8847,6.8617,6.9237,7.0072,7.0184,7.0293,7.0482,7.0554,7.1204,7.1348,7.1384,7.2034,7.1926,7.2407,7.2695,7.1603,7.082,7.0865,7.091,7.1019,7.1246,7.1319,7.1136,7.0516,7.0077,6.9457,6.9048,6.8982,6.9164,6.9377,7.0114,7.0961,7.0175,6.8509,6.9457,7.0076,6.9077,6.8555,6.9055,6.8866,6.7959,6.774,6.833,6.939,7.045,7.0961,7.1355,4.4295,4.4531,4.4742,4.5118,4.5442,4.5093,4.5534,4.6529,4.7136,4.8027,4.8579,4.8048,4.8237,4.9009,4.9739,5.0955,5.268,5.3794,5.5028,5.6577,5.6845,5.746,5.786,5.8105,5.8369,5.8832,5.9678,6.0221,5.9676,6.1068,6.1856,6.2101,6.2551,6.2619,6.2721,6.3298,6.3429,6.3975,6.4656,6.4983,6.5441,6.5296,6.6013,6.8195,6.7301,6.8686,7.1835,7.0102,7.0059,7.1114,7.0023,6.8959,6.8361,6.8255,6.8325,6.7868,6.7445,6.7716,6.9034,7.1112,7.1656,7.2066,7.2593,7.2962,7.2989,7.5067,7.4188,7.2218,7.0725,7.017,7.0333,7.1052,7.1847,7.1941,7.2107,7.2143,7.2504,7.2576,7.2648,7.3334,7.3984,7.4372,7.4161,7.3194,7.3168,7.3226,7.3866,7.3975,7.299,7.288,7.2734,7.2223,7.1603,7.1019,7.0662,7.0755,7.0908,7.1096,7.1829,7.2861,7.1451,6.9438,7.0175,7.1638,7.04,6.9274,7.0273,7.0761,6.9103,6.8361,6.9274,7.0296,7.1436,7.224,7.2934,4.3915,4.4413,4.4555,4.4649,4.4835,4.4859,4.5326,4.611,4.6667,4.735,4.8363,4.88,4.876,4.8658,4.9893,5.1012,5.221,5.3902,5.5301,5.5912,5.6246,5.6666,5.7136,5.7711,5.823,5.9467,6.012,6.0553,6.1006,6.1385,6.1818,6.2135,6.2135,6.2135,6.202,6.3378,6.434,6.49,6.6596,6.7151,6.7362,6.6735,6.7906,6.9181,6.8579,6.9575,7.2085,7.1274,7.1191,7.2099,7.1106,7.0199,6.9698,6.9663,6.9698,6.9593,6.9452,6.9628,7.0015,7.2892,7.4024,7.4337,7.4332,7.4753,7.5408,7.57,7.5075,7.3944,7.3099,7.23,7.1719,7.1557,7.2684,7.3293,7.3603,7.384,7.4562,7.4923,7.467,7.4923,7.5573,7.5915,7.5334,7.5054,7.5145,7.5656,7.6591,7.6201,7.4888,7.4413,7.4194,7.361,7.288,7.2552,7.2707,7.2628,7.2616,7.2773,7.3407,7.4563,7.3833,7.2469,7.2394,7.2907,7.2524,7.173,7.2134,7.2842,7.195,7.1212,7.1414,7.1875,7.2613,7.3564,7.4779,4.3175,4.42,4.4413,4.4271,4.3939,4.3939,4.4766,4.607,4.6529,4.729,4.8672,4.8652,4.8662,4.89,4.9511,5.0085,5.1703,5.2867,5.4081,5.4962,5.5727,5.6337,5.6756,5.7311,5.7766,5.8816,5.9484,5.9963,6.0487,6.0673,6.1049,6.1385,6.1458,6.1198,6.1371,6.2573,6.3902,6.4664,6.6269,6.7573,6.7888,6.775,6.8886,7.0061,7.0222,7.1328,7.2475,7.3023,7.2767,7.2937,7.2831,7.2057,7.1353,7.093,7.1001,7.0965,7.1106,7.1775,7.2684,7.4102,7.4601,7.4928,7.5252,7.5521,7.56,7.5716,7.5826,7.509,7.5096,7.5013,7.4742,7.4133,7.4631,7.4595,7.4851,7.4959,7.5717,7.6006,7.6006,7.6006,7.6006,7.5934,7.5607,7.5691,7.5808,7.6177,7.6785,7.6482,7.5716,7.5581,7.5398,7.4851,7.4194,7.4459,7.4715,7.462,7.4505,7.4777,7.5571,7.6538,7.6799,7.6874,7.6578,7.5534,7.467,7.4184,7.4515,7.5333,7.4924,7.4064,7.4647,7.5111,7.5588,7.5199,7.6408,4.2087,4.2958,4.2958,4.2935,4.2935,4.3318,4.4176,4.5375,4.621,4.7184,4.817,4.8698,4.9186,4.9693,4.9727,5.0389,5.1673,5.26,5.3604,5.4516,5.5073,5.5727,5.6095,5.6454,5.6867,5.7945,5.867,5.9161,5.9707,6.0211,6.041,6.0487,6.0487,6.0452,6.1107,6.2247,6.3939,6.5406,6.7563,6.9048,6.9105,6.926,6.9645,7.1098,7.155,7.2067,7.339,7.3971,7.4138,7.4169,7.4134,7.343,7.269,7.2726,7.2655,7.2514,7.2719,7.3212,7.4052,7.4413,7.4672,7.4795,7.5169,7.5499,7.5543,7.5707,7.5876,7.5988,7.5896,7.5748,7.5862,7.5934,7.6006,7.6006,7.5898,7.5826,7.6006,7.6006,7.6006,7.6042,7.6006,7.6186,7.6239,7.6307,7.6462,7.66,7.6736,7.6798,7.6701,7.6614,7.6468,7.603,7.5738,7.5847,7.5957,7.6196,7.6392,7.7085,7.7763,7.7801,7.769,7.8209,7.8061,7.7344,7.636,7.5932,7.6269,7.7599,7.7528,7.6213,7.6612,7.7495,7.7372,7.699,7.7262,4.061,4.069,4.0486,4.096,4.1774,4.2935,4.3462,4.4034,4.5583,4.6503,4.722,4.8338,4.9476,5.0274,5.0474,5.1196,5.265,5.3036,5.3572,5.4155,5.4724,5.5168,5.5606,5.5821,5.6091,5.7136,5.8084,5.8638,5.8998,5.9627,5.9739,5.9837,6.0208,6.0967,6.1587,6.2287,6.4018,6.6728,6.9155,7.0666,7.0859,7.0825,7.0985,7.2028,7.1968,7.1999,7.3565,7.3802,7.4002,7.4239,7.4239,7.3887,7.3782,7.3817,7.3846,7.3741,7.394,7.4081,7.4357,7.468,7.4734,7.4831,7.5024,7.5359,7.5485,7.562,7.5794,7.6024,7.6006,7.6006,7.6006,7.6006,7.6006,7.6006,7.6006,7.6024,7.6077,7.6077,7.606,7.6096,7.6347,7.6686,7.6861,7.6699,7.6858,7.6636,7.6686,7.6785,7.6871,7.7027,7.7027,7.7016,7.6833,7.6891,7.7048,7.7203,7.7222,7.7797,7.8209,7.8246,7.8283,7.8209,7.8209,7.7531,7.7111,7.7357,7.7616,7.7843,7.7943,7.7685,7.7538,7.7538,7.7459,7.7459,7.7623,3.8067,3.7683,3.8471,3.9358,4.0317,4.0982,4.2307,4.3725,4.4693,4.579,4.682,4.7556,4.8443,4.9234,4.9825,5.0567,5.1635,5.2044,5.2879,5.3699,5.4311,5.4884,5.5358,5.5882,5.6274,5.6964,5.7774,5.8379,5.8714,5.9109,5.9418,5.9451,6.0498,6.1293,6.1864,6.2819,6.4435,6.7244,6.9432,7.0659,7.1173,7.1267,7.1858,7.2297,7.2695,7.301,7.36,7.3802,7.4002,7.4204,7.4239,7.4239,7.4239,7.4304,7.4269,7.4328,7.4427,7.4491,7.468,7.4805,7.4989,7.4892,7.4953,7.5169,7.5428,7.5671,7.5876,7.5988,7.6006,7.6006,7.6006,7.6006,7.6006,7.6006,7.6006,7.613,7.6235,7.6166,7.6113,7.6686,7.7304,7.7514,7.7904,7.7497,7.7016,7.6709,7.6636,7.6686,7.6846,7.7037,7.7111,7.7257,7.7131,7.7255,7.7428,7.7599,7.7867,7.8172,7.8284,7.832,7.832,7.8284,7.8134,7.7836,7.7388,7.7554,7.7783,7.7871,7.7965,7.7783,7.7623,7.7623,7.7664,7.7664,7.7783,3.641,3.6299,3.7317,3.8237,3.9337,4.0361,4.1697,4.3008,4.4199,4.5185,4.602,4.6769,4.7668,4.8496,4.926,5.0093,5.1014,5.1532,5.2376,5.3206,5.402,5.4599,5.5231,5.5636,5.6034,5.6607,5.7348,5.808,5.8945,5.9275,5.9934,6.0785,6.1606,6.2344,6.3662,6.4136,6.5683,6.7481,6.8948,7.0083,7.0841,7.1399,7.1864,7.2316,7.29,7.3185,7.3463,7.3735,7.4002,7.4204,7.4239,7.4239,7.4239,7.4269,7.4299,7.4321,7.4456,7.4645,7.4769,7.5049,7.5049,7.4953,7.4953,7.5134,7.5405,7.5671,7.586,7.6006,7.6006,7.6006,7.6006,7.6006,7.6006,7.6006,7.6006,7.613,7.6235,7.6219,7.6592,7.7514,7.839,7.9404,8.0071,7.9101,7.811,7.7312,7.6585,7.6722,7.6919,7.7084,7.7287,7.7497,7.7776,7.8001,7.8313,7.7948,7.8245,7.8209,7.832,7.8394,7.8394,7.8246,7.8056,7.7756,7.7652,7.7763,7.798,7.8226,7.8544,7.8175,7.7738,7.7753,7.7797,7.7984,7.9026,3.5269,3.5926,3.667,3.7595,3.8619,4.009,4.1061,4.182,4.363,4.46,4.521,4.6314,4.7246,4.8021,4.901,5.0178,5.1168,5.1645,5.2187,5.3108,5.3746,5.4281,5.473,5.5112,5.5819,5.6186,5.6848,5.7858,5.902,5.9689,6.0855,6.2376,6.291,6.3893,6.5096,6.572,6.6886,6.8275,6.8738,6.9471,7.0515,7.1002,7.1443,7.2057,7.2611,7.3043,7.3359,7.3565,7.3971,7.4174,7.4239,7.4239,7.4304,7.4264,7.4264,7.4456,7.468,7.4928,7.5212,7.5227,7.5145,7.5074,7.511,7.5288,7.5521,7.5692,7.5879,7.6006,7.6006,7.6006,7.6006,7.6006,7.6006,7.6006,7.597,7.613,7.644,7.6541,7.7053,7.7889,7.8261,7.9777,8.1517,8.0228,7.8905,7.7581,7.6622,7.6845,7.7077,7.725,7.7386,7.8482,7.8997,7.9645,7.9989,7.8615,7.8431,7.8283,7.832,7.8394,7.8246,7.8135,7.7945,7.8058,7.7948,7.802,7.9095,7.9507,7.9209,7.8794,7.8116,7.798,7.8208,7.9387,8.0678,3.5004,3.5269,3.6299,3.6949,3.7575,3.8958,4.0068,4.1184,4.2284,4.3487,4.4835,4.5558,4.6478,4.7477,4.8853,5.0566,5.2388,5.2053,5.2645,5.3477,5.3812,5.4079,5.4658,5.5381,5.5971,5.6156,5.6882,5.8071,5.9307,5.973,6.102,6.2701,6.4456,6.5411,6.5993,6.6969,6.7817,6.8568,6.8869,6.9134,6.9676,7.0515,7.1241,7.1633,7.2276,7.2898,7.3289,7.3672,7.412,7.4178,7.4345,7.4375,7.4304,7.4434,7.4689,7.4963,7.5121,7.5797,7.6056,7.594,7.5265,7.5252,7.5347,7.5463,7.5543,7.5768,7.5952,7.6006,7.6006,7.6006,7.6006,7.6006,7.6006,7.6006,7.6024,7.6183,7.6554,7.6906,7.7424,7.7827,7.8089,7.9426,8.1333,8.0662,7.8159,7.6749,7.7734,7.7867,7.8551,7.8445,7.8997,7.9897,8.0573,8.1289,8.0919,7.9656,7.8469,7.832,7.8357,7.8392,7.828,7.8133,7.8284,7.8394,7.8539,7.98,8.0746,8.1457,8.0115,7.9024,7.8461,7.8949,8.0745,8.2042,8.2821,3.5136,3.5381,3.6168,3.68,3.7426,3.8577,3.9589,4.0486,4.1552,4.2526,4.363,4.5025,4.6295,4.7658,4.8875,5.0633,5.2476,5.2836,5.3564,5.4425,5.4532,5.483,5.5703,5.5531,5.5848,5.6308,5.6855,5.7926,5.9746,5.9651,6.0979,6.3037,6.4418,6.5709,6.6726,6.7673,6.8258,6.8584,6.8892,6.9079,6.9189,6.9931,7.0793,7.1591,7.2555,7.3158,7.3635,7.4369,7.5207,7.4666,7.5251,7.534,7.5007,7.4876,7.5034,7.5263,7.5833,7.6555,7.6813,7.6097,7.5418,7.5405,7.5485,7.5543,7.5748,7.5824,7.5934,7.5952,7.6006,7.6006,7.6006,7.6006,7.6006,7.6006,7.597,7.6287,7.6785,7.6974,7.7489,7.8054,7.8616,7.9764,8.1527,8.0189,7.7633,7.7549,7.8642,7.9541,8.0356,8.0795,8.1402,8.196,8.2183,8.2592,8.2257,8.0176,7.8358,7.8356,7.8392,7.849,7.8449,7.8379,7.8462,7.9243,8.0702,8.2037,8.2934,8.355,8.1071,7.9182,8.0318,8.1695,8.3368,8.4554,8.5193,3.5383,3.5664,3.6168,3.678,3.7534,3.8557,3.9232,3.9758,4.1083,4.1865,4.2537,4.4559,4.6498,4.8269,4.9375,5.1104,5.2912,5.3718,5.4525,5.5283,5.5081,5.5418,5.5794,5.5581,5.5906,5.6398,5.707,5.8538,6.0075,6.0143,6.1669,6.3894,6.4776,6.5786,6.721,6.8023,6.8348,6.8532,6.8705,6.8901,6.9079,6.9656,7.0183,7.1217,7.2404,7.3099,7.3662,7.5589,7.6466,7.4838,7.6194,7.6126,7.5451,7.5548,7.6306,7.6919,7.7247,7.6955,7.7053,7.6157,7.5548,7.5521,7.56,7.5748,7.5804,7.586,7.5934,7.5952,7.6006,7.6006,7.6006,7.6006,7.6006,7.6024,7.613,7.6404,7.7037,7.7806,7.871,7.9655,7.9768,8.0287,8.0687,8.0188,7.9121,7.957,8.0792,8.1844,8.2026,8.2442,8.3324,8.3625,8.3777,8.3667,8.3553,8.0989,7.8797,7.89,7.8883,7.9003,7.8798,7.8686,7.9669,8.1239,8.2709,8.4114,8.4989,8.5638,8.4377,8.3376,8.3788,8.4462,8.5713,8.6829,8.7507,3.5765,3.5664,3.5907,3.6429,3.7317,3.8237,3.8853,3.9211,4.0134,4.1494,4.3354,4.4588,4.6758,4.9286,5.1221,5.2669,5.3658,5.4378,5.5034,5.5662,5.5318,5.5602,5.5853,5.5978,5.6436,5.8348,5.8433,5.958,6.1313,6.2296,6.2492,6.4619,6.5683,6.6389,6.712,6.7781,6.8315,6.8434,6.8673,6.8901,6.9111,6.9167,6.9676,7.0582,7.1736,7.2418,7.3174,7.4053,7.4265,7.4345,7.4681,7.4822,7.5202,7.6412,7.8668,8.1775,7.8751,7.7773,7.74,7.6539,7.5808,7.5748,7.5912,7.5932,7.6114,7.6385,7.6385,7.6295,7.6223,7.6223,7.6042,7.6223,7.6187,7.633,7.6549,7.6749,7.7533,7.9412,8.0875,8.1922,8.2256,8.259,8.2251,8.1838,8.1582,8.1693,8.3098,8.3957,8.3555,8.3676,8.4675,8.5237,8.5097,8.4989,8.4563,8.2511,8.0131,7.9811,7.9618,7.9515,7.9325,8.002,8.1296,8.3,8.4582,8.6125,8.7221,8.7278,8.756,8.8106,8.7691,8.6898,8.7655,8.9035,8.9127,3.4926,3.5513,3.5926,3.6299,3.6949,3.7724,3.8216,3.8682,3.9893,4.1307,4.2728,4.4802,4.7099,4.9763,5.1669,5.3484,5.4495,5.5094,5.5773,5.6593,5.6682,5.6833,5.7341,5.7197,5.7471,5.904,5.9481,6.0218,6.1035,6.1318,6.2214,6.3857,6.467,6.5749,6.699,6.772,6.8076,6.8429,6.8738,6.8958,6.899,6.9046,6.9417,6.9827,7.1417,7.2347,7.296,7.4396,7.4998,7.481,7.521,7.5439,7.5231,7.7184,8.0072,8.2304,8.0178,7.8662,7.8701,7.834,7.8041,7.8431,7.8437,7.855,7.857,7.857,7.8245,7.7559,7.7342,7.7306,7.7342,7.7342,7.8048,7.866,7.9699,8.0169,8.0292,8.1387,8.2665,8.3222,8.4744,8.5376,8.5636,8.5336,8.5039,8.4631,8.5923,8.5935,8.5485,8.4952,8.6017,8.6283,8.6185,8.6066,8.5554,8.4166,8.1746,8.1239,8.142,8.1464,8.1596,8.2327,8.3111,8.4377,8.5854,8.758,8.8497,8.8484,8.8562,8.8865,8.9016,8.8958,8.9089,8.9388,8.9603,3.4838,3.6186,3.6144,3.6463,3.6817,3.7309,3.7744,3.8191,3.9714,4.1006,4.2442,4.5095,4.7635,5.0158,5.1977,5.3649,5.5033,5.5588,5.6263,5.7695,5.7864,5.8456,5.9009,5.8554,5.8914,5.9742,6.0414,6.0926,6.1196,6.1059,6.1177,6.3088,6.408,6.4853,6.6667,6.7405,6.7963,6.8796,6.8901,6.9121,6.9326,6.9341,6.9101,6.9288,7.1116,7.22,7.2969,7.5259,7.601,7.5299,7.581,7.6471,7.6382,7.8225,7.993,8.0782,7.9988,8.0,7.9969,8.0001,8.0386,8.0383,8.0354,8.0845,8.0845,8.0628,8.0195,7.9689,7.9111,7.8859,7.8734,7.9223,8.0348,8.1541,8.2705,8.3525,8.4207,8.4621,8.5153,8.5524,8.6898,8.7975,8.7901,8.7381,8.7492,8.7901,8.7907,8.7876,8.7245,8.6456,8.6691,8.6784,8.6896,8.7159,8.669,8.5826,8.4146,8.3524,8.4114,8.4501,8.5065,8.5757,8.6047,8.6753,8.7447,8.8164,8.9277,8.9323,8.9102,8.9405,8.9594,8.9496,8.9436,8.958,8.9797,3.7641,3.7787,3.7407,3.7346,3.7551,3.7572,3.7595,3.7888,3.9405,4.1017,4.2834,4.5659,4.8364,5.0726,5.2682,5.4145,5.4709,5.5443,5.5792,5.6311,5.7006,5.8063,5.9228,5.9143,5.9654,6.042,6.1468,6.1762,6.1823,6.2099,6.2724,6.3505,6.4276,6.5256,6.6243,6.6897,6.8099,6.9258,6.8958,6.9121,7.0026,6.9546,6.9167,6.9309,7.0244,7.1009,7.2153,7.3247,7.409,7.4239,7.6093,7.7421,7.8367,7.9505,7.9501,7.7808,7.9965,8.1291,8.06,8.0853,8.09,8.1184,8.117,8.0845,8.1242,8.1386,8.1458,8.1531,8.1133,8.0159,7.9709,8.1708,8.298,8.3703,8.4528,8.645,8.856,8.9594,8.9906,9.0463,8.8681,8.8272,8.8012,8.8012,8.8012,8.8093,8.8583,8.8101,8.7243,8.6645,8.6626,8.698,8.7517,8.8023,8.7749,8.7373,8.6358,8.5757,8.6396,8.6772,8.7336,8.7765,8.8517,8.8878,8.86,8.9014,8.9769,8.9797,8.9708,8.9769,8.9754,8.9769,8.9745,8.9797,8.9797,3.5787,3.699,3.6707,3.6605,3.6811,3.711,3.7337,3.7881,3.9598,4.1278,4.3069,4.6137,4.8871,5.0871,5.2799,5.4043,5.4709,5.5443,5.5944,5.6183,5.7062,5.8066,5.8871,5.945,5.9654,6.0114,6.0372,6.0828,6.1332,6.1968,6.2653,6.3433,6.4303,6.5075,6.59,6.6475,6.7788,6.9339,6.9121,6.9374,7.0672,6.9734,6.9288,6.9244,6.9417,7.0066,7.1297,7.2503,7.3428,7.46,7.6763,7.8419,7.8843,8.0426,8.0338,7.8389,8.0648,8.2268,8.204,8.2881,8.3337,8.3493,8.3553,8.3553,8.348,8.3589,8.2903,8.265,8.2072,8.0953,8.0215,8.1867,8.3868,8.5362,8.7048,8.9056,9.1224,9.015,8.9349,8.9164,8.8685,8.8093,8.84,8.825,8.8174,8.8397,8.922,8.8437,8.7242,8.6533,8.6267,8.6941,8.7535,8.7995,8.79,8.8125,8.7524,8.7599,8.805,8.8125,8.8464,8.8716,8.9071,8.9151,8.943,8.9657,8.9707,8.9739,8.9769,8.9797,8.9797,8.9797,8.9797,8.9797,8.9759,3.5489,3.7271,3.7017,3.6937,3.6836,3.7239,3.745,3.771,3.9742,4.1302,4.3086,4.6336,4.8834,5.054,5.2431,5.3656,5.43,5.519,5.5917,5.6414,5.7245,5.797,5.8476,5.9067,5.9419,5.9535,5.968,5.9739,6.0315,6.1444,6.2327,6.2976,6.4095,6.4972,6.5659,6.6525,6.8009,6.9739,6.982,7.0488,7.1525,7.056,6.9659,6.9682,6.9353,6.9728,7.0774,7.2023,7.3218,7.4608,7.7759,7.9694,8.0398,8.1698,8.2214,8.1448,8.2527,8.3317,8.3719,8.4609,8.5247,8.5478,8.5153,8.5478,8.5539,8.5502,8.478,8.3769,8.3228,8.265,8.1711,8.2853,8.4865,8.6949,8.8386,9.015,9.1436,9.0261,8.8539,8.817,8.8247,8.9592,9.0636,9.0935,8.9929,9.0003,9.0264,9.0153,8.8585,8.7578,8.6797,8.7344,8.7738,8.8042,8.8361,8.884,8.9028,8.9028,8.899,8.8877,8.9017,8.913,8.9145,8.9256,8.9506,8.9657,8.9691,8.9739,8.9754,8.9797,8.9797,8.9797,8.9797,8.9797,8.9759,3.8712,4.0181,3.9755,3.9171,3.8702,3.8453,3.7975,3.7612,3.9357,4.0934,4.2678,4.5899,4.8466,5.0046,5.2192,5.3111,5.3371,5.4504,5.5264,5.5766,5.651,5.7245,5.7757,5.8476,5.9067,5.9419,5.9563,5.9767,6.0343,6.122,6.2108,6.2976,6.3991,6.4778,6.5605,6.7169,6.8874,7.0786,7.1409,7.2381,7.3937,7.2014,7.0731,7.0757,6.9879,6.9813,7.0888,7.1889,7.3153,7.537,7.8675,8.1281,8.3188,8.3858,8.4025,8.4114,8.4753,8.4889,8.496,8.5167,8.5329,8.5329,8.5391,8.5391,8.5539,8.5539,8.5322,8.5033,8.5069,8.5069,8.4889,8.5297,8.6395,8.8354,8.8791,8.9789,9.1763,9.1003,8.9512,8.8549,8.877,9.0556,9.5342,9.4332,9.3286,9.2688,9.1941,9.1197,8.9849,8.8866,8.7979,8.7915,8.8308,8.8577,8.8606,8.8981,8.9038,8.9038,8.9028,8.9017,8.9055,8.9055,8.9081,8.9279,8.9488,8.9601,8.9707,8.9754,8.9797,8.9797,8.9797,8.9797,8.9797,8.9797,8.9783,3.7859,3.8976,3.9048,3.8932,3.884,3.8518,3.8339,3.8278,3.9601,4.0913,4.2521,4.576,4.8328,4.9886,5.1794,5.2743,5.3136,5.412,5.4885,5.5264,5.5891,5.666,5.7543,5.809,5.8685,5.9302,5.9563,5.9883,6.0685,6.1444,6.2297,6.3297,6.4169,6.4747,6.5177,6.6997,6.8986,7.0695,7.1593,7.2831,7.3741,7.2242,7.096,7.0855,7.0143,7.0048,7.0793,7.2605,7.4272,7.5866,7.8184,8.0787,8.3328,8.4245,8.4746,8.504,8.504,8.5048,8.5148,8.5176,8.5239,8.5329,8.5329,8.5391,8.5514,8.5539,8.5539,8.5539,8.5539,8.5539,8.5599,8.585,8.6492,8.7631,8.8442,8.9076,8.9159,8.9223,8.8883,8.877,8.8577,8.9733,9.2762,9.3547,9.579,9.3323,9.3435,9.3623,9.1003,9.0447,8.9186,8.8428,8.8683,8.8758,8.8894,8.8961,8.9019,8.9038,8.9055,8.9108,8.9133,8.9108,8.9133,8.9325,8.9468,8.9601,8.9653,8.9754,8.9811,8.9797,8.9797,8.9797,8.9797,8.9797,8.9797,3.7486,3.8752,3.9261,3.9323,3.9253,3.9237,3.8869,3.8682,4.0206,4.1458,4.2929,4.6037,4.8443,5.0046,5.1504,5.2481,5.2875,5.363,5.4248,5.4758,5.529,5.6193,5.7178,5.773,5.8329,5.9095,5.9302,5.9883,6.0799,6.1637,6.2514,6.3343,6.4273,6.4747,6.4911,6.7197,6.9126,7.0504,7.2055,7.3593,7.4572,7.2768,7.1586,7.145,7.0494,7.05,7.1514,7.4145,7.6016,7.7262,7.8638,8.0752,8.3153,8.431,8.4976,8.5391,8.5076,8.4984,8.5048,8.5019,8.5048,8.514,8.514,8.5266,8.5453,8.5453,8.5453,8.5659,8.5539,8.5659,8.5778,8.6047,8.642,8.689,8.8284,8.8863,8.8268,8.8555,8.8734,8.8692,8.8612,8.8612,8.9696,9.3023,9.5379,9.3659,9.4557,9.4927,9.2447,9.1893,9.0833,8.8995,8.8698,8.8739,8.8796,8.8886,8.8972,8.9081,8.9184,8.9256,8.927,8.9284,8.927,8.9325,8.9448,8.9564,8.9598,8.9701,8.9773,8.9824,8.9824,8.9811,8.9811,8.9797,8.9797,3.8403,3.9883,4.0881,4.0741,4.0363,4.0718,3.9976,3.9282,4.1097,4.2577,4.367,4.6473,4.8766,5.0342,5.1419,5.2084,5.2505,5.3005,5.3501,5.4274,5.5064,5.5944,5.6687,5.7394,5.8118,5.8531,5.9213,5.9883,6.0912,6.1748,6.2593,6.3479,6.4376,6.4808,6.4839,6.7837,6.9688,7.0966,7.3555,7.525,7.5503,7.3675,7.2701,7.2568,7.1308,7.1335,7.3271,7.6,7.8176,7.9502,8.0519,8.2021,8.3815,8.4507,8.4876,8.5176,8.5176,8.4984,8.4782,8.4716,8.4817,8.4817,8.4782,8.5084,8.5482,8.541,8.5499,8.6008,8.5936,8.5778,8.6273,8.6474,8.6712,8.6993,8.8101,8.8682,8.8338,8.9265,8.9843,8.8881,8.8612,8.8612,8.9285,9.1977,9.4444,9.4856,9.5565,9.5511,9.4474,9.3109,9.136,9.0113,8.9472,8.9026,8.8889,8.8848,8.899,8.9184,8.9317,8.9347,8.9362,8.934,8.9325,8.9347,8.9468,8.9527,8.9598,8.9721,8.9773,8.9822,8.9811,8.9811,8.9799,8.9836,8.9824,3.7555,3.8934,4.028,4.0706,4.0711,4.1428,4.1549,4.1138,4.2335,4.3696,4.5028,4.7043,4.8904,5.0342,5.1309,5.1819,5.2084,5.2743,5.3371,5.4017,5.4683,5.5343,5.6193,5.6783,5.7394,5.809,5.8831,5.9942,6.1526,6.2485,6.3373,6.4273,6.451,6.528,6.6535,6.8532,7.0387,7.1877,7.3975,7.5355,7.5535,7.3637,7.2735,7.3234,7.377,7.3834,7.3521,7.7144,7.9425,8.0023,8.1718,8.3188,8.4364,8.4775,8.4984,8.4817,8.4752,8.4686,8.4619,8.4583,8.4686,8.4716,8.4919,8.5651,8.6669,8.6003,8.6405,8.7322,8.7063,8.6217,8.6621,8.7387,8.8189,8.8606,8.8191,8.7879,8.7999,8.8616,8.8772,8.851,8.8543,8.8612,8.9023,9.164,9.3958,9.5566,9.6757,9.6591,9.5699,9.4962,9.4462,9.1018,9.0267,8.9779,8.9577,8.9351,8.9301,8.9496,8.967,8.9465,8.9389,8.9389,8.941,8.941,8.945,8.9507,8.9594,8.9723,8.9758,8.9807,8.9845,8.9845,8.9845,8.9834,8.9822,3.6799,3.7863,3.9808,4.0861,4.1082,4.2183,4.2614,4.2648,4.379,4.4554,4.537,4.709,4.8618,4.9878,5.0204,5.0754,5.1335,5.2297,5.3145,5.3863,5.4683,5.5343,5.5819,5.6317,5.7028,5.7943,5.8657,6.0171,6.2158,6.3053,6.3825,6.4613,6.4716,6.5495,6.7059,6.8737,7.0499,7.2241,7.4088,7.5216,7.542,7.4157,7.3739,7.4526,7.588,7.6163,7.5346,7.8807,8.0786,8.0795,8.2498,8.379,8.4302,8.4847,8.5055,8.4752,8.4619,8.4516,8.4516,8.4516,8.4583,8.465,8.4883,8.5479,8.6462,8.7111,8.7648,8.8216,8.7365,8.6512,8.6657,8.7314,8.8169,8.8571,8.7895,8.7492,8.7971,8.8174,8.8288,8.8325,8.8505,8.8612,8.9434,9.2575,9.5342,9.5976,9.7127,9.725,9.6471,9.6166,9.5319,9.2656,9.1367,9.0888,9.059,9.042,8.9902,9.0137,8.9746,8.9444,8.941,8.941,8.9372,8.9372,8.9372,8.9489,8.9678,8.9785,8.9837,8.9837,8.9875,8.9913,8.9884,8.9817,8.9817,3.6489,3.7246,3.9505,4.0842,4.1866,4.2899,4.3484,4.3641,4.5077,4.5306,4.4852,4.6686,4.794,4.8454,4.8281,4.8886,5.028,5.1396,5.2281,5.3223,5.4729,5.5463,5.5515,5.6317,5.7028,5.8062,5.8983,6.057,6.2839,6.3236,6.3899,6.4613,6.4716,6.5423,6.7003,6.8709,7.0364,7.209,7.4043,7.5153,7.5314,7.5363,7.5529,7.628,7.7412,7.8197,7.8772,8.0933,8.2219,8.2245,8.3177,8.3755,8.3856,8.4716,8.5019,8.4674,8.4548,8.4516,8.4552,8.4552,8.4516,8.4583,8.4716,8.4954,8.5758,8.7777,8.8887,8.8529,8.7948,8.735,8.7021,8.7314,8.7328,8.7652,8.7453,8.7583,8.813,8.8212,8.8288,8.8399,8.8543,8.8612,8.8836,9.4407,9.6874,9.6602,9.6963,9.7601,9.7043,9.5872,9.5121,9.4161,9.2812,9.1632,9.3876,9.2573,9.1686,9.1418,9.025,8.9302,8.9331,8.9372,8.9372,8.9372,8.947,8.9543,8.9745,8.9834,8.9884,8.9901,8.9931,8.9939,8.9947,8.9846,8.9808,3.6334,3.6644,3.7827,3.9183,4.0711,4.2645,4.3963,4.4736,4.5291,4.5932,4.6287,4.6486,4.6269,4.5968,4.6433,4.7512,4.9042,5.0334,5.1099,5.1432,5.3145,5.4056,5.4434,5.5889,5.7123,5.8246,5.945,6.105,6.2839,6.3825,6.451,6.4716,6.4716,6.6018,6.8355,6.9189,7.0907,7.3355,7.4266,7.5032,7.5367,7.5959,7.6252,7.6579,7.8206,7.9075,7.8889,8.1048,8.2324,8.2679,8.3209,8.3224,8.2667,8.364,8.3716,8.2822,8.3536,8.4142,8.4142,8.4381,8.4516,8.4552,8.465,8.5313,8.6411,8.6613,8.7048,8.8131,9.1552,9.1982,9.0336,8.9283,8.8955,8.8829,8.7895,8.7538,8.8049,8.8212,8.8363,8.8325,8.8692,8.8612,8.9546,9.4145,9.814,9.7213,9.7399,9.7658,9.7091,9.6678,9.5992,9.5048,9.4415,9.4244,9.4922,9.3324,9.1881,9.1393,9.0071,8.8819,8.9287,8.9352,8.9372,8.943,8.9598,8.9731,8.9811,8.9903,8.9955,8.9993,8.9993,8.9993,9.0,8.9955,8.9917,3.6368,3.6351,3.7228,3.8879,4.1082,4.2698,4.4137,4.5326,4.5095,4.5122,4.5308,4.471,4.4302,4.3844,4.4747,4.6174,4.7982,4.9076,4.9905,5.0708,5.2738,5.368,5.4081,5.6095,5.7582,5.863,6.0143,6.1526,6.2976,6.4065,6.4644,6.4778,6.5269,6.6726,6.8926,6.9815,7.1503,7.3899,7.4344,7.4783,7.5323,7.6138,7.6346,7.6079,7.83,7.9305,7.8843,8.0967,8.2393,8.2629,8.3204,8.3294,8.2684,8.3365,8.3294,8.2375,8.3188,8.3754,8.3754,8.4107,8.4313,8.4313,8.4583,8.5175,8.6202,8.5622,8.5635,8.7163,9.0041,9.1333,8.912,8.8473,8.8391,8.8485,8.7858,8.7456,8.8008,8.8807,8.9294,8.9332,8.9702,9.0107,9.1191,9.4482,9.6944,9.7511,9.7483,9.7352,9.6978,9.6853,9.6573,9.6107,9.6044,9.5972,9.5352,9.3655,9.2421,9.1438,8.982,8.8637,8.9265,8.9372,8.9372,8.9372,8.9632,8.9773,8.9824,8.9913,9.0,9.0,9.0,9.0,9.0,9.0,8.9962,3.6368,3.6506,3.7246,3.9316,4.1914,4.2718,4.3911,4.5184,4.4408,4.3382,4.2639,4.2274,4.23,4.2619,4.3269,4.4823,4.6848,4.7612,4.8826,5.0418,5.289,5.4005,5.3964,5.6647,5.8329,5.9039,6.0712,6.2078,6.2976,6.3886,6.4499,6.5054,6.6221,6.7573,6.9016,7.0255,7.1881,7.3593,7.3841,7.4155,7.4684,7.5544,7.572,7.4784,7.7622,7.879,7.784,8.0378,8.1818,8.208,8.2748,8.3009,8.2617,8.301,8.2938,8.2252,8.2611,8.2969,8.2971,8.333,8.3435,8.3577,8.4021,8.4466,8.4567,8.4589,8.4725,8.532,8.5683,8.638,8.5778,8.604,8.6657,8.726,8.7295,8.7456,8.812,8.9551,9.0561,9.0561,9.1084,9.2313,9.3023,9.4482,9.5859,9.7325,9.7398,9.7054,9.6633,9.6611,9.6669,9.6973,9.7105,9.6603,9.5484,9.4294,9.268,9.152,9.0062,8.9322,8.9265,8.9372,8.9372,8.945,8.9648,8.9799,8.9834,8.9884,9.0,9.0,9.0,9.0,9.0,9.0,9.0,3.6368,3.6351,3.7228,3.8268,3.9713,4.1508,4.3407,4.4892,4.354,4.24,4.1529,4.1487,4.1865,4.2619,4.3004,4.4201,4.5812,4.6946,4.7898,4.9018,5.1881,5.3333,5.3547,5.6386,5.8329,5.9039,6.0741,6.2108,6.2976,6.3886,6.4927,6.6283,6.7634,6.8986,7.0225,6.9936,7.0957,7.3407,7.1602,7.0984,7.1866,7.2317,7.2861,7.3573,7.4895,7.5826,7.6482,7.7718,7.8696,7.9362,7.9658,7.9168,7.7657,7.8886,7.899,7.7616,7.8562,7.9409,7.9801,8.0148,8.0316,8.0454,8.1853,8.2863,8.2849,8.1791,8.2041,8.4388,8.4876,8.5104,8.5453,8.5695,8.6217,8.6803,8.7088,8.7492,8.7967,8.8472,8.8847,8.9071,9.0673,9.2276,9.336,9.4519,9.5977,9.7568,9.752,9.6868,9.6313,9.6401,9.6647,9.665,9.6131,9.5435,9.5341,9.3165,9.1606,9.1648,9.0118,8.9372,8.9309,8.9372,8.9372,8.945,8.9632,8.9786,8.9822,8.9922,8.9993,9.0,9.0,9.0,9.0,9.0,8.9955,3.6368,3.6472,3.6534,3.7421,3.8718,3.9903,4.1708,4.352,4.2578,4.1993,4.1688,4.1665,4.201,4.2619,4.2763,4.382,4.5492,4.6542,4.7445,4.8569,5.192,5.3366,5.3582,5.6903,5.8776,5.9302,6.1028,6.2335,6.3006,6.3645,6.4535,6.5791,6.6528,6.7603,6.8863,6.8973,6.9899,7.1558,6.8477,6.7522,6.8817,6.9282,6.9547,6.9658,7.2779,7.4391,7.4473,7.6324,7.7731,7.8462,7.8676,7.8358,7.7578,7.7719,7.7654,7.7132,7.7376,7.7728,7.8217,7.8745,7.9087,7.9359,8.047,8.0878,8.0255,8.0013,8.0806,8.3006,8.4084,8.4716,8.523,8.5514,8.5895,8.6507,8.694,8.74,8.7877,8.8613,8.9331,8.9443,8.9966,9.0524,9.1231,9.3136,9.5415,9.7847,9.6834,9.5843,9.5885,9.4804,9.3981,9.4339,9.3996,9.3226,9.1886,9.0918,9.0709,9.0371,8.9736,8.9355,8.9331,8.9372,8.9372,8.943,8.9618,8.9785,8.9799,8.9875,8.9917,8.9962,9.0,8.9993,8.9985,8.9939,8.9598,3.6006,3.6126,3.5868,3.6738,3.844,3.8732,4.0009,4.1807,4.1529,4.162,4.2201,4.2201,4.2277,4.2642,4.2716,4.3677,4.5467,4.6516,4.7505,4.8821,5.2344,5.3797,5.3791,5.7398,5.9245,5.9563,6.137,6.2483,6.2898,6.3267,6.3946,6.4889,6.5023,6.573,6.6928,6.8018,6.8557,6.8479,6.5524,6.4675,6.6283,6.6993,6.6605,6.5475,7.0577,7.3028,7.192,7.4727,7.6516,7.6886,7.6846,7.6975,7.7303,7.5984,7.6134,7.743,7.6501,7.6062,7.6675,7.7271,7.7716,7.8048,7.8797,7.8701,7.7381,7.8068,7.9316,8.1163,8.3268,8.4573,8.4358,8.4439,8.4732,8.5455,8.6187,8.672,8.7049,8.8581,8.9762,8.9799,8.8839,8.8172,8.8921,9.2018,9.5528,9.672,9.5573,9.4302,9.427,9.2571,9.1246,9.1554,9.1676,9.0375,8.8922,8.9245,8.9845,8.9188,8.9294,8.9352,8.9448,8.9448,8.9448,8.9448,8.9659,8.9789,8.9721,8.9769,8.9879,8.9962,9.0,9.0,8.9985,8.9609,8.8993,3.3977,3.4844,3.5125,3.6374,3.8249,3.9477,4.028,4.0705,4.0421,0.0,0.0,4.2201,4.2277,4.2619,4.3367,4.4341,4.5583,4.7419,4.861,4.9395,5.2706,5.4332,5.447,5.7248,5.8977,5.9563,6.0828,6.1807,6.2682,6.3493,6.4568,6.5935,6.6239,6.702,6.8218,6.746,6.6577,6.5557,6.5146,6.5371,6.6318,6.6577,6.5971,6.4245,6.827,6.9533,6.7722,7.0175,7.0823,6.9056,6.814,6.7539,6.723,6.735,6.8584,7.1122,7.1207,7.1361,7.1621,7.1692,7.1728,7.1752,7.4444,7.6014,7.5847,7.3576,7.4379,7.9744,8.284,8.3548,8.1077,8.1041,8.1332,8.1666,8.3196,8.4328,8.4722,8.6132,8.7242,8.7223,8.7014,8.7,8.7279,9.293,9.6941,9.4553,9.3502,9.3072,9.1965,9.1094,9.0596,9.0909,9.0236,8.9258,8.8116,8.843,8.8836,8.913,8.9302,8.9448,8.9523,8.9486,8.9448,8.9581,8.971,8.9709,8.954,8.9672,8.9879,9.0,9.0,9.0,8.9879,8.8813,8.7635,3.3806,3.4824,3.4891,3.5876,0.0,3.8143,3.89,3.9743,4.0182,4.1273,4.2642,4.2665,4.2907,4.3365,4.3796,4.4811,4.6478,4.7813,4.8937,4.9961,5.2628,5.4173,5.4698,5.607,5.7581,5.9185,5.9935,6.063,6.122,6.1666,6.2623,6.4091,6.4765,6.4778,6.451,6.5249,6.5383,6.4747,6.3652,6.3516,6.4114,6.4521,6.4436,6.3923,6.7527,0.0,0.0,0.0,0.0,0.0,0.0,0.0,0.0,6.3143,0.0,6.3203,6.1138,5.9744,5.9626,6.0423,6.2191,6.5148,6.7124,6.7551,6.608,6.8909,7.0012,6.8462,7.6775,8.1555,8.0093,8.0067,8.0266,8.0504,8.1561,8.2415,8.2666,8.3487,8.4369,8.4987,8.4071,8.4089,8.588,9.0644,9.2199,9.0197,9.0802,9.1279,9.016,8.9049,8.8384,8.8639,8.8154,8.7719,8.7566,8.7982,8.86,8.9184,8.9368,8.9448,8.9486,8.9615,8.9625,8.9545,8.9577,8.9565,8.9432,8.9523,8.9685,8.9875,8.9913,8.9486,8.76,8.667,8.5902,3.3747,3.4933,3.4592,3.5479,3.7015,3.6857,3.7575,3.9085,3.9987,4.1251,4.2642,4.3004,4.3485,4.4082,4.4437,4.5442,4.722,4.8228,4.9262,5.0466,5.2451,5.3779,5.4394,5.474,5.6208,5.8323,5.8642,5.9083,5.9711,5.9798,6.0457,6.1741,6.2641,6.2423,6.1053,0.0,0.0,0.0,6.2539,6.2201,6.2763,6.3255,6.3574,6.3707,6.7355,0.0,6.8527,7.0121,7.0782,7.0095,6.9848,0.0,0.0,0.0,0.0,0.0,0.0,0.0,0.0,0.0,0.0,0.0,5.752,5.7134,5.6185,6.3383,6.4898,5.7617,7.0139,7.8559,7.7381,7.7825,7.8304,7.8484,7.9071,7.9731,8.0112,8.0582,8.1468,8.3103,8.1392,8.1128,8.4035,8.6606,8.7711,8.6994,8.8228,8.9174,8.8493,8.7128,8.6171,8.6104,8.6621,8.6847,8.7269,8.8023,8.8751,8.9242,8.9372,8.941,8.9468,8.9708,8.971,8.896,8.8844,8.8713,8.8428,8.8524,8.8636,8.9621,8.9799,8.8712,8.5214,8.4489,8.4092,3.3027,3.4082,3.4626,3.5532,3.6718,3.7119,3.7852,3.8747,3.9085,3.984,4.1004,4.274,4.3725,4.42,4.5442,4.6339,4.6995,4.8881,4.9986,5.0415,5.2451,5.3197,5.282,5.3977,5.5189,5.6462,5.6949,5.7798,5.9334,5.9654,6.0114,6.0909,6.196,6.2677,6.2966,6.2315,6.1686,6.12,6.3244,6.4737,6.5751,6.5848,6.5244,6.4138,6.6983,6.7801,6.5823,6.7881,6.7642,6.4487,6.3749,6.2854,6.1557,6.0016,5.7881,0.0,5.3188,0.0,0.0,0.0,0.0,0.0,0.0,0.0,0.0,5.5957,5.7698,5.6511,6.8248,7.3564,6.7998,7.0103,7.1766,7.1837,7.3012,7.4487,7.5871,7.7242,7.8663,8.0263,8.0148,7.995,8.0692,8.3733,8.6164,8.6491,8.6675,8.654,8.633,8.6343,8.6329,8.6164,8.6633,8.7063,8.7546,8.825,8.8897,8.9287,8.9372,8.9448,8.9486,8.9507,8.9035,8.7673,8.6956,8.6238,8.5332,8.5276,8.635,8.895,8.9356,8.7941,8.4356,8.3016,8.2832,3.2537,3.3734,3.4954,3.5678,3.598,3.5288,3.5759,3.6926,3.7514,3.8479,3.9572,4.114,4.2428,4.3555,4.4418,4.5291,4.6176,4.7792,4.88,4.9431,5.0897,5.1804,5.2245,5.2377,5.3388,5.4932,5.4859,5.5194,5.5789,5.6136,5.6708,5.747,5.8547,5.8095,5.6084,5.8498,6.0341,6.1338,6.2442,6.3918,6.5763,6.609,6.6072,6.5764,6.7558,6.7982,6.6702,6.7836,6.7774,6.6047,6.4719,6.3876,6.3441,5.3443,4.6951,0.0,0.0,0.0,0.0,0.0,0.0,0.0,0.0,0.0,0.0,0.0,4.8568,3.9011,5.5895,6.7642,6.832,6.6536,6.568,6.6553,6.4919,6.61,7.1994,7.1658,7.2587,7.681,7.5776,7.5383,7.7203,8.174,8.5293,8.6161,8.5284,8.43,8.3815,8.5087,8.6273,8.6437,8.6706,8.7,8.7501,8.8101,8.8709,8.9271,8.9259,8.8823,8.8133,8.8743,8.8538,8.5992,8.5326,8.452,8.2095,8.1725,8.2989,8.5697,8.5538,8.3608,8.1677,8.1074,8.0921,3.2681,3.3499,3.3887,3.4403,3.4785,3.3357,3.3883,3.5575,3.6634,3.7656,3.8821,4.0192,4.1208,4.1811,4.1709,4.2677,4.4458,4.5411,4.6773,4.835,4.9152,5.0114,5.1018,5.0338,5.1091,5.2939,5.2414,5.2406,5.294,5.2928,5.2897,5.3034,5.3269,5.211,5.0021,5.3941,5.7841,6.1295,6.1186,6.227,6.4467,6.5706,6.6419,6.6547,6.7415,6.7558,6.6899,6.7459,6.7669,6.7361,6.6176,6.5602,6.5676,4.97,0.0,0.0,0.0,0.0,0.0,0.0,0.0,0.0,0.0,3.8237,3.0692,0.0,3.8472,0.0,4.4843,6.1064,6.6554,6.2405,0.0,0.0,5.6993,5.727,6.5144,6.4859,6.6215,7.1723,7.126,7.1459,7.3814,7.962,8.3864,8.4633,8.3279,8.2233,8.2216,8.3707,8.5127,8.6465,8.6847,8.7037,8.7409,8.7761,8.8295,8.9157,8.8359,8.7334,8.6297,8.667,8.6218,8.4053,8.3384,8.2186,7.9714,7.9268,8.0518,8.2552,8.1451,7.9447,7.821,7.8275,7.8422,3.3932,3.3143,3.0301,3.0494,3.2495,3.2303,3.3674,3.6207,3.7519,3.8458,3.9025,4.1113,4.0721,3.8376,3.6509,0.0,4.1226,4.1955,4.4126,4.7522,4.8117,4.8354,4.8286,4.7778,4.8458,5.0311,4.9423,5.0341,5.2663,5.1839,5.0123,4.8021,4.5335,4.5754,4.8903,4.9362,5.2739,5.9243,5.9728,6.0602,6.1964,6.4712,6.5849,6.5146,6.5662,6.5319,6.4062,6.5198,6.5611,6.5034,6.5307,6.5743,6.5788,0.0,0.0,0.0,0.0,0.0,0.0,0.0,0.0,0.0,0.0,0.0,0.0,0.0,0.0,2.3166,4.0693,0.0,5.6994,5.5592,0.0,0.0,0.0,4.9126,5.2638,5.6751,6.053,6.3726,0.0,0.0,7.0924,7.6681,8.0805,8.0925,7.9777,8.0057,8.3014,8.2128,8.2523,8.6206,8.7184,8.7409,8.6726,8.6782,8.7262,8.8477,8.6371,8.4259,8.414,8.2209,8.0756,8.1533,8.0556,7.9403,7.9177,7.8789,7.9253,7.9442,7.9566,7.8286,7.4667,7.4387,7.51,2.9819,2.7856,2.6711,2.7924,3.0384,2.8718,3.0564,3.4881,3.531,3.5161,3.4814,3.6288,3.5142,3.1796,3.1224,0.0,0.0,0.0,3.9431,4.3212,4.3339,4.4681,4.6854,4.6181,4.6588,4.7922,4.7705,4.8155,4.9386,4.8924,4.4054,3.5211,0.0,3.6685,3.7063,4.2702,4.8012,5.2922,5.6266,5.8816,6.0542,6.205,6.2981,6.329,6.3803,6.4136,6.436,6.3798,6.2413,6.0096,5.6296,5.0959,0.0,0.0,0.0,0.0,0.0,0.0,0.0,0.0,0.0,0.0,0.0,2.9135,2.4269,0.0,0.0,0.0,3.1791,4.0658,4.9745,4.8989,0.0,0.0,0.0,0.0,0.0,0.0,0.0,5.6675,5.672,5.8344,6.387,6.9558,7.3586,7.461,7.6133,7.7701,7.9233,0.0,8.1948,8.2664,8.5326,8.5999,8.2075,8.1449,8.2982,8.7377,8.2292,7.8278,8.0199,7.9899,7.9213,7.9392,7.8476,7.7771,7.8614,7.528,7.3226,7.5839,7.6531,7.6064,7.4131,7.3357,7.3441,2.5244,0.0,0.0,0.0,0.0,2.5369,2.762,3.275,3.2876,3.2321,3.1341,3.2644,0.0,0.0,0.0,0.0,0.0,0.0,3.6114,3.9803,4.1174,4.3304,4.6084,4.5324,4.5638,4.6629,4.6258,4.5772,4.5092,4.2807,3.6053,2.5355,0.0,0.0,0.0,0.0,4.2828,4.8045,5.3096,5.6813,5.8855,5.9665,6.0642,6.1887,6.2414,6.278,6.3212,6.0982,5.8276,5.508,4.8092,0.0,0.0,0.0,0.0,0.0,0.0,0.0,0.0,0.0,0.0,0.0,0.0,0.0,0.0,0.0,0.0,0.0,0.0,0.0,4.2813,4.3272,4.2214,0.0,0.0,0.0,0.0,0.0,0.0,0.0,0.0,0.0,5.4315,6.1181,6.7033,0.0,0.0,7.4742,7.6543,7.9175,8.0513,7.9355,8.2185,0.0,7.4519,7.3497,7.5197,7.9956,7.6512,7.3502,7.4802,7.6144,7.6415,7.4418,7.4503,7.4628,7.403,6.8493,6.6251,7.1298,7.0881,6.9392,6.9863,7.0343,7.0516,0.0,0.0,0.0,0.0,0.0,0.0,0.0,0.0,3.089,3.0708,0.0,3.1435,0.0,0.0,0.0,0.0,2.5983,3.0626,0.0,0.0,4.2877,4.5612,4.5722,4.525,4.566,4.6634,4.4899,4.2858,4.0332,3.2813,0.0,0.0,0.0,0.0,0.0,0.0,3.6679,4.5495,5.0825,5.4353,5.6405,5.8038,5.9591,6.1329,6.1539,6.0837,5.9244,5.6041,5.3131,5.0522,4.2638,0.0,0.0,0.0,0.0,0.0,0.0,0.0,0.0,0.0,0.0,0.0,0.0,0.0,0.0,0.0,0.0,0.0,0.0,0.0,0.0,3.8617,0.0,0.0,0.0,0.0,0.0,0.0,0.0,0.0,0.0,4.7247,4.2645,5.2108,6.2212,6.9875,0.0,0.0,0.0,0.0,7.7423,7.7549,7.7753,7.4523,6.5093,6.3886,6.4229,6.4468,0.0,0.0,6.7381,6.9617,7.0288,6.5311,6.8172,6.9582,6.4691,5.7937,5.6675,6.6528,6.2285,5.7557,5.9306,6.265,6.462,0.0,0.0,0.0,0.0,0.0,0.0,0.0,0.0,0.0,2.6657,0.0,2.6106,0.0,0.0,0.0,0.0,0.0,0.0,0.0,0.0,3.5091,3.7193,3.8227,4.0215,4.0299,0.0,3.692,3.3723,0.0,0.0,0.0,0.0,0.0,0.0,0.0,0.0,3.3318,3.96,4.8481,5.3369,5.4106,5.6216,5.7801,5.8685,5.9383,5.785,5.3988,5.0068,4.7077,0.0,0.0,0.0,0.0,0.0,0.0,0.0,0.0,0.0,0.0,0.0,0.0,0.0,0.0,0.0,0.0,0.0,0.0,0.0,0.0,0.0,0.0,0.0,3.4907,0.0,0.0,0.0,0.0,0.0,0.0,0.0,0.0,0.0,3.8013,4.7332,5.7349,6.6697,6.7689,6.9303,7.4198,0.0,0.0,0.0,0.0,0.0,0.0,0.0,6.4312,6.6004,6.8293,6.6575,5.6586,5.7269,6.0222,6.3106,0.0,0.0,5.2955,4.8324,4.8157,5.4952,5.2551,5.0005,5.2324,5.2731,5.2853,0.0,0.0,0.0,0.0,0.0,0.0,0.0,0.0,0.0,2.3009,2.1872,0.0,0.0,0.0,0.0,0.0,0.0,0.0,0.0,0.0,0.0,0.0,3.4006,3.6606,0.0,0.0,0.0,0.0,0.0,0.0,0.0,0.0,0.0,0.0,0.0,0.0,3.0561,3.6623,4.6855,5.2504,5.2952,5.5514,5.6717,5.6515,5.7619,5.5752,5.0567,0.0,0.0,0.0,0.0,0.0,0.0,0.0,0.0,0.0,0.0,0.0,0.0,0.0,0.0,0.0,0.0,0.0,0.0,0.0,0.0,0.0,0.0,0.0,0.0,0.0,3.2958,0.0,0.0,0.0,0.0,0.0,0.0,0.0,0.0,0.0,0.0,0.0,5.2544,6.3155,6.4385,6.5953,7.086,7.1692,7.1639,0.0,0.0,0.0,0.0,0.0,0.0,0.0,0.0,0.0,0.0,0.0,0.0,0.0,0.0,5.3578,4.4503,4.1703,4.1346,4.3423,0.0,0.0,0.0,0.0,0.0,0.0,0.0,0.0,0.0,0.0,0.0,0.0,0.0,0.0,0.0,1.9175,0.0,0.0,1.4911,0.0,0.0,0.0,0.0,0.0,0.0,0.0,0.0,0.0,0.0,0.0,0.0,0.0,0.0,0.0,0.0,0.0,0.0,0.0,0.0,0.0,0.0,2.8374,3.6571,4.5994,5.155,5.2954,5.5747,5.6422,5.4924,5.6325,5.4528,4.9042,0.0,0.0,0.0,0.0,0.0,0.0,0.0,0.0,0.0,0.0,0.0,0.0,0.0,0.0,0.0,0.0,0.0,0.0,0.0,0.0,0.0,0.0,0.0,0.0,0.0,0.0,3.2564,3.5515,3.6954,0.0,0.0,0.0,0.0,0.0,0.0,0.0,0.0,0.0,5.9044,5.985,6.1108,6.6202,6.9351,7.0352,6.8063,6.5632,6.4267,6.4964,6.7048,6.7176,0.0,0.0,0.0,0.0,0.0,0.0,0.0,0.0,0.0,0.0,0.0,0.0,0.0,0.0,0.0,0.0,0.0,0.0,0.0,0.0,0.0,0.0,0.0,0.0,0.0,0.0,0.0,0.0,0.0,0.0,0.0,0.0,0.0,0.0,0.0,0.0,0.0,0.0,0.0,0.0,0.0,0.0,0.0,0.0,0.0,0.0,0.0,0.0,0.0,0.0,0.0,0.0,0.0,0.0,2.8957,3.5103,4.4299,4.9533,5.0637,5.2845,5.401,5.416,5.4864,5.2448,0.0,0.0,0.0,0.0,0.0,0.0,0.0,0.0,0.0,0.0,0.0,0.0,0.0,0.0,0.0,0.0,0.0,0.0,0.0,0.0,0.0,0.0,0.0,0.0,0.0,0.0,0.0,0.0,3.718,3.7939,3.5474,0.0,0.0,0.0,0.0,0.0,0.0,0.0,0.0,0.0,0.0,5.9291,6.4123,6.6784,6.8101,6.7696,6.7116,6.6904,6.7524,6.8172,6.6132,5.9051,0.0,0.0,0.0,0.0,0.0,0.0,0.0,0.0,0.0,0.0,0.0,0.0,0.0,0.0,0.0,0.0,0.0,0.0,0.0,0.0,0.0,0.0,0.0,0.0,0.0,0.0,0.0,0.0,0.0,0.0,0.0,0.0,0.0,0.0,0.0,0.0,0.0,0.0,0.0,0.0,0.0,0.0,0.0,0.0,0.0,0.0,0.0,0.0,0.0,0.0,0.0,0.0,0.0,2.9277,3.4727,4.3627,4.8762,4.9795,5.1785,5.2851,5.291,5.3035,4.9744,0.0,0.0,0.0,0.0,0.0,0.0,0.0,0.0,0.0,0.0,0.0,0.0,0.0,0.0,0.0,0.0,0.0,0.0,0.0,0.0,0.0,0.0,0.0,0.0,0.0,0.0,0.0,0.0,3.4222,3.6077,3.4769,0.0,0.0,0.0,0.0,0.0,0.0,0.0,0.0,0.0,0.0,5.4768,5.9634,6.0834,0.0,0.0,6.6897,6.7593,6.6892,6.6719,6.3449,5.4035,3.9724,0.0,0.0,0.0,0.0,0.0,0.0,0.0,0.0,0.0,0.0,0.0,0.0,0.0,0.0,0.0,0.0,0.0,0.0,0.0,0.0,0.0,0.0,0.0,0.0,0.0,0.0,0.0,0.0,0.0,0.0,0.0,0.0,0.0,0.0,0.0,0.0,0.0,0.0,0.0,0.0,0.0,0.0,0.0,0.0,0.0,0.0,0.0,0.0,0.0,0.0,0.0,0.0,2.9605,3.5255,4.3645,4.8669,5.0051,5.1926,5.2469,5.1453,5.0881,4.6907,0.0,0.0,0.0,0.0,0.0,0.0,0.0,0.0,0.0,0.0,0.0,0.0,0.0,0.0,0.0,0.0,0.0,0.0,0.0,0.0,0.0,0.0,0.0,0.0,0.0,0.0,0.0,0.0,0.0,0.0,0.0,0.0,0.0,0.0,0.0,0.0,0.0,0.0,0.0,0.0,0.0,4.8879,5.4045,5.3141,5.4378,0.0,6.469,6.597,6.3584,6.3275,5.9625,4.8989,0.0,0.0,0.0,0.0,0.0,0.0,0.0,0.0,0.0,0.0,0.0,0.0,0.0,0.0,0.0,0.0,0.0,0.0,0.0,0.0,0.0,0.0,0.0,0.0,0.0,0.0,0.0,0.0,0.0,0.0,0.0,0.0,0.0,0.0,0.0,0.0,0.0,0.0,0.0,0.0,0.0,0.0,0.0,0.0,0.0,0.0,0.0,0.0,0.0,0.0,0.0,0.0,0.0,0.0,3.4946,4.252,4.7279,4.8943,4.9592,4.9977,5.0148,4.9347,0.0,0.0,0.0,0.0,0.0,0.0,0.0,0.0,0.0,0.0,0.0,0.0,0.0,0.0,0.0,0.0,0.0,0.0,0.0,0.0,0.0,0.0,0.0,0.0,0.0,0.0,0.0,2.0955,0.0,0.0,0.0,0.0,0.0,0.0,0.0,0.0,0.0,0.0,0.0,0.0,0.0,0.0,5.036,5.5136,5.3083,5.2901,0.0,0.0,5.6644,5.9334,6.0052,5.8211,0.0,0.0,0.0,0.0,0.0,0.0,0.0,0.0,0.0,0.0,0.0,0.0,0.0,0.0,0.0,0.0,0.0,0.0,0.0,0.0,0.0,0.0,0.0,0.0,0.0,0.0,0.0,0.0,0.0,0.0,0.0,0.0,0.0,0.0,0.0,0.0,0.0,0.0,0.0,0.0,0.0,0.0,0.0,0.0,0.0,0.0,0.0,0.0,0.0,0.0,0.0,0.0,0.0,0.0,2.9078,3.3924,3.9606,4.4263,4.7591,4.8057,4.8216,4.8318,4.7864,4.464,0.0,0.0,0.0,0.0,0.0,0.0,0.0,0.0,0.0,0.0,0.0,0.0,0.0,0.0,0.0,0.0,0.0,0.0,0.0,0.0,0.0,0.0,0.0,0.0,0.0,0.0,0.0,0.0,0.0,0.0,0.0,0.0,0.0,0.0,0.0,0.0,0.0,0.0,0.0,0.0,0.0,0.0,5.072,4.9246,0.0,0.0,0.0,5.0162,5.3897,0.0,0.0,0.0,0.0,0.0,0.0,0.0,0.0,0.0,0.0,0.0,0.0,0.0,0.0,0.0,0.0,0.0,0.0,0.0,0.0,0.0,0.0,0.0,0.0,0.0,0.0,0.0,0.0,0.0,0.0,0.0,0.0,0.0,0.0,0.0,0.0,0.0,0.0,0.0,0.0,0.0,0.0,0.0,0.0,0.0,0.0,0.0,0.0,0.0,0.0,0.0,0.0,0.0,0.0,0.0,0.0,0.0,3.2723,3.6956,4.1573,4.6383,4.7237,4.7135,4.6461,4.6364,4.3453,0.0,0.0,0.0,0.0,0.0,0.0,0.0,0.0,0.0,0.0,0.0,0.0,0.0,0.0,0.0,0.0,0.0,0.0,0.0,0.0,0.0,0.0,0.0,0.0,0.0,0.0,0.0,0.0,0.0,0.0,0.0,0.0,0.0,0.0,0.0,0.0,0.0,0.0,0.0,0.0,0.0,4.5339,4.4916,4.4192,4.4035,0.0,0.0,4.5236,4.7614,4.8689,0.0,0.0,0.0,0.0,0.0,0.0,0.0,0.0,0.0,0.0,0.0,0.0,0.0,0.0,0.0,0.0,0.0,0.0,0.0,0.0,0.0,0.0,0.0,0.0,0.0,0.0,0.0,0.0,0.0,0.0,0.0,0.0,0.0,0.0,0.0,0.0,0.0,0.0,0.0,0.0,0.0,0.0,0.0,0.0,0.0,0.0,0.0,0.0,0.0,0.0,0.0,0.0,0.0,0.0,0.0,0.0,3.3046,4.1115,4.58,4.663,4.7379,4.7303,4.6493,4.5866,4.293,0.0,0.0,0.0,0.0,0.0,0.0,0.0,0.0,0.0,0.0,0.0,0.0,0.0,0.0,0.0,0.0,0.0,0.0,0.0,0.0,0.0,0.0,0.0,0.0,0.0,0.0,0.0,0.0,0.0,0.0,0.0,0.0,0.0,0.0,0.0,0.0,0.0,0.0,0.0,0.0,0.0,4.379,4.7217,4.4055,0.0,0.0,0.0,0.0,4.1017,4.5574,0.0,0.0,0.0,0.0,0.0,0.0,0.0,0.0,0.0,0.0,0.0,0.0,0.0,0.0,0.0,0.0,0.0,0.0,0.0,0.0,0.0,0.0,0.0,0.0,0.0,0.0,0.0,0.0,0.0,0.0,0.0,0.0,0.0,0.0,0.0,0.0,0.0,0.0,0.0,0.0,0.0,0.0,0.0,0.0,0.0,0.0,0.0,0.0,0.0,0.0,0.0,0.0,0.0,0.0,0.0,0.0,3.4666,3.9493,4.3209,4.5611,4.6376,4.6137,4.4991,4.5039,4.2295,0.0,0.0,0.0,0.0,0.0,0.0,0.0,0.0,0.0,0.0,0.0,0.0,0.0,0.0,0.0,0.0,0.0,0.0,0.0,0.0,0.0,0.0,0.0,0.0,0.0,0.0,0.0,0.0,0.0,0.0,0.0,0.0,0.0,0.0,0.0,0.0,0.0,0.0,0.0,0.0,3.9914,4.2426,4.4197,0.0,0.0,0.0,0.0,0.0,0.0,4.0141,3.9619,0.0,0.0,0.0,0.0,0.0,0.0,0.0,0.0,0.0,0.0,0.0,0.0,0.0,0.0,0.0,0.0,0.0,0.0,0.0,0.0,0.0,0.0,0.0,0.0,0.0,0.0,0.0,0.0,0.0,0.0,0.0,0.0,0.0,0.0,0.0,0.0,0.0,0.0,0.0,0.0,0.0,0.0,0.0,0.0,0.0,0.0,0.0,0.0,0.0,0.0,0.0,0.0,0.0,0.0,0.0,3.5853,3.6897,3.9872,4.5018,4.5441,4.4989,4.375,4.462,4.2072,3.5872,0.0,0.0,0.0,0.0,0.0,0.0,0.0,0.0,0.0,0.0,0.0,0.0,0.0,0.0,0.0,0.0,0.0,0.0,0.0,0.0,0.0,0.0,0.0,0.0,0.0,0.0,0.0,0.0,0.0,0.0,0.0,0.0,0.0,0.0,0.0,0.0,0.0,0.0,0.0,3.8505,4.0644,0.0,0.0,0.0,0.0,0.0,0.0,0.0,0.0,3.6022,0.0,0.0,0.0,0.0,0.0,0.0,0.0,0.0,0.0,0.0,0.0,0.0,0.0,0.0,0.0,0.0,0.0,0.0,0.0,0.0,0.0,0.0,0.0,0.0,0.0,0.0,0.0,0.0,0.0,0.0,0.0,0.0,0.0,0.0,0.0,0.0,0.0,0.0,0.0,0.0,0.0,0.0,0.0,0.0,0.0,0.0,0.0,0.0,0.0,0.0,0.0,0.0,0.0,0.0,0.0,0.0,3.844,4.3253,4.6808,4.6412,4.5848,4.5209,4.5768,4.2741,3.5829,0.0,0.0,0.0,0.0,0.0,0.0,0.0,0.0,0.0,0.0,0.0,0.0,0.0,0.0,0.0,0.0,0.0,0.0,0.0,0.0,0.0,0.0,0.0,0.0,0.0,0.0,0.0,0.0,0.0,0.0,0.0,0.0,0.0,0.0,0.0,0.0,0.0,0.0,2.8662,3.3282,0.0,0.0,0.0,0.0,0.0,0.0,0.0,0.0,3.9714,0.0,0.0,0.0,0.0,0.0,0.0,0.0,0.0,0.0,0.0,0.0,0.0,0.0,0.0,0.0,0.0,0.0,0.0,0.0,0.0,0.0,0.0,0.0,0.0,0.0,0.0,0.0,0.0,0.0,0.0,0.0,0.0,0.0,0.0,0.0,0.0,0.0,0.0,0.0,0.0,0.0,0.0,0.0,0.0,0.0,0.0,0.0,0.0,0.0,0.0,0.0,0.0,0.0,0.0,0.0,0.0,0.0,0.0,4.2085,4.6294,4.6095,4.5755,4.5505,4.4855,4.1825,0.0,0.0,0.0,0.0,0.0,0.0,0.0,0.0,0.0,0.0,0.0,0.0,0.0,0.0,0.0,0.0,0.0,0.0,0.0,0.0,0.0,0.0,0.0,0.0,0.0,0.0,0.0,0.0,0.0,0.0,0.0,0.0,0.0,0.0,0.0,0.0,0.0,0.0,0.0,0.0,0.0,0.0,0.0,0.0,0.0,0.0,0.0,0.0,0.0,0.0,0.0,0.0,0.0,0.0,0.0,0.0,0.0,0.0,0.0,0.0,0.0,0.0,0.0,0.0,0.0,0.0,0.0,0.0,0.0,0.0,0.0,0.0,0.0,0.0,0.0,0.0,0.0,0.0,0.0,0.0,0.0,0.0,0.0,0.0,0.0,0.0,0.0,0.0,0.0,0.0,0.0,0.0,0.0,0.0,0.0,0.0,0.0,0.0,0.0,0.0,0.0,0.0,0.0,0.0,0.0,0.0,0.0,0.0,4.0075,4.5175,4.5557,4.5691,4.5643,4.3333,4.0233,0.0,0.0,0.0,0.0,0.0,0.0,0.0,0.0,0.0,0.0,0.0,0.0,0.0,0.0,0.0,0.0,0.0,0.0,0.0,0.0,0.0,0.0,0.0,0.0,0.0,0.0,0.0,0.0,0.0,0.0,0.0,0.0,0.0,0.0,0.0,0.0,0.0,0.0,0.0,0.0,0.0,0.0,0.0,0.0,0.0,0.0,0.0,0.0,2.9973,0.0,0.0,0.0,0.0,0.0,0.0,0.0,0.0,0.0,0.0,0.0,0.0,0.0,0.0,0.0,0.0,0.0,0.0,0.0,0.0,0.0,0.0,0.0,0.0,0.0,0.0,0.0,0.0,0.0,0.0,0.0,0.0,0.0,0.0,0.0,0.0,0.0,0.0,0.0,0.0,0.0,0.0,0.0,0.0,0.0,0.0,0.0,0.0,0.0,0.0,0.0,0.0,0.0,0.0,0.0,0.0,0.0,0.0,0.0,3.9296,4.432,4.5692,4.6313,4.6065,4.1695,3.7952,0.0,0.0,0.0,0.0,0.0,0.0,0.0,0.0,0.0,0.0,0.0,0.0,0.0,0.0,0.0,0.0,0.0,0.0,0.0,0.0,0.0,0.0,0.0,0.0,0.0,0.0,0.0,0.0,0.0,0.0,0.0,0.0,0.0,0.0,0.0,0.0,0.0,0.0,0.0,0.0,0.0,0.0,0.0,0.0,0.0,0.0,0.0,0.0,0.0,0.0,0.0,0.0,0.0,0.0,0.0,0.0,0.0,0.0,0.0,0.0,0.0,0.0,0.0,0.0,0.0,0.0,0.0,0.0,0.0,0.0,0.0,0.0,0.0,0.0,0.0,0.0,0.0,0.0,0.0,0.0,0.0,0.0,0.0,0.0,0.0,0.0,0.0,0.0,0.0,0.0,0.0,0.0,0.0,0.0,0.0,0.0,0.0,0.0,0.0,0.0,0.0,0.0,0.0,0.0,0.0,0.0,0.0,0.0,3.6718,4.2646,4.4881,4.4842,4.2522,3.8914,3.5663,0.0,0.0,0.0,0.0,0.0,0.0,0.0,0.0,0.0,0.0,0.0,0.0,0.0,0.0,0.0,0.0,0.0,0.0,0.0,0.0,0.0,0.0,0.0,0.0,0.0,0.0,0.0,0.0,0.0,0.0,0.0,0.0,0.0,0.0,0.0,0.0,0.0,0.0,0.0,0.0,0.0,0.0,0.0,0.0,0.0,0.0,0.0,0.0,0.0,0.0,0.0,0.0,0.0,0.0,0.0,0.0,0.0,0.0,0.0,0.0,0.0,0.0,0.0,0.0,0.0,0.0,0.0,0.0,0.0,0.0,0.0,0.0,0.0,0.0,0.0,0.0,0.0,0.0,0.0,0.0,0.0,0.0,0.0,0.0,0.0,0.0,0.0,0.0,0.0,0.0,0.0,0.0,0.0,0.0,0.0,0.0,0.0,0.0,0.0,0.0,0.0,0.0,0.0,0.0,0.0,0.0,0.0,0.0,0.0,3.8749,4.273,4.3068,3.9431,3.6207,3.2912,0.0,0.0,0.0,0.0,0.0,0.0,0.0,0.0,0.0,0.0,0.0,0.0,0.0,0.0,0.0,0.0,0.0,0.0,0.0,0.0,0.0,0.0,0.0,0.0,0.0,0.0,0.0,0.0,0.0,0.0,0.0,0.0,0.0,0.0,0.0,0.0,0.0,0.0,0.0,0.0,0.0,0.0,0.0,0.0,0.0,0.0,0.0,0.0,0.0,0.0,0.0,0.0,0.0,0.0,0.0,0.0,0.0,0.0,0.0,0.0,0.0,0.0,0.0,0.0,0.0,0.0,0.0,0.0,0.0,0.0,0.0,0.0,0.0,0.0,0.0,0.0,0.0,0.0,0.0,0.0,0.0,0.0,0.0,0.0,0.0,0.0,0.0,0.0,0.0,0.0,0.0,0.0,0.0,0.0,0.0,0.0,0.0,0.0,0.0,0.0,0.0,0.0,0.0,0.0,0.0,0.0,0.0,0.0,0.0,3.1734,3.8784,4.1207,3.8507,3.4055,2.952,0.0,0.0,0.0,0.0,0.0,0.0,0.0,0.0,0.0,0.0,0.0,0.0,0.0,0.0,0.0,0.0,0.0,0.0,0.0,0.0,0.0,0.0,0.0,0.0,0.0,0.0,0.0,0.0,0.0,0.0,0.0,0.0,0.0,0.0,0.0,0.0,0.0,0.0,0.0,0.0,0.0,0.0,0.0,0.0,0.0,0.0,0.0,0.0,0.0,0.0,0.0,0.0,0.0,0.0,0.0,0.0,0.0,0.0,0.0,0.0,0.0,0.0,0.0,0.0,0.0,0.0,0.0,0.0,0.0,0.0,0.0,0.0,0.0,0.0,0.0,0.0,0.0,0.0,0.0,0.0,0.0,0.0,0.0,0.0,0.0,0.0,0.0,0.0,0.0,0.0,0.0,0.0,0.0,0.0,0.0,0.0,0.0,0.0,0.0,0.0,0.0,0.0,0.0,0.0,0.0,0.0,0.0,0.0,0.0,2.5732,3.3006,3.6352,3.4582,2.9795,2.6895,2.6083,0.0,0.0,0.0,0.0,0.0,0.0,0.0,0.0,0.0,0.0,0.0,0.0,0.0,0.0,0.0,0.0,0.0,0.0,0.0,0.0,0.0,0.0,0.0,0.0,0.0,0.0,0.0,0.0,0.0,0.0,0.0,0.0,0.0,0.0,0.0,0.0,0.0,0.0,0.0,0.0,0.0,0.0,0.0,0.0,0.0,0.0,0.0,0.0,0.0,0.0,0.0,0.0,0.0,0.0,0.0,0.0,0.0,0.0,0.0,0.0,0.0,0.0,0.0,0.0,0.0,0.0,0.0,0.0,0.0,0.0,0.0,0.0,0.0,0.0,0.0,0.0,0.0,0.0,0.0,0.0,0.0,0.0,0.0,0.0,0.0,0.0,0.0,0.0,0.0,0.0,0.0,0.0,0.0,0.0,0.0,0.0,0.0,0.0,0.0,0.0,0.0,0.0,0.0,0.0,0.0,0.0,0.0,0.0,2.4315,3.0274,3.2575,3.0749,2.7349,2.4931,0.0,0.0,0.0,0.0,0.0,0.0,0.0,0.0,0.0,0.0,0.0,0.0,0.0,0.0,0.0,0.0,0.0,0.0,0.0,0.0,0.0,0.0,0.0,0.0,0.0,0.0,0.0,0.0,0.0,0.0,0.0,0.0,0.0,0.0,0.0,0.0,0.0,0.0,0.0,0.0,0.0,0.0,0.0,0.0,0.0,0.0,0.0,0.0,0.0,0.0,0.0,0.0,0.0,0.0,0.0,0.0,0.0,0.0,0.0,0.0,0.0,0.0,0.0,0.0,0.0,0.0,0.0,0.0,0.0,0.0,0.0,0.0,0.0,0.0,0.0,0.0,0.0,0.0,0.0,0.0,0.0,0.0,0.0,0.0,0.0,0.0,0.0,0.0,0.0,0.0,0.0,0.0,0.0,0.0,0.0,0.0,0.0,0.0,0.0,0.0,0.0,0.0,0.0,0.0,0.0,0.0,0.0,0.0,2.2093,2.8931,3.1054,3.0757,2.7656,2.7301,2.3509,0.0,0.0,0.0,0.0,0.0,0.0,0.0,0.0,0.0,0.0,0.0,0.0,0.0,0.0,0.0,0.0,0.0,0.0,0.0,0.0,0.0,0.0,0.0,0.0,0.0,0.0,0.0,0.0,0.0,0.0,0.0,0.0,0.0,0.0,0.0,0.0,0.0,0.0,0.0,0.0,0.0,0.0,0.0,0.0,0.0,0.0,0.0,0.0,0.0,0.0,0.0,0.0,0.0,0.0,0.0,0.0,0.0,0.0,0.0,0.0,0.0,0.0,0.0,0.0,0.0,0.0,0.0,0.0,0.0,0.0,0.0,0.0,0.0,0.0,0.0,0.0,0.0,0.0,0.0,0.0,0.0,0.0,0.0,0.0,0.0,0.0,0.0,0.0,0.0,0.0,0.0,0.0,0.0,0.0,0.0,0.0,0.0,0.0,0.0,0.0,0.0,0.0,0.0,0.0,0.0,0.0,0.0,0.0,0.0,2.0979,0.0,2.8929,0.0,2.5863,2.3163,0.0,0.0,0.0,0.0,0.0,0.0,0.0,0.0,0.0,0.0,0.0,0.0,0.0,0.0,0.0,0.0,0.0,0.0,0.0,0.0,0.0,0.0,0.0,0.0,0.0,0.0,0.0,0.0,0.0,0.0,0.0,0.0,0.0,0.0,0.0,0.0,0.0,0.0,0.0,0.0,0.0,0.0,0.0,0.0,0.0,0.0,0.0,0.0,0.0,0.0,0.0,0.0,0.0,0.0,0.0,0.0,0.0,0.0,0.0,0.0,0.0,0.0,0.0,0.0,0.0,0.0,0.0,0.0,0.0,0.0,0.0,0.0,0.0,0.0,0.0,0.0,0.0,0.0,0.0,0.0,0.0,0.0,0.0,0.0,0.0,0.0,0.0,0.0,0.0,0.0,0.0,0.0,0.0,0.0,0.0,0.0,0.0,0.0,0.0,0.0,0.0,0.0,0.0,0.0,0.0,0.0,0.0,0.0,0.0,1.9502,2.2916,2.6823,3.0704,2.4921,2.2923,0.0,0.0,0.0,0.0,0.0,0.0,0.0,0.0,0.0,0.0,0.0,0.0,0.0,0.0,0.0,0.0,0.0,0.0,0.0,0.0,0.0,0.0,0.0,0.0,0.0,0.0,0.0,0.0,0.0,0.0,0.0,0.0,0.0,0.0,0.0,0.0,0.0,0.0,0.0,0.0,0.0,0.0,0.0,0.0,0.0,0.0,0.0,0.0,0.0,0.0,0.0,0.0,0.0,0.0,0.0,0.0,0.0,0.0,0.0,0.0,0.0,0.0,0.0,0.0,0.0,0.0,0.0,0.0,0.0,0.0,0.0,0.0,0.0,0.0,0.0,0.0,0.0,0.0,0.0,0.0,0.0,0.0,0.0,0.0,0.0,0.0,0.0,0.0,0.0,0.0,0.0,0.0,0.0,0.0,0.0,0.0,0.0,0.0,0.0,0.0,0.0,0.0,0.0,0.0,0.0,0.0,0.0,0.0,0.0,2.3401,2.4192,2.4563,2.4731,2.4415,2.2892,0.0,0.0,0.0,0.0,0.0,0.0,0.0,0.0,0.0,0.0,0.0,0.0,0.0,0.0,0.0,0.0,0.0,0.0,0.0,0.0,0.0,0.0,0.0,0.0,0.0,0.0,0.0,0.0,0.0,0.0,0.0,0.0,0.0,0.0,0.0,0.0,0.0,0.0,0.0,0.0,0.0,0.0,0.0,0.0,0.0,0.0,0.0,0.0,0.0,0.0,0.0,0.0,0.0,0.0,0.0,0.0,0.0,0.0,0.0,0.0,0.0,0.0,0.0,0.0,0.0,0.0,0.0,0.0,0.0,0.0,0.0,0.0,0.0,0.0,0.0,0.0,0.0,0.0,0.0,0.0,0.0,0.0,0.0,0.0,0.0,0.0,0.0,0.0,0.0,0.0,0.0,0.0,0.0,0.0,0.0,0.0,0.0,0.0,0.0,0.0,0.0,0.0,0.0,0.0,0.0,0.0,0.0,0.0,0.0,0.0,2.236,2.3879,2.286,2.1726,2.1254,2.144,0.0,0.0,0.0,0.0,0.0,0.0,0.0,0.0,0.0,0.0,0.0,0.0,0.0,0.0,0.0,0.0,0.0,0.0,0.0,0.0,0.0,0.0,0.0,0.0,0.0,0.0,0.0,0.0,0.0,0.0,0.0,0.0,0.0,0.0,0.0,0.0,0.0,0.0,0.0,0.0,0.0,0.0,0.0,0.0,0.0,0.0,0.0,0.0,0.0,0.0,0.0,0.0,0.0,0.0,0.0,0.0,0.0,0.0,0.0,0.0,0.0,0.0,0.0,0.0,0.0,0.0,0.0,0.0,0.0,0.0,0.0,0.0,0.0,0.0,0.0,0.0,0.0,0.0,0.0,0.0,0.0,0.0,0.0,0.0,0.0,0.0,0.0,0.0,0.0,0.0,0.0,0.0,0.0,0.0,0.0,0.0,0.0,0.0,0.0,0.0,0.0,0.0,0.0,0.0,0.0,0.0,0.0,0.0,0.0,0.0,2.0908,2.0115,1.9262,1.9475,0.0,0.0,0.0,0.0,0.0,0.0,0.0,0.0,0.0,0.0,0.0,0.0,0.0,0.0,0.0,0.0,0.0,0.0,0.0,0.0,0.0,0.0,0.0,0.0,0.0,0.0,0.0,0.0,0.0,0.0,0.0,0.0,0.0,0.0,0.0,0.0,0.0,0.0,0.0,0.0,0.0,0.0,0.0,0.0,0.0,0.0,0.0,0.0,0.0,0.0,0.0,0.0,0.0,0.0,0.0,0.0,0.0,0.0,0.0,0.0,0.0,0.0,0.0,0.0,0.0,0.0,0.0,0.0,0.0,0.0,0.0,0.0,0.0,0.0,0.0,0.0,0.0,0.0,0.0,0.0,0.0,0.0,0.0,0.0,0.0,0.0,0.0,0.0,0.0,0.0,0.0,0.0,0.0,0.0,0.0,0.0,0.0,0.0,0.0,0.0,0.0,0.0,0.0,0.0,0.0,0.0,0.0,0.0,0.0,0.0,0.0,1.7193,1.692,1.7462,0.0,1.9282,0.0,0.0,0.0,0.0,0.0,0.0,0.0,0.0,0.0,0.0,0.0,0.0,0.0,0.0,0.0,0.0,0.0,0.0,0.0,0.0,0.0,0.0,0.0,0.0,0.0,0.0,0.0,0.0,0.0,0.0,0.0,0.0,0.0,0.0,0.0,0.0,0.0,0.0,0.0,0.0,0.0,0.0,0.0,0.0,0.0,0.0,0.0,0.0,0.0,0.0,0.0,0.0,0.0,0.0,0.0,0.0,0.0,0.0,0.0,0.0,0.0,0.0,0.0,0.0,0.0,0.0,0.0,0.0,0.0,0.0,0.0,0.0,0.0,0.0,0.0,0.0,0.0,0.0,0.0,0.0,0.0,0.0,0.0,0.0,0.0,0.0,0.0,0.0,0.0,0.0,0.0,0.0,0.0,0.0,0.0,0.0,0.0,0.0,0.0,0.0,0.0,0.0,0.0,0.0,0.0,0.0,0.0,0.0,0.0,0.0,0.0,0.0,1.8994,2.0003,1.7862,0.0,0.0,0.0,0.0,0.0,0.0,0.0,0.0,0.0,0.0,0.0,0.0,0.0,0.0,0.0,0.0,0.0,0.0,0.0,0.0,0.0,0.0,0.0,0.0,0.0,0.0,0.0,0.0,0.0,0.0,0.0,0.0,0.0,0.0,0.0,0.0,0.0,0.0,0.0,0.0,0.0,0.0,0.0,0.0,0.0,0.0,0.0,0.0,0.0,0.0,0.0,0.0,0.0,0.0,0.0,0.0,0.0,0.0,0.0,0.0,0.0,0.0,0.0,0.0,0.0,0.0,0.0,0.0,0.0,0.0,0.0,0.0,0.0,0.0,0.0,0.0,0.0,0.0,0.0,0.0,0.0,0.0,0.0,0.0,0.0,0.0,0.0,0.0,0.0,0.0,0.0,0.0,0.0,0.0,0.0,0.0,0.0,0.0,0.0,0.0,0.0,0.0,0.0,0.0,0.0,0.0,0.0,0.0,0.0,0.0,1.9086,1.5901,1.8403,1.9007,1.7239,0.0,0.0,0.0,0.0,0.0,0.0,0.0,0.0,0.0,0.0,0.0,0.0,0.0,0.0,0.0,0.0,0.0,0.0,0.0,0.0,0.0,0.0,0.0,0.0,0.0,0.0,0.0,0.0,0.0,0.0,0.0,0.0,0.0,0.0,0.0,0.0,0.0,0.0,0.0,0.0,0.0,0.0,0.0,0.0,0.0,0.0,0.0,0.0,0.0,0.0,0.0,0.0,0.0,0.0,0.0,0.0,0.0,0.0,0.0,0.0,0.0,0.0,0.0,0.0,0.0,0.0,0.0,0.0,0.0,0.0,0.0,0.0,0.0,0.0,0.0,0.0,0.0,0.0,0.0,0.0,0.0,0.0,0.0,0.0,0.0,0.0,0.0,0.0,0.0,0.0,0.0,0.0,0.0,0.0,0.0,0.0,0.0,0.0,0.0,0.0,0.0,0.0,0.0,0.0,0.0,0.0,0.0,0.0,0.0,0.0,0.0,0.0,0.0,0.0,1.782,0.0,0.0,0.0,0.0,0.0,0.0,0.0,0.0,0.0,0.0,0.0,0.0,0.0,0.0,0.0,0.0,0.0,0.0,0.0,0.0,0.0,0.0,0.0,0.0,0.0,0.0,0.0,0.0,0.0,0.0,0.0,0.0,0.0,0.0,0.0,0.0,0.0,0.0,0.0,0.0,0.0,0.0,0.0,0.0,0.0,0.0,0.0,0.0,0.0,0.0,0.0,0.0,0.0,0.0,0.0,0.0,0.0,0.0,0.0,0.0,0.0,0.0,0.0,0.0,0.0,0.0,0.0,0.0,0.0,0.0,0.0,0.0,0.0,0.0,0.0,0.0,0.0,0.0,0.0,0.0,0.0,0.0,0.0,0.0,0.0,0.0,0.0,0.0,0.0,0.0,0.0,0.0,0.0,0.0,0.0,0.0,0.0,0.0,0.0,0.0,0.0,0.0,0.0,0.0,0.0,0.0,0.0,0.0,0.0,0.0,0.0,0.0,0.0,0.0,0.0,0.0,0.0,0.0,0.0,0.0,0.0,0.0,0.0,0.0,0.0,0.0,0.0,0.0,0.0,0.0,0.0,0.0,0.0,0.0,0.0,0.0,0.0,0.0,0.0,0.0,0.0,0.0,0.0,0.0,0.0,0.0,0.0,0.0,0.0,0.0,0.0,0.0,0.0,0.0,0.0,0.0,0.0,0.0,0.0,0.0,0.0,0.0,0.0,0.0,0.0,0.0,0.0,0.0,0.0,0.0,0.0,0.0,0.0,0.0,0.0,0.0,0.0,0.0,0.0,0.0,0.0,0.0,0.0,0.0,0.0,0.0,0.0,0.0,0.0,0.0,0.0,0.0,0.0,0.0,0.0,0.0,0.0,0.0,0.0,0.0,0.0,0.0,0.0,0.0,0.0,0.0,0.0,0.0,0.0,0.0,0.0,0.0,0.0,0.0,0.0,0.0,0.0,0.0,0.0,0.0,0.0,0.0,0.0,0.0,0.0,0.0,0.0,0.0,0.0,0.0,0.0,0.0,0.0,0.0,0.0,0.0,0.0,0.0,0.0,0.0,0.0,0.0,0.0,0.0,0.0,0.0,0.0,0.0,0.0,0.0,0.0,0.0,0.0,0.0,0.0,0.0,0.0,0.0,0.0,0.0,0.0,0.0,0.0,0.0,0.0,0.0,0.0,0.0,0.0,0.0,0.0,0.0,0.0,0.0,0.0,0.0,0.0,0.0,0.0,0.0,0.0,0.0,0.0,0.0,0.0,0.0,0.0,0.0,0.0,0.0,0.0,0.0,0.0,0.0,0.0,0.0,0.0,0.0,0.0,0.0,0.0,0.0,0.0,0.0,0.0,0.0,0.0,0.0,0.0,0.0,0.0,0.0,0.0,0.0,0.0,0.0,0.0,0.0,0.0,0.0,0.0,0.0,0.0,0.0,0.0,0.0,0.0,0.0,0.0,0.0,0.0,0.0,0.0,0.0,0.0,0.0,0.0,0.0,0.0,0.0,0.0,0.0,0.0,0.0,0.0,0.0,0.0,0.0,0.0,0.0,0.0,0.0,0.0,0.0,0.0,0.0,0.0,0.0,0.0,0.0,0.0,0.0,0.0,0.0,0.0,0.0,0.0,0.0,0.0,0.0,0.0,0.0,0.0,0.0,0.0,0.0,0.0,0.0,0.0,0.0,0.0,0.0,0.0,0.0,0.0,0.0,0.0,0.0,0.0,0.0,0.0,0.0,0.0,0.0,0.0,0.0,0.0,0.0,0.0,0.0,0.0,0.0,0.0,0.0,0.0,0.0,0.0,0.0,0.0,0.0,0.0,0.0,0.0,0.0,0.0,0.0,0.0,0.0,0.0,0.0,0.0,0.0,0.0,0.0,0.0,0.0,0.0,0.0,0.0,0.0,0.0,0.0,0.0,0.0,0.0,0.0,0.0,0.0,0.0,0.0,0.0,0.0,0.0,0.0,0.0,0.0,0.0,0.0,0.0,0.0,0.0,0.0,0.0,0.0,0.0,0.0,0.0,0.0,0.0,0.0,0.0,0.0,0.0,0.0,0.0,0.0,0.0,0.0,0.0,0.0,0.0,0.0,0.0,0.0,0.0,0.0,0.0,0.0,0.0,0.0,0.0,0.0,0.0,0.0,0.0,0.0,0.0,0.0,0.0,0.0,0.0,0.0,0.0,0.0,0.0,0.0,0.0,0.0,0.0,0.0,0.0,0.0,0.0,0.0,0.0,0.0,0.0,0.0,0.0,0.0,0.0,0.0,0.0,0.0,0.0,0.0,0.0,0.0,0.0,0.0,0.0,0.0,0.0,0.0,0.0,0.0,0.0,0.0,0.0,0.0,0.0,0.0,0.0,0.0,0.0,0.0,0.0,0.0,0.0,0.0,0.0,0.0,0.0,0.0,0.0,0.0,0.0,0.0,0.0,0.0,0.0,0.0,0.0,0.0,0.0,0.0,0.0,0.0,0.0,0.0,0.0,0.0,0.0,0.0,0.0,0.0,0.0,0.0,0.0,0.0,0.0,0.0,0.0,0.0,0.0,0.0,0.0,0.0,0.0,0.0,0.0,0.0,0.0,0.0,0.0,0.0,0.0,0.0,0.0,0.0,0.0,0.0,0.0,0.0,0.0,0.0,0.0,0.0,0.0,0.0,0.0,0.0,0.0,0.0,0.0,0.0,0.0,0.0,0.0,0.0,0.0,0.0,0.0,0.0,0.0,0.0,0.0,0.0,0.0,0.0,0.0,0.0,0.0,0.0,0.0,0.0,0.0,0.0,0.0,0.0,0.0,0.0,0.0,0.0,0.0,0.0,0.0,0.0,0.0,0.0,0.0,0.0,0.0,0.0,0.0,0.0,0.0,0.0,0.0,0.0,0.0,0.0,0.0,0.0,0.0,0.0,0.0,0.0,0.0,0.0,0.0,0.0,0.0,0.0,0.0,0.0,0.0,0.0,0.0,0.0,0.0,0.0,0.0,0.0,0.0,0.0,0.0,0.0,0.0,0.0,0.0,0.0,0.0,0.0,0.0,0.0,0.0,0.0,0.0,0.0,0.0,0.0,0.0,0.0,0.0,0.0,0.0,0.0,0.0,0.0,0.0,0.0,0.0,0.0,0.0,0.0,0.0,0.0,0.0,0.0,0.0,0.0,0.0,0.0,0.0,0.0,0.0,0.0,0.0,0.0,0.0,0.0,0.0,0.0,0.0,0.0,0.0,0.0,0.0,0.0,0.0,0.0,0.0,0.0,0.0,0.0,0.0,0.0,0.0,0.0,0.0,0.0,0.0,0.0,0.0,0.0,0.0,0.0,0.0,0.0,0.0,0.0,0.0,0.0,0.0,0.0,0.0,0.0,0.0,0.0,0.0,0.0,0.0,0.0,0.0,0.0,0.0,0.0,0.0,0.0,0.0,0.0,0.0,0.0,0.0,0.0,0.0,0.0,0.0,0.0,0.0,0.0,0.0,0.0,0.0,0.0,0.0,0.0,0.0,0.0,0.0,0.0,0.0,0.0,0.0,0.0,0.0,0.0,0.0,0.0,0.0,0.0,0.0,0.0,0.0,0.0,0.0,0.0,0.0,0.0,0.0,0.0,0.0,0.0,0.0,0.0,0.0,0.0,0.0,0.0,0.0,0.0,0.0,0.0,0.0,0.0,0.0,0.0,0.0,0.0,0.0,0.0,0.0,0.0,0.0,0.0,0.0,0.0,0.0,0.0,0.0,0.0,0.0,0.0,0.0,0.0,0.0,0.0,0.0,0.0,0.0,0.0,0.0,0.0,0.0,0.0,0.0,0.0,0.0,0.0,0.0,0.0,0.0,0.0,0.0,0.0,0.0,0.0,0.0,0.0,0.0,0.0,0.0,0.0,0.0,0.0,0.0,0.0,0.0,0.0,0.0,0.0,0.0,0.0,0.0,0.0,0.0,0.0,0.0,0.0,0.0,0.0,0.0,0.0,0.0,0.0,0.0,0.0,0.0,0.0,0.0,0.0,0.0,0.0,0.0,0.0,0.0,0.0,0.0,0.0,0.0,0.0,0.0,0.0,0.0,0.0,0.0,0.0,0.0,0.0,0.0,0.0,0.0,0.0,0.0,0.0,0.0,0.0,0.0,0.0,0.0,0.0,0.0,0.0,0.0,0.0,0.0,0.0,0.0,0.0,0.0,0.0,0.0,0.0,0.0,0.0,0.0,0.0,0.0,0.0,0.0,0.0,0.0,0.0,0.0,0.0,0.0,0.0,0.0,0.0,0.0,0.0,0.0,0.0,0.0,0.0,0.0,0.0,0.0,0.0,0.0,0.0,0.0,0.0,0.0,0.0,0.0,0.0,0.0,0.0,0.0,0.0,0.0,0.0,0.0,0.0,0.0,0.0]}],[{"header":{"parameterUnit":"kt","parameterCategory":2,"dx":1,"dy":1,"la1":29.587661999999998,"la2":31.0,"lo1":-88.76705300000003,"lo2":-86.6583820000003,"nx":115,"ny":88,"refTime":"2022-10-06T00:00:00:Z","depth":0,"parameterNumber":2,"parameterNumberName":"V-component_of_WINDS"},"data":[-3.8383,-3.4672,-3.4268,-3.427,-3.4596,-3.4484,-3.3849,-3.3361,-3.3674,-3.3076,-3.2356,-3.327,-3.4601,-3.6482,-3.5385,-3.4923,-3.4786,-3.4267,-3.4457,-3.4189,-3.3853,-3.326,-3.2814,-3.2579,-3.1477,-3.0228,-2.8846,-2.7715,-2.731,-2.6216,-2.5429,-2.5216,-2.4675,-2.4132,-2.331,-2.307,-2.297,-2.2878,-2.3025,-2.3337,-2.4232,-2.4613,-2.4994,-2.5075,-2.4777,-2.4777,-2.4647,-2.4803,-2.4803,-2.496,-2.5231,-2.5374,-2.5218,-2.4919,-2.4335,-2.4049,-2.3918,-2.3918,-2.3918,-2.3762,-2.3331,-2.29,-2.2611,-2.2322,-2.1744,-2.1587,-2.0715,-2.0435,-1.9119,-1.75,-1.75,-1.7205,-1.8237,-2.03,-2.1912,-2.3056,-2.3788,-2.3488,-2.3475,-2.3188,-2.29,-2.2467,-2.1888,-2.1454,-2.1163,-2.0008,-1.9276,-1.914,-1.8993,-1.8247,-1.751,-1.7952,-1.8542,-1.7805,-1.7214,-1.7066,-1.7076,-1.7066,-1.6918,-1.6918,-1.6918,-1.6918,-1.6927,-1.7076,-1.7076,-1.7076,-1.7066,-1.7066,-1.7027,-1.7272,-1.7453,-1.7362,-1.751,-1.7805,-1.8689,-4.0892,-3.7327,-3.5958,-3.5962,-3.6548,-3.6332,-3.5953,-3.5641,-3.5718,-3.5756,-3.5998,-3.6771,-3.782,-3.8303,-3.8178,-3.7863,-3.7304,-3.633,-3.5829,-3.5606,-3.5098,-3.4569,-3.4056,-3.3673,-3.2732,-3.1494,-2.9847,-2.8738,-2.7901,-2.6897,-2.6159,-2.5344,-2.5074,-2.4846,-2.4288,-2.3973,-2.3841,-2.3731,-2.3713,-2.4164,-2.4534,-2.4762,-2.5277,-2.536,-2.5204,-2.5218,-2.5218,-2.5374,-2.5516,-2.5516,-2.5658,-2.5502,-2.5346,-2.4919,-2.4335,-2.4049,-2.3918,-2.3918,-2.3918,-2.3762,-2.3331,-2.2912,-2.2755,-2.2322,-2.1744,-2.0861,-1.9694,-1.8679,-1.7066,-1.6334,-1.6909,-1.75,-1.8962,-2.0727,-2.2033,-2.3475,-2.3475,-2.3488,-2.3631,-2.3775,-2.3331,-2.29,-2.2322,-2.1587,-2.0581,-1.9276,-1.8552,-1.8414,-1.8267,-1.7667,-1.7362,-1.7657,-1.7952,-1.7657,-1.7066,-1.6918,-1.7076,-1.6918,-1.6927,-1.6918,-1.6918,-1.7066,-1.7214,-1.7224,-1.7381,-1.7529,-1.7519,-1.7371,-1.7519,-1.7757,-1.7677,-1.7224,-1.7362,-1.7815,-1.8404,-4.3738,-4.1187,-3.933,-3.8644,-3.8435,-3.8088,-3.6783,-3.5586,-3.6079,-3.7182,-3.8339,-3.8708,-3.9497,-4.0337,-3.985,-3.942,-3.8916,-3.7811,-3.7297,-3.6929,-3.656,-3.5776,-3.5136,-3.4607,-3.3807,-3.2597,-3.1101,-2.9863,-2.8862,-2.798,-2.7266,-2.6567,-2.645,-2.5898,-2.4825,-2.4578,-2.4443,-2.462,-2.4245,-2.5031,-2.6149,-2.59,-2.5772,-2.5658,-2.5502,-2.536,-2.5516,-2.5714,-2.5686,-2.58,-2.5814,-2.5658,-2.5346,-2.5062,-2.4491,-2.4062,-2.3918,-2.3918,-2.3775,-2.3619,-2.3331,-2.29,-2.2611,-2.1888,-2.1163,-2.0278,-1.9109,-1.7952,-1.6483,-1.6334,-1.7066,-1.7795,-1.9255,-2.0727,-2.2178,-2.29,-2.3044,-2.3188,-2.3188,-2.3331,-2.3044,-2.2611,-2.1587,-2.0861,-1.9559,-1.8257,-1.8257,-1.8267,-1.7972,-1.7519,-1.7214,-1.7214,-1.7214,-1.7066,-1.7066,-1.7066,-1.7076,-1.7076,-1.7076,-1.7224,-1.751,-1.7362,-1.7362,-1.7657,-1.7962,-1.7962,-1.7972,-1.7824,-1.7972,-1.7972,-1.7667,-1.7224,-1.7519,-1.7972,-1.8552,-4.6637,-4.4731,-4.2978,-4.166,-4.0647,-3.9774,-3.8093,-3.6004,-3.6665,-3.8053,-3.9578,-3.9727,-4.01,-4.1063,-4.086,-4.0346,-3.9894,-3.8872,-3.8557,-3.8088,-3.7595,-3.669,-3.5926,-3.5269,-3.4322,-3.3253,-3.2309,-3.1204,-2.9953,-2.9124,-2.8413,-2.784,-2.7236,-2.7073,-2.6202,-2.5429,-2.5595,-2.6202,-2.5891,-2.6384,-2.6926,-2.6607,-2.6084,-2.58,-2.536,-2.5218,-2.553,-2.5714,-2.5544,-2.5672,-2.5842,-2.5814,-2.563,-2.536,-2.4777,-2.4062,-2.4062,-2.4062,-2.3918,-2.3762,-2.3331,-2.29,-2.2322,-2.1454,-2.0435,-1.9548,-1.8679,-1.7657,-1.7076,-1.7214,-1.751,-1.8237,-1.9119,-2.0581,-2.2045,-2.2322,-2.2611,-2.2599,-2.2599,-2.2599,-2.2467,-2.1732,-2.0715,-1.9694,-1.8394,-1.7962,-1.812,-1.7972,-1.7824,-1.7815,-1.7519,-1.7371,-1.7224,-1.7214,-1.7214,-1.7371,-1.7519,-1.7529,-1.7667,-1.7962,-1.8247,-1.7952,-1.7815,-1.811,-1.8394,-1.8552,-1.8562,-1.8414,-1.811,-1.811,-1.7805,-1.7519,-1.7824,-1.812,-1.8562,-4.9341,-4.6914,-4.6509,-4.5089,-4.3215,-4.1785,-4.059,-3.9363,-3.8639,-3.913,-4.057,-3.9923,-4.0099,-4.1017,-4.1177,-4.0746,-4.0448,-3.985,-3.9358,-3.8958,-3.8216,-3.7208,-3.6449,-3.5776,-3.474,-3.3867,-3.2948,-3.2069,-3.0743,-2.9936,-2.9385,-2.883,-2.815,-2.767,-2.7659,-2.6904,-2.7043,-2.7643,-2.7565,-2.7331,-2.717,-2.6494,-2.58,-2.5942,-2.5502,-2.4973,-2.5272,-2.5231,-2.4933,-2.536,-2.5516,-2.5658,-2.58,-2.58,-2.4919,-2.4491,-2.4348,-2.4205,-2.4062,-2.3905,-2.3331,-2.3044,-2.2755,-2.1888,-2.085,-1.9808,-1.807,-1.6909,-1.6622,-1.6761,-1.7795,-1.8532,-1.9559,-2.1018,-2.1888,-2.2178,-2.2322,-2.2467,-2.231,-2.2009,-2.19,-2.1447,-2.0546,-1.9705,-1.8552,-1.8267,-1.8267,-1.8129,-1.8129,-1.812,-1.812,-1.7972,-1.7824,-1.7667,-1.7667,-1.7667,-1.7824,-1.8267,-1.8552,-1.8846,-1.8542,-1.8404,-1.812,-1.8404,-1.8836,-1.8993,-1.8993,-1.8709,-1.8404,-1.8257,-1.811,-1.7824,-1.7972,-1.8414,-1.8709,-5.0105,-4.8415,-4.8968,-4.8139,-4.5993,-4.3759,-4.3396,-4.3886,-4.2577,-4.1436,-4.1283,-4.0103,-4.0216,-4.114,-4.1108,-4.1047,-4.1018,-4.0491,-3.9736,-3.9085,-3.8344,-3.7466,-3.671,-3.6018,-3.5001,-3.3894,-3.3103,-3.2635,-3.1365,-3.0696,-3.0486,-2.9953,-2.9416,-2.9001,-2.8738,-2.863,-2.8801,-2.8769,-2.863,-2.8211,-2.765,-2.6932,-2.6226,-2.5942,-2.5942,-2.5909,-2.6145,-2.5954,-2.5793,-2.6131,-2.5912,-2.5984,-2.6084,-2.6084,-2.5502,-2.4933,-2.4647,-2.4348,-2.4205,-2.4062,-2.3475,-2.3044,-2.2755,-2.2069,-2.0906,-1.9475,-1.7696,-1.6483,-1.6325,-1.6465,-1.7786,-1.8962,-2.0143,-2.1332,-2.1767,-2.2057,-2.2226,-2.2226,-2.2081,-2.1779,-2.1424,-2.1133,-2.0362,-1.9644,-1.915,-1.8897,-1.877,-1.8632,-1.8632,-1.8662,-1.8544,-1.8434,-1.8267,-1.8267,-1.812,-1.7972,-1.8267,-1.8562,-1.8993,-1.8993,-1.8983,-1.8699,-1.8699,-1.8846,-1.8983,-1.9129,-1.914,-1.8846,-1.8709,-1.8699,-1.8699,-1.8562,-1.8562,-1.876,-1.8948,-5.1454,-5.0353,-5.1185,-5.0546,-4.8597,-4.6855,-4.6494,-4.7152,-4.5185,-4.3495,-4.1981,-4.0901,-4.0644,-4.1171,-4.0932,-4.1161,-4.1047,-4.0648,-3.9981,-3.9337,-3.8831,-3.8109,-3.7337,-3.665,-3.5315,-3.4399,-3.3649,-3.3152,-3.1881,-3.1789,-3.1596,-3.0794,-2.9847,-2.9571,-2.9619,-2.9993,-2.9774,-2.9448,-2.8398,-2.815,-2.7761,-2.7073,-2.671,-2.6268,-2.6111,-2.6187,-2.6368,-2.6131,-2.6048,-2.627,-2.6108,-2.6141,-2.6084,-2.6084,-2.6098,-2.5374,-2.5075,-2.4647,-2.4504,-2.4218,-2.3631,-2.2887,-2.3151,-2.2098,-2.0218,-1.8604,-1.7203,-1.6662,-1.6458,-1.7103,-1.8237,-1.9013,-1.9791,-2.1088,-2.1974,-2.2251,-2.25,-2.2649,-2.2638,-2.2303,-2.2287,-2.1795,-1.9939,-1.9214,-1.9548,-1.9475,-1.9296,-1.9168,-1.9199,-1.9142,-1.8993,-1.876,-1.8552,-1.8699,-1.8552,-1.8484,-1.8602,-1.8729,-1.8993,-1.914,-1.9013,-1.8877,-1.9003,-1.8846,-1.8699,-1.8846,-1.9171,-1.914,-1.8993,-1.914,-1.9044,-1.9024,-1.9181,-1.9209,-1.9292,-5.4193,-5.3484,-5.3276,-5.2063,-5.0771,-5.1224,-5.0377,-4.8373,-4.5678,-4.4224,-4.36,-4.2361,-4.1374,-4.0605,-4.0916,-4.0907,-4.0423,-4.0852,-4.0469,-3.9965,-3.9463,-3.8619,-3.7981,-3.7317,-3.6172,-3.5359,-3.4645,-3.3757,-3.2303,-3.2374,-3.2003,-3.1221,-3.0261,-2.9847,-2.9969,-3.0139,-2.9985,-2.9246,-2.8506,-2.8089,-2.8025,-2.7229,-2.7082,-2.7026,-2.6593,-2.664,-2.6962,-2.6618,-2.641,-2.6354,-2.6,-2.601,-2.5842,-2.58,-2.5942,-2.5956,-2.58,-2.5327,-2.4978,-2.477,-2.4152,-2.3603,-2.3895,-2.3066,-2.1601,-2.0313,-1.8675,-1.7822,-1.6802,-1.7744,-1.88,-1.9496,-2.0047,-2.1095,-2.2199,-2.2561,-2.2866,-2.2948,-2.2936,-2.2913,-2.2901,-2.2102,-2.0393,-1.9694,-2.0024,-1.9841,-1.9862,-1.9701,-1.9763,-1.9673,-1.958,-1.9343,-1.922,-1.9127,-1.9233,-1.9178,-1.9199,-1.9323,-1.9379,-1.9482,-1.8958,-1.88,-1.8942,-1.8844,-1.8386,-1.8524,-1.9271,-1.9538,-1.937,-1.9223,-1.9147,-1.9199,-1.9467,-1.957,-1.9804,-5.4088,-5.3894,-5.363,-5.2946,-5.2263,-5.2876,-5.2278,-5.0443,-4.7805,-4.6023,-4.4684,-4.2803,-4.1621,-4.1038,-4.046,-3.984,-4.1091,-4.078,-4.0181,-4.0464,-4.0112,-3.9358,-3.8619,-3.796,-3.6837,-3.5303,-3.466,-3.4137,-3.2603,-3.2618,-3.2274,-3.1749,-3.1067,-3.0536,-3.0586,-3.0927,-3.0944,-2.9326,-2.8615,-2.8165,-2.8117,-2.7896,-2.7853,-2.7851,-2.7575,-2.7435,-2.8255,-2.816,-2.7654,-2.8255,-2.789,-2.7187,-2.7036,-2.6805,-2.6834,-2.6709,-2.6466,-2.6276,-2.6162,-2.6042,-2.5335,-2.4572,-2.4776,-2.3947,-2.2425,-2.2455,-2.1057,-1.9043,-1.7645,-1.8225,-1.969,-2.1423,-2.1961,-2.1995,-2.2901,-2.2924,-2.3136,-2.3182,-2.3194,-2.3405,-2.337,-2.2483,-2.1533,-2.121,-2.0642,-2.0488,-2.0333,-2.0364,-2.0261,-2.0282,-2.023,-2.0054,-1.9929,-1.9752,-1.9799,-1.9617,-1.9669,-1.9893,-1.9939,-2.0013,-1.9297,-1.8037,-1.8611,-1.8941,-1.8995,-1.9173,-1.9638,-1.9747,-1.9327,-1.9264,-1.9271,-1.957,-1.9869,-2.0013,-2.0292,-5.4214,-5.402,-5.3796,-5.3531,-5.3206,-5.3502,-5.3078,-5.1902,-5.0107,-4.8027,-4.61,-4.4222,-4.3053,-4.2229,-4.1367,-4.1262,-4.1903,-4.1091,-4.0905,-4.1105,-4.0734,-3.9861,-3.9211,-3.8641,-3.7544,-3.5876,-3.4978,-3.4419,-3.2909,-3.2813,-3.2544,-3.2156,-3.1357,-3.1221,-3.1442,-3.1732,-3.2145,-3.0343,-2.8956,-2.8593,-2.8965,-2.8731,-2.8703,-2.9299,-2.8395,-2.8626,-2.9755,-2.8679,-2.8483,-2.8912,-2.8469,-2.7861,-2.7619,-2.7577,-2.7605,-2.742,-2.725,-2.7187,-2.7367,-2.7475,-2.6791,-2.623,-2.5885,-2.4945,-2.354,-2.4391,-2.2505,-2.0028,-1.7962,-1.7984,-2.0002,-2.1723,-2.2998,-2.3202,-2.3429,-2.3441,-2.3558,-2.3581,-2.3605,-2.3828,-2.4039,-2.3449,-2.285,-2.2378,-2.1673,-2.1343,-2.1181,-2.1212,-2.0929,-2.0898,-2.0856,-2.071,-2.0532,-2.0364,-2.0095,-1.9622,-1.9498,-1.9383,-1.9583,-1.9694,-1.8645,-1.7474,-1.7659,-1.8527,-1.9193,-1.9701,-1.9654,-1.9458,-1.9327,-1.9441,-1.9701,-1.9991,-2.0147,-2.0374,-2.057,-5.4473,-5.4117,-5.405,-5.3923,-5.3669,-5.3699,-5.3305,-5.2578,-5.1829,-5.0115,-4.7526,-4.6309,-4.5074,-4.4004,-4.3181,-4.2804,-4.2847,-4.2684,-4.2434,-4.1942,-4.162,-4.0982,-4.0193,-3.9294,-3.8177,-3.68,-3.5946,-3.5136,-3.3642,-3.3503,-3.2697,-3.2173,-3.2173,-3.2173,-3.2803,-3.2993,-3.2783,-3.2005,-2.9825,-3.0073,-3.0344,-2.9887,-3.0056,-3.0081,-2.9464,-2.9354,-3.0043,-2.9523,-2.9125,-2.9313,-2.8729,-2.8541,-2.816,-2.8146,-2.816,-2.8117,-2.806,-2.8131,-2.8288,-2.8346,-2.8045,-2.7424,-2.6322,-2.5922,-2.5414,-2.4779,-2.3491,-2.1728,-1.9245,-1.8698,-1.9553,-2.1366,-2.2743,-2.3461,-2.3738,-2.3992,-2.4227,-2.4344,-2.4262,-2.4344,-2.4555,-2.4483,-2.3934,-2.3305,-2.2616,-2.2231,-2.2143,-2.185,-2.1474,-2.1338,-2.1275,-2.1107,-2.0898,-2.0804,-2.0677,-1.9971,-1.9288,-1.899,-1.8814,-1.8418,-1.7726,-1.7064,-1.7213,-1.784,-1.8587,-1.922,-1.9328,-1.9178,-1.9279,-1.9248,-1.9805,-2.0271,-2.0308,-2.0574,-2.0738,-5.5014,-5.434,-5.4117,-5.4185,-5.4503,-5.4503,-5.3826,-5.2764,-5.236,-5.1158,-4.9099,-4.7394,-4.6178,-4.5203,-4.4191,-4.3539,-4.3576,-4.3003,-4.2825,-4.2748,-4.2376,-4.1497,-4.0858,-3.9943,-3.9147,-3.7832,-3.6989,-3.6208,-3.5098,-3.4853,-3.4189,-3.3503,-3.3369,-3.3922,-3.4546,-3.5042,-3.4516,-3.3483,-3.2143,-3.2412,-3.1837,-3.1233,-3.1212,-3.1377,-3.0351,-3.0277,-3.0391,-3.0061,-2.9584,-2.9468,-2.9426,-2.9113,-2.8828,-2.8658,-2.8686,-2.8672,-2.8729,-2.8999,-2.9182,-2.9003,-2.845,-2.8014,-2.7018,-2.6373,-2.6031,-2.5334,-2.4637,-2.3316,-2.278,-2.2398,-2.3029,-2.3196,-2.3889,-2.3878,-2.432,-2.4356,-2.4602,-2.4696,-2.4696,-2.4696,-2.4696,-2.4672,-2.4202,-2.3684,-2.3177,-2.2745,-2.2563,-2.2111,-2.189,-2.1672,-2.162,-2.1463,-2.1275,-2.1175,-2.1248,-2.0169,-1.9268,-1.8817,-1.7969,-1.767,-1.7378,-1.7043,-1.6977,-1.796,-1.8617,-1.884,-1.8924,-1.8783,-1.8854,-1.9154,-1.9479,-1.995,-2.0077,-2.0502,-2.0831,-5.5851,-5.5231,-5.5231,-5.5202,-5.5202,-5.4949,-5.4311,-5.3363,-5.2692,-5.1719,-5.054,-4.8698,-4.7498,-4.6746,-4.5368,-4.4974,-4.4721,-4.3747,-4.3601,-4.3559,-4.3222,-4.2376,-4.1697,-4.1016,-4.0376,-3.9085,-3.7919,-3.7148,-3.641,-3.5644,-3.523,-3.5098,-3.5098,-3.5609,-3.5995,-3.6301,-3.6175,-3.5328,-3.4984,-3.4238,-3.3518,-3.2665,-3.2291,-3.2401,-3.1297,-3.0963,-3.1152,-3.0451,-3.0142,-2.9966,-2.9952,-2.9667,-2.9369,-2.9383,-2.9355,-2.9298,-2.9196,-2.9394,-2.9544,-2.8938,-2.8477,-2.8151,-2.7359,-2.655,-2.6196,-2.6068,-2.5572,-2.4873,-2.4295,-2.3883,-2.4649,-2.4672,-2.4696,-2.4696,-2.4661,-2.4637,-2.4696,-2.4696,-2.4696,-2.4708,-2.4696,-2.4387,-2.4221,-2.3877,-2.3377,-2.3054,-2.273,-2.2385,-2.2175,-2.1788,-2.1746,-2.1622,-2.1539,-2.157,-2.1601,-2.0595,-1.9401,-1.8329,-1.7418,-1.7248,-1.7046,-1.6802,-1.7127,-1.839,-1.9216,-1.9814,-1.9725,-1.863,-1.8434,-1.9179,-1.9457,-1.9681,-2.001,-2.027,-1.9981,-5.6933,-5.6783,-5.7022,-5.6636,-5.5943,-5.5202,-5.4884,-5.4377,-5.3136,-5.2332,-5.1532,-5.0274,-4.9047,-4.8338,-4.7689,-4.6912,-4.597,-4.5699,-4.4952,-4.4247,-4.3725,-4.3102,-4.2284,-4.1683,-4.1127,-4.0193,-3.881,-3.7898,-3.7405,-3.654,-3.6429,-3.6489,-3.6535,-3.6452,-3.6822,-3.7426,-3.7709,-3.7179,-3.677,-3.6006,-3.4944,-3.3972,-3.3101,-3.3015,-3.1854,-3.112,-3.1226,-3.0759,-3.0275,-2.9995,-2.9995,-2.9852,-2.981,-2.9824,-2.9649,-2.9606,-2.9312,-2.9368,-2.929,-2.8667,-2.8314,-2.8164,-2.7864,-2.7057,-2.6361,-2.6778,-2.6283,-2.4885,-2.4696,-2.4696,-2.4696,-2.4696,-2.4696,-2.4696,-2.4696,-2.4518,-2.4352,-2.4352,-2.453,-2.4542,-2.4255,-2.3811,-2.3499,-2.2719,-2.2039,-2.3065,-2.2898,-2.2563,-2.2406,-2.1724,-2.1724,-2.1902,-2.185,-2.1505,-2.1367,-2.0506,-1.8896,-1.7782,-1.716,-1.6989,-1.6818,-1.716,-1.716,-1.8256,-1.8869,-2.0367,-2.1161,-2.0313,-1.9614,-1.9549,-1.9512,-1.9512,-1.9672,-1.9672,-1.9174,-5.8619,-5.8867,-5.84,-5.7806,-5.7048,-5.6666,-5.5636,-5.448,-5.3738,-5.2908,-5.1998,-5.1222,-5.0384,-4.9665,-4.8963,-4.8197,-4.7108,-4.6655,-4.5765,-4.4859,-4.4176,-4.3462,-4.267,-4.1919,-4.1262,-4.0632,-3.9337,-3.864,-3.8129,-3.7656,-3.7309,-3.6969,-3.7803,-3.7745,-3.754,-3.8307,-3.8716,-3.8045,-3.7699,-3.7175,-3.6265,-3.5145,-3.4275,-3.3521,-3.2556,-3.1556,-3.1241,-3.0759,-3.0275,-2.998,-2.9995,-2.9995,-2.9995,-2.9833,-2.9818,-2.9466,-2.9318,-2.9155,-2.8667,-2.8341,-2.7851,-2.8001,-2.7838,-2.7359,-2.6525,-2.6056,-2.5572,-2.4873,-2.4696,-2.4696,-2.4696,-2.4696,-2.4696,-2.4696,-2.4696,-2.4186,-2.3854,-2.4198,-2.4364,-2.3811,-2.3082,-2.2777,-2.1971,-2.131,-2.1902,-2.3087,-2.3065,-2.2898,-2.2217,-2.1545,-2.1566,-2.1607,-2.1209,-2.0159,-1.9484,-1.863,-1.8156,-1.733,-1.6997,-1.6826,-1.6826,-1.6997,-1.7501,-1.7612,-1.7867,-1.8977,-1.9935,-2.0502,-2.0891,-1.9935,-1.9174,-1.9174,-1.9004,-1.9004,-1.8674,-5.9707,-5.9819,-5.9144,-5.8599,-5.7774,-5.711,-5.6095,-5.5048,-5.4097,-5.3375,-5.2707,-5.1942,-5.1118,-5.0439,-4.9692,-4.8798,-4.7779,-4.722,-4.6339,-4.5442,-4.4531,-4.382,-4.2958,-4.2307,-4.1842,-4.1128,-4.0155,-3.936,-3.9572,-3.9419,-3.9108,-3.8911,-3.9248,-3.9146,-3.9974,-4.0076,-3.9662,-3.9157,-3.881,-3.825,-3.7074,-3.5988,-3.505,-3.4107,-3.2839,-3.2012,-3.1562,-3.092,-3.0275,-2.998,-2.9995,-2.9995,-2.9995,-2.9818,-2.9642,-2.9276,-2.9141,-2.8654,-2.8328,-2.7687,-2.7687,-2.7838,-2.7838,-2.7346,-2.6702,-2.6056,-2.5382,-2.4696,-2.4696,-2.4696,-2.4696,-2.4696,-2.4696,-2.4696,-2.4696,-2.4186,-2.3854,-2.4032,-2.3599,-2.2777,-2.1924,-2.1091,-2.0336,-2.1195,-2.2767,-2.3452,-2.3232,-2.2908,-2.2238,-2.1377,-2.1071,-2.131,-2.0114,-1.8906,-1.808,-1.7459,-1.7526,-1.716,-1.6826,-1.6663,-1.6663,-1.7168,-1.7841,-1.813,-1.7393,-1.7418,-1.8003,-1.878,-1.9401,-1.931,-1.9022,-1.8308,-1.7782,-1.7646,-1.7158,-6.0476,-6.0088,-5.9548,-5.9013,-5.8348,-5.7254,-5.6515,-5.6003,-5.4605,-5.3865,-5.3404,-5.2348,-5.156,-5.1048,-5.031,-4.9525,-4.8557,-4.816,-4.7403,-4.637,-4.5098,-4.4152,-4.3534,-4.2865,-4.2254,-4.1765,-4.0925,-4.1079,-4.0943,-4.064,-4.0471,-4.0507,-4.066,-4.1097,-4.1471,-4.1266,-4.1189,-4.1024,-4.0692,-3.9505,-3.7691,-3.6765,-3.5815,-3.4563,-3.3474,-3.2521,-3.1707,-3.1226,-3.0451,-3.0156,-2.9995,-2.9995,-2.9833,-2.9628,-2.9628,-2.9141,-2.8667,-2.8014,-2.8121,-2.7753,-2.7536,-2.751,-2.7523,-2.7031,-2.6373,-2.5878,-2.5205,-2.4696,-2.4696,-2.4696,-2.4696,-2.4696,-2.4696,-2.4696,-2.4684,-2.4186,-2.3188,-2.2854,-2.2459,-2.1601,-2.0058,-1.9153,-1.9383,-2.1685,-2.356,-2.3349,-2.3243,-2.2763,-2.2102,-2.1061,-2.0555,-2.0114,-1.9148,-1.8387,-1.755,-1.7609,-1.7388,-1.6818,-1.6826,-1.6663,-1.681,-1.6965,-1.7816,-1.7663,-1.6568,-1.6228,-1.6092,-1.6537,-1.756,-1.8191,-1.8754,-1.8003,-1.6624,-1.5791,-1.5317,-6.0629,-6.0476,-5.9819,-5.9419,-5.8981,-5.803,-5.7223,-5.6426,-5.5606,-5.467,-5.3669,-5.3107,-5.2304,-5.1812,-5.1932,-5.2134,-5.1933,-5.0267,-4.9092,-4.773,-4.596,-4.4579,-4.3868,-4.3074,-4.2369,-4.1933,-4.1138,-4.1041,-4.1527,-4.1051,-4.0772,-4.0913,-4.1063,-4.1471,-4.2042,-4.1847,-4.1558,-4.12,-4.0769,-4.0318,-3.922,-3.7691,-3.6299,-3.552,-3.4281,-3.303,-3.2057,-3.1652,-3.1081,-3.0347,-3.0037,-2.9861,-2.9833,-2.9508,-2.8857,-2.8028,-2.7713,-2.7963,-2.8247,-2.8016,-2.7208,-2.7018,-2.6867,-2.6538,-2.6196,-2.5536,-2.4862,-2.4696,-2.4696,-2.4696,-2.4696,-2.4696,-2.4696,-2.4696,-2.4518,-2.402,-2.2676,-2.1871,-2.129,-1.9765,-1.8208,-1.8154,-1.9339,-2.1236,-2.2597,-2.2552,-2.229,-2.1961,-2.1048,-2.0105,-1.9148,-1.8813,-1.8417,-1.765,-1.7384,-1.7295,-1.7037,-1.6647,-1.6655,-1.6305,-1.6282,-1.643,-1.6997,-1.738,-1.6157,-1.443,-1.3875,-1.3997,-1.5029,-1.6437,-1.8114,-1.7683,-1.4965,-1.3729,-1.3674,-6.0553,-6.0366,-5.9898,-5.9467,-5.903,-5.8284,-5.7602,-5.7022,-5.6155,-5.5421,-5.4605,-5.3659,-5.3022,-5.2929,-5.3105,-5.3123,-5.2705,-5.1695,-5.0609,-4.9004,-4.6987,-4.5399,-4.4507,-4.3191,-4.2468,-4.1856,-4.1497,-4.1701,-4.2616,-4.1962,-4.1714,-4.1921,-4.2033,-4.2063,-4.2305,-4.2082,-4.142,-4.0803,-4.0581,-4.0488,-4.0148,-3.8763,-3.7246,-3.6281,-3.5192,-3.392,-3.2592,-3.2336,-3.173,-3.0357,-3.0022,-2.9487,-2.8981,-2.8368,-2.8054,-2.7766,-2.7976,-2.8432,-2.8719,-2.7697,-2.6892,-2.6702,-2.6361,-2.6196,-2.5713,-2.537,-2.5039,-2.4862,-2.4696,-2.4696,-2.4696,-2.4696,-2.4696,-2.4696,-2.4684,-2.3688,-2.2018,-2.1347,-1.986,-1.802,-1.7429,-1.7866,-1.901,-2.0179,-2.153,-2.1689,-2.144,-2.0571,-1.9663,-1.8467,-1.7117,-1.7048,-1.7281,-1.6803,-1.6922,-1.6859,-1.6834,-1.6476,-1.6305,-1.5435,-1.5249,-1.5413,-1.5963,-1.6122,-1.4775,-1.281,-1.221,-1.1928,-1.284,-1.3784,-1.4343,-1.4405,-1.2645,-1.1883,-1.1973,-6.0673,-6.0244,-5.9898,-5.9435,-5.8917,-5.8253,-5.7891,-5.7578,-5.6546,-5.6064,-5.5939,-5.4538,-5.4202,-5.4319,-5.3883,-5.3618,-5.3609,-5.3019,-5.1969,-5.0657,-4.8092,-4.6295,-4.5181,-4.362,-4.2705,-4.2306,-4.2422,-4.3118,-4.3847,-4.3496,-4.3382,-4.3504,-4.3487,-4.3131,-4.2817,-4.2094,-4.1271,-4.0369,-4.0673,-4.0789,-4.0488,-3.9409,-3.8305,-3.6679,-3.61,-3.4671,-3.3182,-3.2671,-3.2065,-3.0236,-3.0013,-2.9032,-2.8023,-2.7871,-2.834,-2.8759,-2.9074,-2.8772,-2.8617,-2.7531,-2.6753,-2.6373,-2.6031,-2.5713,-2.5548,-2.5382,-2.5039,-2.4862,-2.4696,-2.4696,-2.4696,-2.4696,-2.4696,-2.4518,-2.4186,-2.3177,-2.1545,-2.0303,-1.8715,-1.7477,-1.7319,-1.7432,-1.8258,-1.9066,-1.9911,-1.9839,-1.9957,-1.9649,-1.8185,-1.6586,-1.5631,-1.5877,-1.6095,-1.6263,-1.6052,-1.611,-1.6031,-1.5515,-1.4798,-1.393,-1.4427,-1.4406,-1.3869,-1.3231,-1.2176,-1.0887,-1.0624,-1.0325,-1.0921,-1.1532,-1.1031,-1.0558,-1.0334,-1.0277,-1.0357,-6.1636,-6.0244,-6.0055,-5.9739,-5.9144,-5.8599,-5.8147,-5.786,-5.7317,-5.7374,-5.7272,-5.6559,-5.5971,-5.5953,-5.5898,-5.5744,-5.5323,-5.4616,-5.3846,-5.2591,-4.9373,-4.7489,-4.6247,-4.4527,-4.3697,-4.5382,-4.4837,-4.4897,-4.5369,-4.5053,-4.4781,-4.5457,-4.4722,-4.3942,-4.3797,-4.2767,-4.1251,-4.0311,-4.0653,-4.0789,-4.0507,-4.0337,-3.922,-3.7727,-3.6749,-3.5125,-3.3155,-3.2584,-3.1907,-3.0037,-2.9606,-2.8722,-2.793,-2.838,-2.9609,-3.2418,-3.0033,-2.9078,-2.8554,-2.748,-2.6473,-2.5713,-2.5584,-2.5406,-2.5099,-2.5003,-2.5003,-2.479,-2.4766,-2.4766,-2.4708,-2.4766,-2.4755,-2.4433,-2.3221,-2.2007,-2.0594,-1.8882,-1.8115,-1.7413,-1.7484,-1.7555,-1.8046,-1.8331,-1.8086,-1.8111,-1.8613,-1.8421,-1.6241,-1.4754,-1.455,-1.4646,-1.5005,-1.5177,-1.4531,-1.4363,-1.431,-1.3714,-1.2788,-1.295,-1.363,-1.3391,-1.2876,-1.148,-1.0198,-0.9052,-0.8398,-0.8981,-0.9203,-0.9455,-0.941,-0.9325,-0.902,-0.8573,-0.7994,-6.1418,-6.0289,-6.0088,-5.9819,-5.9419,-5.893,-5.8567,-5.8443,-5.859,-5.8719,-5.8542,-5.8125,-5.7904,-5.7753,-5.7134,-5.6855,-5.6678,-5.6309,-5.553,-5.3705,-5.1037,-4.897,-4.7902,-4.6524,-4.6125,-4.7385,-4.6891,-4.6626,-4.6623,-4.5997,-4.5617,-4.5549,-4.4654,-4.4557,-4.434,-4.2935,-4.1717,-4.0914,-4.0692,-4.0619,-4.0638,-4.0469,-3.9675,-3.9105,-3.7773,-3.5874,-3.3442,-3.3123,-3.2028,-3.0606,-2.9816,-2.9337,-2.8502,-2.9242,-3.0937,-3.2628,-3.0978,-2.941,-2.8645,-2.7742,-2.6872,-2.6433,-2.6055,-2.5712,-2.5529,-2.5529,-2.5423,-2.52,-2.513,-2.5118,-2.513,-2.513,-2.4796,-2.4237,-2.3419,-2.2045,-2.0392,-1.8603,-1.7571,-1.7689,-1.8013,-1.8147,-1.8202,-1.8333,-1.827,-1.8182,-1.8852,-1.807,-1.5844,-1.517,-1.4587,-1.3666,-1.4036,-1.3824,-1.3168,-1.2954,-1.2947,-1.2504,-1.1805,-1.2539,-1.2924,-1.2671,-1.2051,-1.0921,-0.9782,-0.824,-0.7354,-0.7936,-0.8333,-0.8361,-0.8375,-0.8174,-0.799,-0.7624,-0.6855,-6.2208,-6.1126,-6.0753,-6.0385,-6.0081,-5.9418,-5.8962,-5.881,-5.9717,-5.9944,-5.9777,-5.9573,-5.9618,-5.9512,-5.8235,-5.7532,-5.774,-5.7312,-5.6756,-5.475,-5.256,-5.1039,-5.0398,-4.935,-4.9216,-4.9467,-4.8705,-4.8246,-4.8027,-4.7277,-4.631,-4.5836,-4.5497,-4.499,-4.4756,-4.3357,-4.2262,-4.1337,-4.0789,-4.0715,-4.104,-4.0641,-4.0299,-4.0205,-3.8814,-3.659,-3.4414,-3.3704,-3.246,-3.0614,-3.0054,-2.993,-2.932,-3.0028,-3.0882,-3.1415,-3.0305,-2.9514,-2.8712,-2.7938,-2.7287,-2.6701,-2.6303,-2.6268,-2.6268,-2.6198,-2.6057,-2.5893,-2.5705,-2.5623,-2.5392,-2.5359,-2.4949,-2.4154,-2.313,-2.199,-2.0216,-1.876,-1.81,-1.8179,-1.8471,-1.87,-1.8684,-1.8573,-1.8597,-1.8684,-1.8285,-1.7679,-1.6959,-1.6024,-1.4702,-1.3164,-1.3181,-1.322,-1.2763,-1.2635,-1.2576,-1.211,-1.2009,-1.2252,-1.2334,-1.2052,-1.1328,-1.0268,-0.9191,-0.8101,-0.6634,-0.703,-0.7404,-0.7429,-0.7445,-0.724,-0.7039,-0.6657,-0.6279,-6.5857,-6.4149,-6.2564,-6.1848,-6.1278,-5.9836,-5.9013,-5.9186,-6.0103,-6.081,-6.1173,-6.1144,-6.1075,-6.1263,-5.9285,-5.8574,-5.8412,-5.7664,-5.7272,-5.6065,-5.4097,-5.251,-5.2632,-5.1867,-5.1628,-5.1376,-5.0896,-5.0238,-4.9618,-4.9395,-4.8785,-4.7637,-4.6914,-4.6332,-4.5315,-4.4068,-4.276,-4.182,-4.1434,-4.1532,-4.1868,-4.0966,-4.0337,-4.0016,-3.9137,-3.7162,-3.4802,-3.2995,-3.1832,-2.9995,-3.0166,-3.0107,-3.0082,-3.0718,-3.0518,-2.9091,-2.9501,-2.9186,-2.795,-2.7446,-2.7069,-2.6574,-2.6374,-2.6268,-2.6397,-2.6444,-2.6467,-2.6491,-2.6362,-2.6045,-2.5707,-2.5176,-2.4777,-2.4199,-2.2057,-2.0954,-2.0446,-1.9657,-1.911,-1.9229,-1.885,-1.8763,-1.8708,-1.8708,-1.8708,-1.8323,-1.7821,-1.7325,-1.6564,-1.6254,-1.508,-1.3388,-1.2884,-1.2567,-1.2332,-1.228,-1.2137,-1.2052,-1.2142,-1.2195,-1.2274,-1.1944,-1.0868,-0.9734,-0.9117,-0.7983,-0.6671,-0.6279,-0.647,-0.6671,-0.6867,-0.6671,-0.6472,-0.6279,-0.6279,-6.4895,-6.3428,-6.1699,-6.092,-6.0663,-5.9677,-5.9176,-5.9461,-6.0975,-6.1777,-6.1796,-6.235,-6.2271,-6.1438,-5.9942,-5.8977,-5.8412,-5.7664,-5.7178,-5.6675,-5.4864,-5.3911,-5.3709,-5.3295,-5.301,-5.2718,-5.2481,-5.1952,-5.1236,-5.0405,-4.9613,-4.8674,-4.7582,-4.6847,-4.6144,-4.4838,-4.3394,-4.2491,-4.1532,-4.1479,-4.2045,-4.0872,-4.0205,-3.9978,-3.9675,-3.8439,-3.5937,-3.3617,-3.1737,-3.0519,-3.0431,-3.089,-3.1057,-3.1074,-3.0237,-2.8725,-2.8956,-2.8931,-2.7849,-2.7731,-2.7682,-2.733,-2.7148,-2.7148,-2.7124,-2.716,-2.6937,-2.6855,-2.6667,-2.6303,-2.587,-2.5813,-2.5641,-2.4477,-2.1703,-2.0151,-2.1061,-1.978,-1.8992,-1.8952,-1.8648,-1.8323,-1.6983,-1.7354,-1.7739,-1.7784,-1.7343,-1.679,-1.6366,-1.6233,-1.5794,-1.4354,-1.3277,-1.2759,-1.2354,-1.2385,-1.2301,-1.2311,-1.2375,-1.2385,-1.2433,-1.2271,-1.1331,-1.0355,-0.9202,-0.8041,-0.7454,-0.7063,-0.6671,-0.6279,-0.6279,-0.6279,-0.6279,-0.6279,-0.6277,-6.5362,-6.4231,-6.2531,-6.1474,-6.1003,-6.0178,-5.9643,-5.9479,-6.1786,-6.24,-6.2108,-6.3194,-6.307,-6.1858,-6.0315,-5.933,-5.8741,-5.7905,-5.715,-5.666,-5.5766,-5.5012,-5.453,-5.3888,-5.3501,-5.3371,-5.3266,-5.3085,-5.2431,-5.1102,-5.0022,-4.9202,-4.7862,-4.6989,-4.6618,-4.5508,-4.4589,-4.379,-4.2577,-4.2353,-4.2765,-4.1563,-4.0624,-4.0434,-4.0243,-3.9049,-3.7039,-3.4546,-3.2408,-3.1095,-3.1417,-3.1795,-3.1873,-3.1361,-3.0534,-2.9645,-2.9224,-2.8688,-2.8215,-2.831,-2.8317,-2.798,-2.7873,-2.798,-2.7793,-2.7781,-2.7547,-2.7218,-2.7042,-2.6855,-2.655,-2.6721,-2.6148,-2.4727,-2.3064,-2.1643,-2.132,-1.9804,-1.8416,-1.8139,-1.7954,-1.7415,-1.6594,-1.6649,-1.7074,-1.7088,-1.7137,-1.7116,-1.7621,-1.7619,-1.7462,-1.5598,-1.37,-1.2962,-1.2615,-1.2486,-1.2512,-1.2512,-1.2507,-1.2491,-1.2313,-1.2328,-1.1934,-1.0762,-0.921,-0.8041,-0.765,-0.7063,-0.6867,-0.6279,-0.6279,-0.6279,-0.6279,-0.6279,-0.6277,-6.9481,-6.8555,-6.6822,-6.487,-6.3467,-6.1837,-6.0479,-5.99,-6.2077,-6.2732,-6.2389,-6.3465,-6.3449,-6.2356,-6.0572,-5.9767,-5.9535,-5.8448,-5.773,-5.7245,-5.651,-5.5766,-5.529,-5.453,-5.3888,-5.3501,-5.3396,-5.3111,-5.2456,-5.137,-5.0294,-4.9202,-4.8002,-4.7064,-4.6365,-4.638,-4.6238,-4.575,-4.5056,-4.4791,-4.5087,-4.3057,-4.1872,-4.1679,-4.0548,-3.8897,-3.6902,-3.5257,-3.4112,-3.336,-3.2588,-3.2428,-3.2141,-3.1771,-3.0999,-3.02,-2.9183,-2.9022,-2.9047,-2.891,-2.8551,-2.8551,-2.8364,-2.8364,-2.7793,-2.7793,-2.7723,-2.7629,-2.7641,-2.7641,-2.7582,-2.7304,-2.6208,-2.4918,-2.4624,-2.3849,-2.2242,-1.9967,-1.8211,-1.7212,-1.6453,-1.5967,-1.6811,-1.6633,-1.6659,-1.6552,-1.6419,-1.7314,-1.8076,-1.8889,-1.85,-1.6691,-1.3987,-1.3238,-1.3045,-1.31,-1.2712,-1.2712,-1.2512,-1.2313,-1.2318,-1.2318,-1.2123,-1.0567,-0.9011,-0.8233,-0.7454,-0.6867,-0.6279,-0.6279,-0.6279,-0.6279,-0.6279,-0.6279,-0.6475,-6.8652,-6.7849,-6.5961,-6.4793,-6.4006,-6.2244,-6.1058,-6.0962,-6.2461,-6.2701,-6.245,-6.3565,-6.3554,-6.2436,-6.0912,-6.0142,-5.9796,-5.8804,-5.809,-5.773,-5.7123,-5.6414,-5.5568,-5.4885,-5.4248,-5.363,-5.3396,-5.298,-5.206,-5.1102,-4.9999,-4.8789,-4.77,-4.7041,-4.6705,-4.6695,-4.6751,-4.6792,-4.5829,-4.5289,-4.5189,-4.3193,-4.2007,-4.1737,-4.009,-3.8629,-3.7246,-3.5608,-3.4043,-3.2987,-3.2385,-3.264,-3.3034,-3.1498,-3.001,-2.9282,-2.9282,-2.9492,-2.9319,-2.9121,-2.8935,-2.8551,-2.8551,-2.8364,-2.7992,-2.7793,-2.7793,-2.7793,-2.7793,-2.7793,-2.7606,-2.7068,-2.562,-2.3686,-2.432,-2.3868,-2.2023,-1.9576,-1.768,-1.6453,-1.5818,-1.5822,-1.6356,-1.6495,-1.689,-1.6455,-1.6475,-1.7352,-1.8308,-1.9845,-1.9568,-1.8393,-1.5438,-1.4058,-1.3682,-1.3494,-1.3105,-1.2712,-1.2318,-1.1929,-1.1735,-1.1929,-1.1735,-1.0177,-0.9206,-0.8233,-0.7647,-0.6867,-0.6083,-0.6279,-0.6279,-0.6279,-0.6279,-0.6279,-0.6279,-6.8683,-6.7802,-6.632,-6.5444,-6.4687,-6.3406,-6.2204,-6.1605,-6.3111,-6.2934,-6.2171,-6.3365,-6.3418,-6.2356,-6.1108,-6.0372,-6.0027,-5.9302,-5.8685,-5.821,-5.7757,-5.6933,-5.5944,-5.5264,-5.4631,-5.3914,-5.363,-5.298,-5.1927,-5.081,-4.9726,-4.8605,-4.7559,-4.7041,-4.6944,-4.727,-4.7287,-4.7555,-4.6793,-4.6434,-4.6372,-4.394,-4.2589,-4.2297,-4.0087,-3.8278,-3.7426,-3.5564,-3.4243,-3.3394,-3.2774,-3.2421,-3.2336,-3.1104,-2.9467,-2.8364,-2.9294,-2.9678,-2.9492,-2.969,-2.9492,-2.9108,-2.9108,-2.8737,-2.8178,-2.8178,-2.8178,-2.742,-2.7793,-2.742,-2.7046,-2.6307,-2.5189,-2.3079,-2.3449,-2.3189,-2.1191,-1.943,-1.765,-1.6038,-1.5625,-1.5625,-1.5816,-1.6403,-1.6818,-1.6515,-1.7099,-1.8022,-1.9019,-2.0162,-2.0553,-1.973,-1.704,-1.4651,-1.4064,-1.3482,-1.29,-1.2123,-1.1346,-1.0762,-1.0961,-1.116,-1.0961,-1.0177,-0.9401,-0.8624,-0.7839,-0.706,-0.6081,-0.5887,-0.5887,-0.6083,-0.6083,-0.6279,-0.6279,-6.9999,-6.9079,-6.8714,-6.747,-6.619,-6.548,-6.3975,-6.2259,-6.3893,-6.3421,-6.1792,-6.3093,-6.3267,-6.2167,-6.1279,-6.0714,-6.0401,-5.9912,-5.9419,-5.8713,-5.8025,-5.7178,-5.644,-5.5667,-5.4911,-5.4581,-5.3785,-5.298,-5.1794,-5.0675,-4.9566,-4.8489,-4.7419,-4.7086,-4.7108,-4.7943,-4.8344,-4.8093,-4.8454,-4.8635,-4.8101,-4.5369,-4.3683,-4.3388,-4.0344,-3.833,-3.7333,-3.5641,-3.4806,-3.5189,-3.4178,-3.2723,-3.1129,-3.0341,-2.964,-2.9121,-2.9121,-2.9678,-3.0023,-3.0208,-3.0035,-3.0035,-3.0023,-2.9505,-2.8809,-2.8785,-2.84,-2.7325,-2.7302,-2.7046,-2.5555,-2.541,-2.4864,-2.3717,-2.3401,-2.2522,-2.0394,-1.9381,-1.8483,-1.6273,-1.5625,-1.5625,-1.5743,-1.6218,-1.6653,-1.6939,-1.7712,-1.8998,-2.0081,-2.0642,-2.0463,-1.9771,-1.8407,-1.5898,-1.4676,-1.3477,-1.2507,-1.1346,-1.0571,-0.9982,-1.0182,-1.0376,-1.0177,-0.9982,-0.9206,-0.862,-0.7839,-0.6274,-0.5491,-0.5297,-0.5493,-0.5493,-0.5689,-0.5691,-0.5887,-7.063,-6.9879,-6.9068,-6.8421,-6.7754,-6.5977,-6.4596,-6.3957,-6.4265,-6.3578,-6.2548,-6.3285,-6.316,-6.2167,-6.142,-6.0941,-6.0714,-6.0142,-5.9535,-5.8949,-5.8384,-5.7812,-5.6933,-5.629,-5.5667,-5.4885,-5.4146,-5.2799,-5.0944,-4.9703,-4.8628,-4.7559,-4.7301,-4.7211,-4.7678,-4.821,-4.8602,-4.871,-4.9195,-4.917,-4.8121,-4.5791,-4.392,-4.2709,-4.0054,-3.8231,-3.7259,-3.5973,-3.5362,-3.5419,-3.4267,-3.2559,-3.029,-2.9813,-2.9678,-3.0035,-3.022,-3.0405,-3.059,-3.0577,-3.0405,-3.0208,-2.9863,-2.9492,-2.921,-2.8568,-2.8075,-2.7323,-2.6618,-2.5743,-2.5043,-2.5264,-2.4664,-2.3121,-2.2603,-2.1504,-1.9308,-1.8231,-1.7457,-1.6604,-1.6011,-1.5625,-1.5697,-1.6159,-1.6567,-1.6851,-1.8151,-1.9213,-2.0342,-2.1053,-2.1375,-2.0595,-1.9599,-1.7451,-1.5392,-1.3952,-1.2749,-1.0989,-0.982,-0.9601,-0.9592,-0.9592,-0.9397,-0.9397,-0.9007,-0.8422,-0.7445,-0.5684,-0.5097,-0.4903,-0.4905,-0.4905,-0.4905,-0.5101,-0.5297,-7.1069,-7.0466,-6.9298,-6.8682,-6.8373,-6.6533,-6.5308,-6.4741,-6.4617,-6.363,-6.216,-6.2491,-6.2228,-6.132,-6.0364,-5.9953,-6.0106,-5.9372,-5.9024,-5.9039,-5.8384,-5.7812,-5.73,-5.681,-5.6042,-5.4986,-5.4222,-5.2537,-5.0111,-4.9041,-4.8096,-4.716,-4.7019,-4.7367,-4.8054,-4.8578,-4.8907,-4.9187,-4.9504,-4.9314,-4.8512,-4.589,-4.387,-4.2595,-4.0134,-3.8598,-3.7772,-3.6539,-3.5757,-3.555,-3.4172,-3.2374,-3.0684,-2.9838,-2.9703,-3.022,-3.059,-3.0761,-3.0761,-3.0761,-3.0577,-3.0392,-2.985,-2.9641,-2.935,-2.8725,-2.8056,-2.7392,-2.5879,-2.5011,-2.5053,-2.5243,-2.4452,-2.2494,-2.1915,-2.1005,-1.89,-1.7739,-1.6962,-1.6769,-1.6004,-1.5625,-1.577,-1.6323,-1.7026,-1.7572,-1.844,-1.9786,-2.0726,-2.176,-2.2225,-2.1604,-2.0256,-1.8491,-1.577,-1.4726,-1.2835,-1.1067,-0.9829,-0.9796,-0.9397,-0.9397,-0.9393,-0.9393,-0.9393,-0.8617,-0.6861,-0.5295,-0.4315,-0.4315,-0.4317,-0.4319,-0.4121,-0.4707,-0.4707,-7.1229,-7.0793,-6.9471,-6.8649,-6.7985,-6.7338,-6.6009,-6.4397,-6.4978,-6.3517,-6.0892,-6.0843,-6.0539,-5.9836,-5.8309,-5.8002,-5.8611,-5.7838,-5.8064,-5.8851,-5.7925,-5.7433,-5.7488,-5.681,-5.6042,-5.4859,-5.3812,-5.1961,-4.9316,-4.8743,-4.7933,-4.716,-4.7019,-4.7532,-4.8457,-4.901,-4.9498,-5.0011,-4.9708,-4.9272,-4.8676,-4.5957,-4.4047,-4.2501,-4.0729,-3.9201,-3.8207,-3.7097,-3.6177,-3.5548,-3.3817,-3.236,-3.1561,-3.0208,-2.969,-2.9985,-3.0564,-3.0761,-3.0774,-3.0774,-3.0761,-3.0577,-3.0208,-2.9876,-2.9529,-2.937,-2.8667,-2.7277,-2.6051,-2.5254,-2.557,-2.5243,-2.4218,-2.2261,-2.1805,-2.0623,-1.8331,-1.7547,-1.6962,-1.6583,-1.6011,-1.5625,-1.5664,-1.6646,-1.7518,-1.8559,-1.9287,-2.0523,-2.2181,-2.3017,-2.3056,-2.2172,-2.0576,-1.8643,-1.846,-1.6115,-1.3498,-1.1833,-1.1081,-1.0372,-0.9783,-0.9393,-0.9393,-0.9393,-0.8812,-0.8031,-0.6472,-0.5101,-0.4121,-0.3729,-0.3926,-0.373,-0.3534,-0.4119,-0.4117,-7.1309,-7.1149,-7.0399,-6.9609,-6.8771,-6.7589,-6.6421,-6.5397,-6.4086,-6.2643,-6.1147,-6.0038,-5.8956,-5.779,-5.6831,-5.6875,-5.7421,-5.6394,-5.601,-5.6375,-5.6495,-5.6468,-5.6368,-5.6379,-5.5891,-5.4553,-5.3295,-5.1455,-4.9316,-4.8096,-4.7301,-4.7019,-4.7019,-4.7745,-4.8983,-4.958,-5.0112,-5.0651,-5.0329,-4.9662,-4.8944,-4.7234,-4.514,-4.2667,-4.1583,-4.0074,-3.8052,-3.6936,-3.6223,-3.5308,-3.4041,-3.2364,-3.0293,-3.1272,-3.1717,-3.0966,-3.1441,-3.1879,-3.1879,-3.113,-3.0761,-3.0774,-3.0392,-3.0001,-2.9965,-2.9612,-2.8915,-2.7788,-2.7119,-2.6593,-2.6544,-2.5813,-2.446,-2.256,-2.1915,-2.0814,-1.8715,-1.7547,-1.6976,-1.6769,-1.6038,-1.5625,-1.5789,-1.66,-1.8189,-1.9778,-2.0925,-2.1874,-2.3309,-2.3881,-2.3489,-2.2381,-2.1581,-2.0247,-1.8451,-1.6666,-1.4964,-1.3659,-1.4266,-1.3671,-1.0173,-0.9588,-0.9393,-0.9202,-0.7839,-0.6668,-0.6083,-0.4515,-0.3338,-0.3339,-0.3339,-0.3339,-0.3143,-0.3338,-0.3336,-7.1376,-7.1342,-7.076,-6.978,-6.8373,-6.67,-6.5436,-6.4433,-6.2641,-6.1259,-6.0126,-5.8531,-5.7216,-5.637,-5.5753,-5.5765,-5.618,-5.5227,-5.4941,-5.5339,-5.5574,-5.583,-5.5759,-5.5851,-5.5364,-5.4197,-5.2512,-5.0944,-4.9202,-4.7839,-4.7182,-4.7064,-4.7421,-4.8257,-4.962,-5.0723,-5.1238,-5.1266,-5.0619,-4.9968,-4.915,-4.7807,-4.5873,-4.3703,-4.2292,-4.0626,-3.8667,-3.7112,-3.6254,-3.5714,-3.4252,-3.2601,-3.112,-3.221,-3.281,-3.2656,-3.2769,-3.2781,-3.2781,-3.1865,-3.1314,-3.1314,-3.0577,-3.0162,-3.0103,-2.9691,-2.9069,-2.8321,-2.7528,-2.7054,-2.7034,-2.6417,-2.4929,-2.2678,-2.1906,-2.0996,-1.8908,-1.7866,-1.7357,-1.7162,-1.6423,-1.5888,-1.608,-1.666,-1.8186,-2.0949,-2.1611,-2.2699,-2.4404,-2.5048,-2.4302,-2.2852,-2.1953,-2.1057,-1.94,-1.8205,-1.5881,-1.387,-1.4628,-1.5032,-1.0368,-0.9393,-0.9393,-0.9393,-0.7448,-0.6081,-0.5887,-0.4319,-0.3143,-0.3143,-0.3143,-0.3143,-0.3143,-0.3143,-0.3142,-7.1376,-7.1263,-7.0793,-6.9491,-6.7732,-6.5467,-6.3891,-6.2764,-6.1123,-5.971,-5.8419,-5.6612,-5.588,-5.5542,-5.5133,-5.4861,-5.4852,-5.4291,-5.4227,-5.4781,-5.5009,-5.5197,-5.5396,-5.5183,-5.4631,-5.3863,-5.1853,-5.027,-4.9202,-4.8141,-4.7509,-4.7265,-4.8113,-4.9094,-5.0143,-5.1986,-5.2465,-5.177,-5.0749,-5.0018,-4.9432,-4.7895,-4.6174,-4.4713,-4.2585,-4.0797,-3.9235,-3.7481,-3.6428,-3.6116,-3.4064,-3.3117,-3.3379,-3.2908,-3.3089,-3.407,-3.3797,-3.3522,-3.3312,-3.2615,-3.2028,-3.2082,-3.0789,-3.0118,-2.9947,-2.954,-2.938,-2.917,-2.784,-2.7029,-2.7046,-2.6716,-2.5053,-2.2567,-2.1967,-2.0996,-1.8931,-1.8016,-1.7603,-1.7603,-1.6676,-1.6277,-1.6403,-1.666,-1.8199,-2.0909,-2.1816,-2.3301,-2.5441,-2.6113,-2.5451,-2.3953,-2.2419,-2.1195,-2.0078,-1.7689,-1.5717,-1.4086,-1.3058,-1.1759,-1.0368,-0.9393,-0.9393,-0.9007,-0.7252,-0.5689,-0.5101,-0.4121,-0.3143,-0.3143,-0.3143,-0.3143,-0.3143,-0.3143,-0.3143,-7.1376,-7.1342,-7.076,-7.0116,-6.9133,-6.6106,-6.4051,-6.2646,-6.0204,-5.8358,-5.716,-5.6581,-5.6064,-5.5542,-5.5291,-5.4584,-5.3639,-5.2599,-5.2043,-5.1881,-5.3026,-5.3566,-5.3782,-5.4689,-5.4631,-5.3863,-5.1878,-5.0294,-4.9202,-4.8141,-4.7824,-4.8157,-4.9139,-5.0121,-5.1256,-5.2224,-5.2505,-5.1639,-5.0838,-4.9473,-4.7567,-4.6739,-4.5529,-4.3554,-4.1943,-4.0317,-3.8132,-3.6447,-3.5038,-3.3892,-3.2792,-3.2187,-3.2365,-3.2474,-3.2719,-3.3146,-3.3348,-3.3096,-3.2242,-3.1369,-3.083,-3.0682,-3.0197,-2.9751,-2.9338,-2.9366,-2.9456,-2.9883,-2.964,-2.9096,-2.8178,-2.7431,-2.5743,-2.3259,-2.232,-2.1005,-1.9099,-1.7799,-1.727,-1.7112,-1.6601,-1.6271,-1.6462,-1.6666,-1.7355,-1.8965,-2.162,-2.4376,-2.6484,-2.6734,-2.6123,-2.4771,-2.3079,-2.1376,-1.9831,-1.8532,-1.6565,-1.3493,-1.2665,-1.137,-0.9978,-0.9393,-0.9393,-0.9007,-0.7448,-0.5885,-0.5297,-0.4123,-0.3339,-0.3143,-0.3143,-0.3143,-0.3143,-0.3143,-0.3338,-7.1376,-7.1195,-7.0181,-6.928,-6.8433,-6.5758,-6.3314,-6.1013,-5.8604,-5.701,-5.6338,-5.6307,-5.6003,-5.5542,-5.5479,-5.4599,-5.3264,-5.2145,-5.1325,-5.0736,-5.192,-5.2672,-5.2886,-5.3764,-5.4094,-5.363,-5.1893,-5.0253,-4.9226,-4.8397,-4.7971,-4.78,-4.8336,-4.9117,-5.0032,-5.1037,-5.1252,-5.0572,-4.998,-4.8386,-4.5982,-4.5208,-4.4094,-4.2478,-4.1597,-4.0181,-3.8151,-3.62,-3.4405,-3.2902,-3.2187,-3.1659,-3.0951,-3.1007,-3.1374,-3.2146,-3.1853,-3.1997,-3.2799,-3.1815,-3.0954,-3.0463,-2.9886,-2.9437,-2.8814,-2.8925,-2.9411,-2.9802,-3.0396,-3.0208,-2.8725,-2.7992,-2.6671,-2.4194,-2.2889,-2.1387,-1.9683,-1.8432,-1.7566,-1.7386,-1.6877,-1.6573,-1.6292,-1.6422,-1.661,-1.7253,-2.1025,-2.501,-2.7721,-2.7633,-2.6506,-2.5057,-2.3654,-2.2167,-2.0371,-1.8911,-1.6403,-1.3305,-1.1814,-1.0576,-0.9783,-0.9393,-0.9393,-0.9202,-0.666,-0.5295,-0.5689,-0.4317,-0.3336,-0.3142,-0.3143,-0.3339,-0.3536,-0.373,-0.3716,-7.0666,-7.052,-6.8901,-6.7664,-6.658,-6.478,-6.2201,-5.9156,-5.716,-5.6246,-5.6002,-5.6002,-5.585,-5.5572,-5.5418,-5.4664,-5.3235,-5.2117,-5.1166,-5.0336,-5.1438,-5.2178,-5.2401,-5.3291,-5.3579,-5.3396,-5.1724,-5.0373,-4.9363,-4.8766,-4.8187,-4.7362,-4.7242,-4.7755,-4.8626,-4.9192,-4.9354,-4.9071,-4.8485,-4.7205,-4.4919,-4.3714,-4.2636,-4.1512,-4.1159,-4.0065,-3.804,-3.5843,-3.3867,-3.1847,-3.1243,-3.0515,-2.9674,-2.8978,-2.9225,-3.05,-2.975,-3.0346,-3.2547,-3.1809,-3.0809,-2.996,-2.9265,-2.8645,-2.8164,-2.8608,-2.9065,-2.9541,-3.0307,-3.0157,-2.9047,-2.8458,-2.7327,-2.511,-2.3497,-2.2226,-2.0899,-1.9841,-1.8875,-1.8883,-1.8277,-1.7939,-1.7486,-1.7055,-1.6844,-1.8144,-2.1626,-2.5048,-2.77,-2.8081,-2.6812,-2.5175,-2.4136,-2.2952,-2.0734,-1.8563,-1.5842,-1.2733,-1.0766,-0.9588,-0.9401,-0.9401,-0.9401,-0.9401,-0.6073,-0.4509,-0.6274,-0.4901,-0.3335,-0.3142,-0.3143,-0.3143,-0.3536,-0.4304,-0.4469,-6.7778,-6.7293,-6.6761,-6.5959,-6.4934,-6.3793,-6.2026,-5.9783,-5.7996,0.0,0.0,-5.6002,-5.585,-5.5542,-5.4765,-5.4029,-5.3136,-5.1297,-5.0117,-4.9611,-5.1121,-5.1785,-5.1916,-5.3619,-5.4043,-5.3396,-5.1952,-5.0723,-4.9637,-4.872,-4.8435,-4.8567,-4.8346,-4.8693,-4.9563,-4.8341,-4.7489,-4.7412,-4.6683,-4.5774,-4.4732,-4.4276,-4.2638,-3.9756,-3.9614,-3.8147,-3.5254,-3.366,-3.1347,-2.8428,-2.6841,-2.6604,-2.7676,-2.636,-2.6327,-2.7658,-2.7334,-2.7036,-2.7314,-2.7341,-2.7354,-2.7184,-2.7464,-2.7479,-2.7045,-2.7509,-2.818,-2.9222,-3.0151,-3.0203,-2.9109,-2.8301,-2.7213,-2.5945,-2.4447,-2.3386,-2.3098,-2.2075,-2.155,-2.2557,-2.2301,-2.1893,-2.1559,-1.9118,-1.8405,-2.1829,-2.3747,-2.5811,-2.746,-2.785,-2.7266,-2.6068,-2.4813,-2.2876,-2.0343,-1.8192,-1.5664,-1.2328,-1.0372,-0.9401,-0.9409,-0.9405,-0.9401,-0.9218,-0.588,-0.529,-0.7637,-0.5877,-0.3335,-0.3143,-0.3143,-0.3143,-0.3335,-0.4266,-0.4976,-6.5992,-6.619,-6.4261,-6.3411,0.0,-6.194,-6.0477,-5.8921,-5.7653,-5.6548,-5.5572,-5.5602,-5.5415,-5.5009,-5.4569,-5.364,-5.2304,-5.0826,-4.9798,-4.9096,-4.9942,-5.0738,-5.1455,-5.3208,-5.393,-5.3759,-5.3494,-5.2705,-5.137,-5.0834,-5.026,-4.9624,-4.8804,-4.8153,-4.7301,-4.7189,-4.7069,-4.7041,-4.4985,-4.3653,-4.3246,-4.2706,-4.1447,-3.9557,-3.9381,0.0,0.0,0.0,0.0,0.0,0.0,0.0,0.0,-2.408,0.0,-2.316,-2.1951,-2.145,-2.1997,-2.2141,-2.2943,-2.4682,-2.4597,-2.4087,-2.3238,-2.4911,-2.5655,-2.4918,-2.7944,-2.9684,-2.9151,-2.855,-2.7638,-2.6936,-2.5521,-2.4412,-2.4095,-2.3153,-2.2804,-2.3569,-2.5103,-2.5308,-2.3615,-1.9474,-1.8131,-2.1446,-2.3272,-2.4885,-2.7135,-2.7651,-2.7233,-2.6256,-2.507,-2.3504,-2.1023,-1.83,-1.5025,-1.1346,-0.9787,-0.9401,-0.9405,-0.7643,-0.7054,-0.8819,-0.764,-0.6852,-0.8808,-0.7832,-0.5682,-0.4317,-0.4319,-0.4494,-0.4208,-0.4542,-0.469,-6.4483,-6.5014,-6.2085,-6.1144,-6.1604,-6.0145,-5.8981,-5.7945,-5.7373,-5.6518,-5.5572,-5.5291,-5.4914,-5.4436,-5.4147,-5.3206,-5.1532,-5.038,-4.9477,-4.8522,-4.8911,-4.9712,-5.0946,-5.2402,-5.3339,-5.3913,-5.4685,-5.4377,-5.306,-5.2905,-5.2093,-5.0444,-4.9383,-4.7683,-4.5591,0.0,0.0,0.0,-4.3994,-4.275,-4.2534,-4.1867,-4.0892,-3.9616,-3.9675,0.0,-3.9167,-3.6893,-3.5098,-3.3999,-3.0734,0.0,0.0,0.0,0.0,0.0,0.0,0.0,0.0,0.0,0.0,0.0,-2.0793,-1.9952,-1.9209,-2.1979,-2.2822,-2.0971,-2.5529,-2.8593,-2.8164,-2.7942,-2.7729,-2.7216,-2.6074,-2.5139,-2.5067,-2.4444,-2.4132,-2.4222,-2.7036,-2.7935,-2.5092,-2.0792,-1.8844,-2.1287,-2.2612,-2.4521,-2.7266,-2.7054,-2.6551,-2.6119,-2.5043,-2.3677,-2.1759,-1.7909,-1.3858,-1.0562,-0.9393,-0.9397,-0.9206,-0.647,-0.588,-0.8566,-0.9338,-0.9128,-0.9294,-0.9109,-0.795,-0.5481,-0.5689,-0.6009,-0.5399,-0.4798,-0.4407,-6.2116,-6.1803,-6.089,-6.0321,-5.9919,-5.9403,-5.8848,-5.8263,-5.7945,-5.7429,-5.6697,-5.5448,-5.4724,-5.434,-5.3206,-5.2376,-5.1737,-4.9959,-4.8908,-4.8685,-4.8911,-4.9391,-5.0125,-5.1222,-5.2372,-5.3347,-5.3106,-5.3194,-5.3425,-5.301,-5.2487,-5.1563,-5.0174,-4.8968,-4.8098,-4.7386,-4.5438,-4.2062,-4.4904,-4.5752,-4.435,-4.4206,-4.2573,-3.9497,-4.0446,-3.9739,-3.7241,-3.6093,-3.3909,-3.0414,-2.7719,-2.5235,-2.3015,-2.1253,-1.9648,0.0,-1.7154,0.0,0.0,0.0,0.0,0.0,0.0,0.0,0.0,-1.9404,-2.0858,-2.0568,-2.484,-2.6775,-2.4749,-2.5516,-2.5943,-2.5969,-2.5497,-2.5648,-2.6867,-2.6974,-2.7278,-2.8226,-2.8776,-2.9099,-2.8377,-2.7207,-2.5523,-2.4393,-2.5264,-2.6252,-2.6806,-2.5986,-2.5367,-2.5523,-2.4025,-2.2719,-2.0614,-1.6755,-1.2889,-1.0173,-0.9393,-0.9401,-0.9405,-0.8816,-0.8573,-0.9215,-0.9139,-0.9064,-0.8969,-0.8775,-0.7934,-0.6415,-0.6053,-0.6149,-0.5714,-0.5259,-0.4522,-6.0872,-6.1172,-5.934,-5.8508,-5.8144,-5.6473,-5.5861,-5.6054,-5.5616,-5.4953,-5.4218,-5.3134,-5.2161,-5.1223,-5.0426,-4.9643,-4.8873,-4.8634,-4.8165,-4.7735,-4.8511,-4.9375,-5.0232,-5.1024,-5.1782,-5.2586,-5.3209,-5.33,-5.3173,-5.2807,-5.2192,-5.1294,-5.0004,-4.7044,-4.3035,-4.5498,-4.6092,-4.4564,-4.6204,-4.6439,-4.5409,-4.4999,-4.3732,-4.1695,-4.14,-4.0848,-3.9881,-3.7216,-3.4906,-3.311,-2.8815,-2.5646,-2.372,-1.9452,-1.6973,0.0,0.0,0.0,0.0,0.0,0.0,0.0,0.0,0.0,0.0,0.0,-1.8401,-1.4586,-2.0482,-2.462,-2.4866,-2.4217,-2.3905,-2.4059,-2.2989,-2.3407,-2.6204,-2.5905,-2.624,-2.7957,-2.758,-2.7437,-2.81,-2.8946,-2.8539,-2.5931,-2.6074,-2.6176,-2.5425,-2.5811,-2.5555,-2.4582,-2.4046,-2.3108,-2.0805,-1.6727,-1.2862,-0.9974,-0.9382,-0.9532,-1.0236,-0.9915,-0.9696,-1.0558,-0.9722,-0.907,-0.9898,-0.9131,-0.7991,-0.7121,-0.6732,-0.658,-0.6428,-0.5847,-0.5304,-6.019,-6.0434,-5.6397,-5.5056,-5.5399,-5.3382,-5.3185,-5.4261,-5.3552,-5.2792,-5.1988,-5.0984,-4.9328,-4.7258,-4.5717,-4.4972,-4.5044,-4.581,-4.6165,-4.6285,-4.7259,-4.8395,-4.9699,-5.0119,-5.0869,-5.2023,-5.2874,-5.3096,-5.294,-5.2468,-5.1306,-4.9455,-4.7336,-4.3147,-3.7013,-4.2143,-4.5598,-4.7033,-4.6738,-4.6499,-4.6196,-4.5158,-4.4171,-4.3216,-4.1921,-4.14,-4.16,-3.7972,-3.5602,-3.4879,-2.9463,-2.5511,-2.358,-1.7967,0.0,0.0,0.0,0.0,0.0,0.0,0.0,0.0,0.0,-1.4487,-1.0568,0.0,-1.5349,0.0,-1.6766,-2.2377,-2.4388,-2.3022,0.0,0.0,-2.0463,-2.0703,-2.3711,-2.3607,-2.41,-2.6282,-2.6113,-2.6009,-2.6866,-2.8783,-2.9082,-2.6888,-2.6258,-2.5534,-2.4549,-2.4994,-2.5014,-2.3776,-2.3677,-2.3118,-2.1187,-1.8055,-1.4776,-1.0947,-1.0263,-1.053,-1.117,-1.0642,-1.0586,-1.1626,-1.0608,-1.0091,-1.0849,-0.9557,-0.8285,-0.7767,-0.7305,-0.7125,-0.7703,-0.702,-0.6172,-5.9974,-5.8283,-5.0932,-4.9038,-5.1008,-5.095,-5.2101,-5.3933,-5.2843,-5.221,-5.1788,-5.0097,-4.7051,-4.2997,-3.8472,0.0,-4.0868,-4.0339,-4.1692,-4.4509,-4.4091,-4.5288,-4.7658,-4.7363,-4.9097,-5.2327,-5.1179,-5.1452,-5.2894,-5.1839,-4.9256,-4.4977,-4.0999,-3.6886,-3.3141,-3.7197,-4.1951,-4.6703,-4.5831,-4.5875,-4.6906,-4.5523,-4.3999,-4.2306,-4.143,-4.0618,-3.9836,-3.7264,-3.4702,-3.2248,-2.7553,-2.3281,-2.0113,0.0,0.0,0.0,0.0,0.0,0.0,0.0,0.0,0.0,0.0,0.0,0.0,0.0,0.0,-1.0133,-1.5927,0.0,-2.1451,-2.0647,0.0,0.0,0.0,-1.788,-1.955,-2.0796,-2.2181,-2.3826,0.0,0.0,-2.5814,-2.6966,-2.7823,-2.747,-2.6114,-2.5242,-2.5578,-2.3356,-2.1919,-2.2696,-2.194,-2.1187,-2.1422,-2.1035,-1.8946,-1.4608,-1.3101,-1.2593,-1.1825,-1.192,-1.1889,-1.1822,-1.168,-1.169,-1.1128,-1.0023,-0.833,-0.835,-0.7486,-0.771,-0.9333,-0.8804,-0.7893,-5.2705,-4.7526,-4.3164,-4.3205,-4.5906,-4.3594,-4.51,-4.9128,-4.7502,-4.5616,-4.3571,-4.2301,-3.8859,-3.4097,-3.1913,0.0,0.0,0.0,-3.6931,-3.9945,-4.1308,-4.3526,-4.6245,-4.6383,-4.6996,-4.8132,-4.7705,-4.7737,-4.811,-4.7659,-4.1989,-3.1704,0.0,-2.8277,-2.1832,-3.2471,-4.0825,-4.6005,-4.5563,-4.5336,-4.5829,-4.4875,-4.3692,-4.2089,-4.1237,-4.0076,-3.81,-3.5182,-3.163,-2.7704,-2.3319,-1.9053,0.0,0.0,0.0,0.0,0.0,0.0,0.0,0.0,0.0,0.0,0.0,-1.1184,-0.9134,0.0,0.0,0.0,-1.3331,-1.6118,-1.8723,-1.8683,0.0,0.0,0.0,0.0,0.0,0.0,0.0,-2.1755,-2.1207,-2.1524,-2.4198,-2.6007,-2.6602,-2.5872,-2.4921,-2.4127,-2.3658,0.0,-2.0812,-2.0611,-2.1077,-2.1044,-2.0464,-2.0307,-2.0114,-1.8772,-1.7679,-1.6104,-1.4141,-1.2476,-1.2192,-1.3464,-1.2956,-1.2318,-1.3508,-1.3613,-1.2582,-0.8808,-0.7706,-0.8162,-0.9924,-0.9983,-0.9343,-4.4169,0.0,0.0,0.0,0.0,-3.6231,-3.7842,-4.2297,-4.0599,-3.8349,-3.5737,-3.455,0.0,0.0,0.0,0.0,0.0,0.0,-3.2517,-3.5682,-3.8902,-4.2001,-4.4698,-4.493,-4.5045,-4.5226,-4.5063,-4.4201,-4.2604,-4.0269,-3.3036,-2.1464,0.0,0.0,0.0,0.0,-3.8394,-4.5394,-4.4751,-4.4387,-4.5161,-4.4149,-4.3256,-4.2335,-4.0726,-3.866,-3.5764,-3.2084,-2.8266,-2.395,-1.9308,0.0,0.0,0.0,0.0,0.0,0.0,0.0,0.0,0.0,0.0,0.0,0.0,0.0,0.0,0.0,0.0,0.0,0.0,0.0,-1.6864,-1.7045,-1.631,0.0,0.0,0.0,0.0,0.0,0.0,0.0,0.0,0.0,-2.1945,-2.41,-2.5063,0.0,0.0,-2.3029,-2.231,-2.1215,-2.0448,-1.9602,-2.0491,0.0,-1.8752,-1.7985,-1.8227,-1.938,-1.9077,-1.7477,-1.471,-1.3084,-1.2616,-1.4297,-1.364,-1.3159,-1.4894,-1.5028,-1.3329,-1.0179,-0.8703,-0.8982,-1.0285,-1.067,-1.0539,0.0,0.0,0.0,0.0,0.0,0.0,0.0,0.0,-3.2551,-3.1249,0.0,-2.8181,0.0,0.0,0.0,0.0,-2.076,-2.48,0.0,0.0,-3.6783,-4.0177,-4.2265,-4.2381,-4.333,-4.4838,-4.3738,-4.1207,-3.6796,-2.9031,0.0,0.0,0.0,0.0,0.0,0.0,-3.3758,-4.5297,-4.3026,-4.2848,-4.527,-4.3537,-4.2702,-4.2744,-3.9774,-3.6374,-3.2671,-2.8247,-2.4494,-2.1576,-1.5942,0.0,0.0,0.0,0.0,0.0,0.0,0.0,0.0,0.0,0.0,0.0,0.0,0.0,0.0,0.0,0.0,0.0,0.0,0.0,0.0,-1.5799,0.0,0.0,0.0,0.0,0.0,0.0,0.0,0.0,0.0,-1.957,-1.8653,-2.0921,-2.3105,-2.4231,0.0,0.0,0.0,0.0,-2.0564,-2.0236,-1.9747,-1.8581,-1.6229,-1.4749,-1.4092,-1.4588,0.0,0.0,-1.3097,-1.3532,-1.3663,-1.24,-1.3406,-1.4473,-1.4638,-1.1919,-1.0248,-1.1432,-1.0563,-1.0278,-1.126,-1.0906,-1.1104,0.0,0.0,0.0,0.0,0.0,0.0,0.0,0.0,0.0,-2.4967,0.0,-2.1809,0.0,0.0,0.0,0.0,0.0,0.0,0.0,0.0,-2.9706,-3.2617,-3.397,-3.6529,-3.6605,0.0,-3.3831,-3.0632,0.0,0.0,0.0,0.0,0.0,0.0,0.0,0.0,-3.2175,-4.2652,-4.2144,-4.2073,-4.3038,-4.217,-4.142,-4.1092,-3.9119,-3.4932,-2.8254,-2.4827,-2.1207,0.0,0.0,0.0,0.0,0.0,0.0,0.0,0.0,0.0,0.0,0.0,0.0,0.0,0.0,0.0,0.0,0.0,0.0,0.0,0.0,0.0,0.0,0.0,-1.4638,0.0,0.0,0.0,0.0,0.0,0.0,0.0,0.0,0.0,-1.6924,-1.9364,-2.1585,-2.2966,-2.2157,-2.1851,-2.2862,0.0,0.0,0.0,0.0,0.0,0.0,0.0,-1.3523,-1.5694,-1.6081,-1.4912,-1.1513,-1.1392,-1.2115,-1.2983,0.0,0.0,-0.9695,-0.8847,-0.8708,-0.9073,-0.9148,-0.9155,-0.9344,-0.9654,-1.0034,0.0,0.0,0.0,0.0,0.0,0.0,0.0,0.0,0.0,-1.8883,-1.6333,0.0,0.0,0.0,0.0,0.0,0.0,0.0,0.0,0.0,0.0,0.0,-2.8282,-3.1265,0.0,0.0,0.0,0.0,0.0,0.0,0.0,0.0,0.0,0.0,0.0,0.0,-3.1235,-4.176,-4.1636,-4.1391,-4.1744,-4.1078,-4.0456,-3.9756,-3.8137,-3.3998,-2.717,0.0,0.0,0.0,0.0,0.0,0.0,0.0,0.0,0.0,0.0,0.0,0.0,0.0,0.0,0.0,0.0,0.0,0.0,0.0,0.0,0.0,0.0,0.0,0.0,0.0,-1.502,0.0,0.0,0.0,0.0,0.0,0.0,0.0,0.0,0.0,0.0,0.0,-1.9907,-2.2055,-2.1387,-2.1112,-2.1833,-2.1577,-2.0542,0.0,0.0,0.0,0.0,0.0,0.0,0.0,0.0,0.0,0.0,0.0,0.0,0.0,0.0,-0.9447,-0.6057,-0.6326,-0.7105,-0.6878,0.0,0.0,0.0,0.0,0.0,0.0,0.0,0.0,0.0,0.0,0.0,0.0,0.0,0.0,0.0,-1.1579,0.0,0.0,-0.9093,0.0,0.0,0.0,0.0,0.0,0.0,0.0,0.0,0.0,0.0,0.0,0.0,0.0,0.0,0.0,0.0,0.0,0.0,0.0,0.0,0.0,0.0,-3.0695,-4.3009,-4.1232,-4.0639,-4.1372,-4.0503,-3.9691,-3.9177,-3.6928,-3.3743,-2.9467,0.0,0.0,0.0,0.0,0.0,0.0,0.0,0.0,0.0,0.0,0.0,0.0,0.0,0.0,0.0,0.0,0.0,0.0,0.0,0.0,0.0,0.0,0.0,0.0,0.0,0.0,-1.4414,-1.3633,-1.3359,0.0,0.0,0.0,0.0,0.0,0.0,0.0,0.0,0.0,-2.149,-2.0462,-1.9561,-1.9925,-2.17,-2.1677,-1.8237,-1.425,-1.2201,-1.4105,-1.3793,-1.2754,0.0,0.0,0.0,0.0,0.0,0.0,0.0,0.0,0.0,0.0,0.0,0.0,0.0,0.0,0.0,0.0,0.0,0.0,0.0,0.0,0.0,0.0,0.0,0.0,0.0,0.0,0.0,0.0,0.0,0.0,0.0,0.0,0.0,0.0,0.0,0.0,0.0,0.0,0.0,0.0,0.0,0.0,0.0,0.0,0.0,0.0,0.0,0.0,0.0,0.0,0.0,0.0,0.0,0.0,-2.9083,-3.635,-3.8679,-3.9577,-3.9031,-3.8748,-3.817,-3.7223,-3.5971,-3.2773,0.0,0.0,0.0,0.0,0.0,0.0,0.0,0.0,0.0,0.0,0.0,0.0,0.0,0.0,0.0,0.0,0.0,0.0,0.0,0.0,0.0,0.0,0.0,0.0,0.0,0.0,0.0,0.0,-1.5401,-1.4091,-1.2649,0.0,0.0,0.0,0.0,0.0,0.0,0.0,0.0,0.0,0.0,-1.9982,-2.1455,-2.1378,-2.0334,-1.8139,-1.6268,-1.4832,-1.3738,-1.3406,-1.2556,-0.9882,0.0,0.0,0.0,0.0,0.0,0.0,0.0,0.0,0.0,0.0,0.0,0.0,0.0,0.0,0.0,0.0,0.0,0.0,0.0,0.0,0.0,0.0,0.0,0.0,0.0,0.0,0.0,0.0,0.0,0.0,0.0,0.0,0.0,0.0,0.0,0.0,0.0,0.0,0.0,0.0,0.0,0.0,0.0,0.0,0.0,0.0,0.0,0.0,0.0,0.0,0.0,0.0,0.0,-2.8272,-3.2955,-3.7426,-3.8961,-3.7694,-3.7624,-3.7178,-3.6025,-3.4606,-3.1083,0.0,0.0,0.0,0.0,0.0,0.0,0.0,0.0,0.0,0.0,0.0,0.0,0.0,0.0,0.0,0.0,0.0,0.0,0.0,0.0,0.0,0.0,0.0,0.0,0.0,0.0,0.0,0.0,-1.4792,-1.3758,-1.1549,0.0,0.0,0.0,0.0,0.0,0.0,0.0,0.0,0.0,0.0,-1.9126,-2.0388,-1.9913,0.0,0.0,-1.7301,-1.6072,-1.3609,-1.2516,-1.1188,-0.88,-0.6203,0.0,0.0,0.0,0.0,0.0,0.0,0.0,0.0,0.0,0.0,0.0,0.0,0.0,0.0,0.0,0.0,0.0,0.0,0.0,0.0,0.0,0.0,0.0,0.0,0.0,0.0,0.0,0.0,0.0,0.0,0.0,0.0,0.0,0.0,0.0,0.0,0.0,0.0,0.0,0.0,0.0,0.0,0.0,0.0,0.0,0.0,0.0,0.0,0.0,0.0,0.0,0.0,-2.8094,-3.2164,-3.7112,-3.8713,-3.7036,-3.7039,-3.6399,-3.5197,-3.3043,-2.8886,0.0,0.0,0.0,0.0,0.0,0.0,0.0,0.0,0.0,0.0,0.0,0.0,0.0,0.0,0.0,0.0,0.0,0.0,0.0,0.0,0.0,0.0,0.0,0.0,0.0,0.0,0.0,0.0,0.0,0.0,0.0,0.0,0.0,0.0,0.0,0.0,0.0,0.0,0.0,0.0,0.0,-1.767,-1.7952,-1.7781,-1.7668,0.0,-1.7183,-1.5838,-1.366,-1.1299,-0.9177,-0.765,0.0,0.0,0.0,0.0,0.0,0.0,0.0,0.0,0.0,0.0,0.0,0.0,0.0,0.0,0.0,0.0,0.0,0.0,0.0,0.0,0.0,0.0,0.0,0.0,0.0,0.0,0.0,0.0,0.0,0.0,0.0,0.0,0.0,0.0,0.0,0.0,0.0,0.0,0.0,0.0,0.0,0.0,0.0,0.0,0.0,0.0,0.0,0.0,0.0,0.0,0.0,0.0,0.0,0.0,-2.9584,-3.5678,-3.7776,-3.5723,-3.5537,-3.4994,-3.4145,-3.2199,0.0,0.0,0.0,0.0,0.0,0.0,0.0,0.0,0.0,0.0,0.0,0.0,0.0,0.0,0.0,0.0,0.0,0.0,0.0,0.0,0.0,0.0,0.0,0.0,0.0,0.0,0.0,-0.9771,0.0,0.0,0.0,0.0,0.0,0.0,0.0,0.0,0.0,0.0,0.0,0.0,0.0,0.0,-1.8704,-2.0889,-1.8538,-1.6679,0.0,0.0,-1.3861,-1.3018,-1.1401,-0.9611,0.0,0.0,0.0,0.0,0.0,0.0,0.0,0.0,0.0,0.0,0.0,0.0,0.0,0.0,0.0,0.0,0.0,0.0,0.0,0.0,0.0,0.0,0.0,0.0,0.0,0.0,0.0,0.0,0.0,0.0,0.0,0.0,0.0,0.0,0.0,0.0,0.0,0.0,0.0,0.0,0.0,0.0,0.0,0.0,0.0,0.0,0.0,0.0,0.0,0.0,0.0,0.0,0.0,0.0,-2.5055,-2.7965,-3.193,-3.4118,-3.4419,-3.3963,-3.3138,-3.183,-3.0787,-2.7355,0.0,0.0,0.0,0.0,0.0,0.0,0.0,0.0,0.0,0.0,0.0,0.0,0.0,0.0,0.0,0.0,0.0,0.0,0.0,0.0,0.0,0.0,0.0,0.0,0.0,0.0,0.0,0.0,0.0,0.0,0.0,0.0,0.0,0.0,0.0,0.0,0.0,0.0,0.0,0.0,0.0,0.0,-1.947,-1.7318,0.0,0.0,0.0,-1.1581,-1.1211,0.0,0.0,0.0,0.0,0.0,0.0,0.0,0.0,0.0,0.0,0.0,0.0,0.0,0.0,0.0,0.0,0.0,0.0,0.0,0.0,0.0,0.0,0.0,0.0,0.0,0.0,0.0,0.0,0.0,0.0,0.0,0.0,0.0,0.0,0.0,0.0,0.0,0.0,0.0,0.0,0.0,0.0,0.0,0.0,0.0,0.0,0.0,0.0,0.0,0.0,0.0,0.0,0.0,0.0,0.0,0.0,0.0,-2.6855,-2.8485,-3.0622,-3.3238,-3.2617,-3.1346,-2.9457,-2.9112,-2.6238,0.0,0.0,0.0,0.0,0.0,0.0,0.0,0.0,0.0,0.0,0.0,0.0,0.0,0.0,0.0,0.0,0.0,0.0,0.0,0.0,0.0,0.0,0.0,0.0,0.0,0.0,0.0,0.0,0.0,0.0,0.0,0.0,0.0,0.0,0.0,0.0,0.0,0.0,0.0,0.0,0.0,-1.8318,-1.657,-1.5324,-1.399,0.0,0.0,-0.9409,-0.8932,-0.9574,0.0,0.0,0.0,0.0,0.0,0.0,0.0,0.0,0.0,0.0,0.0,0.0,0.0,0.0,0.0,0.0,0.0,0.0,0.0,0.0,0.0,0.0,0.0,0.0,0.0,0.0,0.0,0.0,0.0,0.0,0.0,0.0,0.0,0.0,0.0,0.0,0.0,0.0,0.0,0.0,0.0,0.0,0.0,0.0,0.0,0.0,0.0,0.0,0.0,0.0,0.0,0.0,0.0,0.0,0.0,0.0,-2.712,-3.2412,-3.4669,-3.3414,-3.2411,-3.1161,-2.9335,-2.7969,-2.5036,0.0,0.0,0.0,0.0,0.0,0.0,0.0,0.0,0.0,0.0,0.0,0.0,0.0,0.0,0.0,0.0,0.0,0.0,0.0,0.0,0.0,0.0,0.0,0.0,0.0,0.0,0.0,0.0,0.0,0.0,0.0,0.0,0.0,0.0,0.0,0.0,0.0,0.0,0.0,0.0,0.0,-1.7692,-1.8838,-1.5601,0.0,0.0,0.0,0.0,-0.8438,-0.9272,0.0,0.0,0.0,0.0,0.0,0.0,0.0,0.0,0.0,0.0,0.0,0.0,0.0,0.0,0.0,0.0,0.0,0.0,0.0,0.0,0.0,0.0,0.0,0.0,0.0,0.0,0.0,0.0,0.0,0.0,0.0,0.0,0.0,0.0,0.0,0.0,0.0,0.0,0.0,0.0,0.0,0.0,0.0,0.0,0.0,0.0,0.0,0.0,0.0,0.0,0.0,0.0,0.0,0.0,0.0,0.0,-2.8197,-3.0168,-3.1537,-3.2685,-3.1725,-2.9962,-2.7436,-2.7062,-2.4542,0.0,0.0,0.0,0.0,0.0,0.0,0.0,0.0,0.0,0.0,0.0,0.0,0.0,0.0,0.0,0.0,0.0,0.0,0.0,0.0,0.0,0.0,0.0,0.0,0.0,0.0,0.0,0.0,0.0,0.0,0.0,0.0,0.0,0.0,0.0,0.0,0.0,0.0,0.0,0.0,-1.6737,-1.6498,-1.7076,0.0,0.0,0.0,0.0,0.0,0.0,-0.7984,-0.7881,0.0,0.0,0.0,0.0,0.0,0.0,0.0,0.0,0.0,0.0,0.0,0.0,0.0,0.0,0.0,0.0,0.0,0.0,0.0,0.0,0.0,0.0,0.0,0.0,0.0,0.0,0.0,0.0,0.0,0.0,0.0,0.0,0.0,0.0,0.0,0.0,0.0,0.0,0.0,0.0,0.0,0.0,0.0,0.0,0.0,0.0,0.0,0.0,0.0,0.0,0.0,0.0,0.0,0.0,0.0,-2.8904,-2.7303,-2.8178,-3.1816,-3.094,-2.8799,-2.5514,-2.6283,-2.4168,-1.8574,0.0,0.0,0.0,0.0,0.0,0.0,0.0,0.0,0.0,0.0,0.0,0.0,0.0,0.0,0.0,0.0,0.0,0.0,0.0,0.0,0.0,0.0,0.0,0.0,0.0,0.0,0.0,0.0,0.0,0.0,0.0,0.0,0.0,0.0,0.0,0.0,0.0,0.0,0.0,-1.5265,-1.5095,0.0,0.0,0.0,0.0,0.0,0.0,0.0,0.0,-0.7657,0.0,0.0,0.0,0.0,0.0,0.0,0.0,0.0,0.0,0.0,0.0,0.0,0.0,0.0,0.0,0.0,0.0,0.0,0.0,0.0,0.0,0.0,0.0,0.0,0.0,0.0,0.0,0.0,0.0,0.0,0.0,0.0,0.0,0.0,0.0,0.0,0.0,0.0,0.0,0.0,0.0,0.0,0.0,0.0,0.0,0.0,0.0,0.0,0.0,0.0,0.0,0.0,0.0,0.0,0.0,0.0,-3.0714,-3.3189,-3.217,-3.0719,-2.8649,-2.6101,-2.55,-2.2966,-1.8158,0.0,0.0,0.0,0.0,0.0,0.0,0.0,0.0,0.0,0.0,0.0,0.0,0.0,0.0,0.0,0.0,0.0,0.0,0.0,0.0,0.0,0.0,0.0,0.0,0.0,0.0,0.0,0.0,0.0,0.0,0.0,0.0,0.0,0.0,0.0,0.0,0.0,0.0,-1.2911,-1.3194,0.0,0.0,0.0,0.0,0.0,0.0,0.0,0.0,-0.799,0.0,0.0,0.0,0.0,0.0,0.0,0.0,0.0,0.0,0.0,0.0,0.0,0.0,0.0,0.0,0.0,0.0,0.0,0.0,0.0,0.0,0.0,0.0,0.0,0.0,0.0,0.0,0.0,0.0,0.0,0.0,0.0,0.0,0.0,0.0,0.0,0.0,0.0,0.0,0.0,0.0,0.0,0.0,0.0,0.0,0.0,0.0,0.0,0.0,0.0,0.0,0.0,0.0,0.0,0.0,0.0,0.0,0.0,-3.4538,-3.1373,-3.051,-2.8869,-2.6272,-2.3599,-2.0512,0.0,0.0,0.0,0.0,0.0,0.0,0.0,0.0,0.0,0.0,0.0,0.0,0.0,0.0,0.0,0.0,0.0,0.0,0.0,0.0,0.0,0.0,0.0,0.0,0.0,0.0,0.0,0.0,0.0,0.0,0.0,0.0,0.0,0.0,0.0,0.0,0.0,0.0,0.0,0.0,0.0,0.0,0.0,0.0,0.0,0.0,0.0,0.0,0.0,0.0,0.0,0.0,0.0,0.0,0.0,0.0,0.0,0.0,0.0,0.0,0.0,0.0,0.0,0.0,0.0,0.0,0.0,0.0,0.0,0.0,0.0,0.0,0.0,0.0,0.0,0.0,0.0,0.0,0.0,0.0,0.0,0.0,0.0,0.0,0.0,0.0,0.0,0.0,0.0,0.0,0.0,0.0,0.0,0.0,0.0,0.0,0.0,0.0,0.0,0.0,0.0,0.0,0.0,0.0,0.0,0.0,0.0,0.0,-3.3926,-3.0043,-3.0154,-2.8829,-2.5955,-2.1487,-1.7913,0.0,0.0,0.0,0.0,0.0,0.0,0.0,0.0,0.0,0.0,0.0,0.0,0.0,0.0,0.0,0.0,0.0,0.0,0.0,0.0,0.0,0.0,0.0,0.0,0.0,0.0,0.0,0.0,0.0,0.0,0.0,0.0,0.0,0.0,0.0,0.0,0.0,0.0,0.0,0.0,0.0,0.0,0.0,0.0,0.0,0.0,0.0,0.0,-0.4146,0.0,0.0,0.0,0.0,0.0,0.0,0.0,0.0,0.0,0.0,0.0,0.0,0.0,0.0,0.0,0.0,0.0,0.0,0.0,0.0,0.0,0.0,0.0,0.0,0.0,0.0,0.0,0.0,0.0,0.0,0.0,0.0,0.0,0.0,0.0,0.0,0.0,0.0,0.0,0.0,0.0,0.0,0.0,0.0,0.0,0.0,0.0,0.0,0.0,0.0,0.0,0.0,0.0,0.0,0.0,0.0,0.0,0.0,0.0,-3.0979,-2.8507,-2.9109,-2.7965,-2.4881,-1.9554,-1.572,0.0,0.0,0.0,0.0,0.0,0.0,0.0,0.0,0.0,0.0,0.0,0.0,0.0,0.0,0.0,0.0,0.0,0.0,0.0,0.0,0.0,0.0,0.0,0.0,0.0,0.0,0.0,0.0,0.0,0.0,0.0,0.0,0.0,0.0,0.0,0.0,0.0,0.0,0.0,0.0,0.0,0.0,0.0,0.0,0.0,0.0,0.0,0.0,0.0,0.0,0.0,0.0,0.0,0.0,0.0,0.0,0.0,0.0,0.0,0.0,0.0,0.0,0.0,0.0,0.0,0.0,0.0,0.0,0.0,0.0,0.0,0.0,0.0,0.0,0.0,0.0,0.0,0.0,0.0,0.0,0.0,0.0,0.0,0.0,0.0,0.0,0.0,0.0,0.0,0.0,0.0,0.0,0.0,0.0,0.0,0.0,0.0,0.0,0.0,0.0,0.0,0.0,0.0,0.0,0.0,0.0,0.0,0.0,-2.8047,-2.4995,-2.6437,-2.4347,-1.8269,-1.4841,-1.2106,0.0,0.0,0.0,0.0,0.0,0.0,0.0,0.0,0.0,0.0,0.0,0.0,0.0,0.0,0.0,0.0,0.0,0.0,0.0,0.0,0.0,0.0,0.0,0.0,0.0,0.0,0.0,0.0,0.0,0.0,0.0,0.0,0.0,0.0,0.0,0.0,0.0,0.0,0.0,0.0,0.0,0.0,0.0,0.0,0.0,0.0,0.0,0.0,0.0,0.0,0.0,0.0,0.0,0.0,0.0,0.0,0.0,0.0,0.0,0.0,0.0,0.0,0.0,0.0,0.0,0.0,0.0,0.0,0.0,0.0,0.0,0.0,0.0,0.0,0.0,0.0,0.0,0.0,0.0,0.0,0.0,0.0,0.0,0.0,0.0,0.0,0.0,0.0,0.0,0.0,0.0,0.0,0.0,0.0,0.0,0.0,0.0,0.0,0.0,0.0,0.0,0.0,0.0,0.0,0.0,0.0,0.0,0.0,0.0,-2.093,-2.1421,-1.8727,-1.2433,-1.0639,-0.8896,0.0,0.0,0.0,0.0,0.0,0.0,0.0,0.0,0.0,0.0,0.0,0.0,0.0,0.0,0.0,0.0,0.0,0.0,0.0,0.0,0.0,0.0,0.0,0.0,0.0,0.0,0.0,0.0,0.0,0.0,0.0,0.0,0.0,0.0,0.0,0.0,0.0,0.0,0.0,0.0,0.0,0.0,0.0,0.0,0.0,0.0,0.0,0.0,0.0,0.0,0.0,0.0,0.0,0.0,0.0,0.0,0.0,0.0,0.0,0.0,0.0,0.0,0.0,0.0,0.0,0.0,0.0,0.0,0.0,0.0,0.0,0.0,0.0,0.0,0.0,0.0,0.0,0.0,0.0,0.0,0.0,0.0,0.0,0.0,0.0,0.0,0.0,0.0,0.0,0.0,0.0,0.0,0.0,0.0,0.0,0.0,0.0,0.0,0.0,0.0,0.0,0.0,0.0,0.0,0.0,0.0,0.0,0.0,0.0,-1.5822,-1.3071,-1.0945,-0.9067,-0.8097,-0.6815,0.0,0.0,0.0,0.0,0.0,0.0,0.0,0.0,0.0,0.0,0.0,0.0,0.0,0.0,0.0,0.0,0.0,0.0,0.0,0.0,0.0,0.0,0.0,0.0,0.0,0.0,0.0,0.0,0.0,0.0,0.0,0.0,0.0,0.0,0.0,0.0,0.0,0.0,0.0,0.0,0.0,0.0,0.0,0.0,0.0,0.0,0.0,0.0,0.0,0.0,0.0,0.0,0.0,0.0,0.0,0.0,0.0,0.0,0.0,0.0,0.0,0.0,0.0,0.0,0.0,0.0,0.0,0.0,0.0,0.0,0.0,0.0,0.0,0.0,0.0,0.0,0.0,0.0,0.0,0.0,0.0,0.0,0.0,0.0,0.0,0.0,0.0,0.0,0.0,0.0,0.0,0.0,0.0,0.0,0.0,0.0,0.0,0.0,0.0,0.0,0.0,0.0,0.0,0.0,0.0,0.0,0.0,0.0,0.0,-0.9112,-0.869,-0.7561,-0.5168,-0.5053,-0.444,-0.3145,0.0,0.0,0.0,0.0,0.0,0.0,0.0,0.0,0.0,0.0,0.0,0.0,0.0,0.0,0.0,0.0,0.0,0.0,0.0,0.0,0.0,0.0,0.0,0.0,0.0,0.0,0.0,0.0,0.0,0.0,0.0,0.0,0.0,0.0,0.0,0.0,0.0,0.0,0.0,0.0,0.0,0.0,0.0,0.0,0.0,0.0,0.0,0.0,0.0,0.0,0.0,0.0,0.0,0.0,0.0,0.0,0.0,0.0,0.0,0.0,0.0,0.0,0.0,0.0,0.0,0.0,0.0,0.0,0.0,0.0,0.0,0.0,0.0,0.0,0.0,0.0,0.0,0.0,0.0,0.0,0.0,0.0,0.0,0.0,0.0,0.0,0.0,0.0,0.0,0.0,0.0,0.0,0.0,0.0,0.0,0.0,0.0,0.0,0.0,0.0,0.0,0.0,0.0,0.0,0.0,0.0,0.0,0.0,-0.4837,-0.5816,-0.5232,-0.269,-0.2754,-0.251,0.0,0.0,0.0,0.0,0.0,0.0,0.0,0.0,0.0,0.0,0.0,0.0,0.0,0.0,0.0,0.0,0.0,0.0,0.0,0.0,0.0,0.0,0.0,0.0,0.0,0.0,0.0,0.0,0.0,0.0,0.0,0.0,0.0,0.0,0.0,0.0,0.0,0.0,0.0,0.0,0.0,0.0,0.0,0.0,0.0,0.0,0.0,0.0,0.0,0.0,0.0,0.0,0.0,0.0,0.0,0.0,0.0,0.0,0.0,0.0,0.0,0.0,0.0,0.0,0.0,0.0,0.0,0.0,0.0,0.0,0.0,0.0,0.0,0.0,0.0,0.0,0.0,0.0,0.0,0.0,0.0,0.0,0.0,0.0,0.0,0.0,0.0,0.0,0.0,0.0,0.0,0.0,0.0,0.0,0.0,0.0,0.0,0.0,0.0,0.0,0.0,0.0,0.0,0.0,0.0,0.0,0.0,0.0,-0.6283,-0.4195,-0.4364,-0.3708,-0.1813,-0.1371,-0.1181,0.0,0.0,0.0,0.0,0.0,0.0,0.0,0.0,0.0,0.0,0.0,0.0,0.0,0.0,0.0,0.0,0.0,0.0,0.0,0.0,0.0,0.0,0.0,0.0,0.0,0.0,0.0,0.0,0.0,0.0,0.0,0.0,0.0,0.0,0.0,0.0,0.0,0.0,0.0,0.0,0.0,0.0,0.0,0.0,0.0,0.0,0.0,0.0,0.0,0.0,0.0,0.0,0.0,0.0,0.0,0.0,0.0,0.0,0.0,0.0,0.0,0.0,0.0,0.0,0.0,0.0,0.0,0.0,0.0,0.0,0.0,0.0,0.0,0.0,0.0,0.0,0.0,0.0,0.0,0.0,0.0,0.0,0.0,0.0,0.0,0.0,0.0,0.0,0.0,0.0,0.0,0.0,0.0,0.0,0.0,0.0,0.0,0.0,0.0,0.0,0.0,0.0,0.0,0.0,0.0,0.0,0.0,0.0,0.0,-0.3888,0.0,-0.2977,0.0,-0.1865,-0.1823,0.0,0.0,0.0,0.0,0.0,0.0,0.0,0.0,0.0,0.0,0.0,0.0,0.0,0.0,0.0,0.0,0.0,0.0,0.0,0.0,0.0,0.0,0.0,0.0,0.0,0.0,0.0,0.0,0.0,0.0,0.0,0.0,0.0,0.0,0.0,0.0,0.0,0.0,0.0,0.0,0.0,0.0,0.0,0.0,0.0,0.0,0.0,0.0,0.0,0.0,0.0,0.0,0.0,0.0,0.0,0.0,0.0,0.0,0.0,0.0,0.0,0.0,0.0,0.0,0.0,0.0,0.0,0.0,0.0,0.0,0.0,0.0,0.0,0.0,0.0,0.0,0.0,0.0,0.0,0.0,0.0,0.0,0.0,0.0,0.0,0.0,0.0,0.0,0.0,0.0,0.0,0.0,0.0,0.0,0.0,0.0,0.0,0.0,0.0,0.0,0.0,0.0,0.0,0.0,0.0,0.0,0.0,0.0,0.0,-0.4637,-0.3835,-0.3353,-0.3159,-0.295,-0.3018,0.0,0.0,0.0,0.0,0.0,0.0,0.0,0.0,0.0,0.0,0.0,0.0,0.0,0.0,0.0,0.0,0.0,0.0,0.0,0.0,0.0,0.0,0.0,0.0,0.0,0.0,0.0,0.0,0.0,0.0,0.0,0.0,0.0,0.0,0.0,0.0,0.0,0.0,0.0,0.0,0.0,0.0,0.0,0.0,0.0,0.0,0.0,0.0,0.0,0.0,0.0,0.0,0.0,0.0,0.0,0.0,0.0,0.0,0.0,0.0,0.0,0.0,0.0,0.0,0.0,0.0,0.0,0.0,0.0,0.0,0.0,0.0,0.0,0.0,0.0,0.0,0.0,0.0,0.0,0.0,0.0,0.0,0.0,0.0,0.0,0.0,0.0,0.0,0.0,0.0,0.0,0.0,0.0,0.0,0.0,0.0,0.0,0.0,0.0,0.0,0.0,0.0,0.0,0.0,0.0,0.0,0.0,0.0,0.0,-0.6106,-0.5419,-0.4552,-0.3531,-0.4305,-0.4398,0.0,0.0,0.0,0.0,0.0,0.0,0.0,0.0,0.0,0.0,0.0,0.0,0.0,0.0,0.0,0.0,0.0,0.0,0.0,0.0,0.0,0.0,0.0,0.0,0.0,0.0,0.0,0.0,0.0,0.0,0.0,0.0,0.0,0.0,0.0,0.0,0.0,0.0,0.0,0.0,0.0,0.0,0.0,0.0,0.0,0.0,0.0,0.0,0.0,0.0,0.0,0.0,0.0,0.0,0.0,0.0,0.0,0.0,0.0,0.0,0.0,0.0,0.0,0.0,0.0,0.0,0.0,0.0,0.0,0.0,0.0,0.0,0.0,0.0,0.0,0.0,0.0,0.0,0.0,0.0,0.0,0.0,0.0,0.0,0.0,0.0,0.0,0.0,0.0,0.0,0.0,0.0,0.0,0.0,0.0,0.0,0.0,0.0,0.0,0.0,0.0,0.0,0.0,0.0,0.0,0.0,0.0,0.0,0.0,0.0,-0.542,-0.4696,-0.3467,-0.3344,-0.3414,-0.3684,0.0,0.0,0.0,0.0,0.0,0.0,0.0,0.0,0.0,0.0,0.0,0.0,0.0,0.0,0.0,0.0,0.0,0.0,0.0,0.0,0.0,0.0,0.0,0.0,0.0,0.0,0.0,0.0,0.0,0.0,0.0,0.0,0.0,0.0,0.0,0.0,0.0,0.0,0.0,0.0,0.0,0.0,0.0,0.0,0.0,0.0,0.0,0.0,0.0,0.0,0.0,0.0,0.0,0.0,0.0,0.0,0.0,0.0,0.0,0.0,0.0,0.0,0.0,0.0,0.0,0.0,0.0,0.0,0.0,0.0,0.0,0.0,0.0,0.0,0.0,0.0,0.0,0.0,0.0,0.0,0.0,0.0,0.0,0.0,0.0,0.0,0.0,0.0,0.0,0.0,0.0,0.0,0.0,0.0,0.0,0.0,0.0,0.0,0.0,0.0,0.0,0.0,0.0,0.0,0.0,0.0,0.0,0.0,0.0,0.0,-0.4444,-0.3321,-0.2879,-0.2997,0.0,0.0,0.0,0.0,0.0,0.0,0.0,0.0,0.0,0.0,0.0,0.0,0.0,0.0,0.0,0.0,0.0,0.0,0.0,0.0,0.0,0.0,0.0,0.0,0.0,0.0,0.0,0.0,0.0,0.0,0.0,0.0,0.0,0.0,0.0,0.0,0.0,0.0,0.0,0.0,0.0,0.0,0.0,0.0,0.0,0.0,0.0,0.0,0.0,0.0,0.0,0.0,0.0,0.0,0.0,0.0,0.0,0.0,0.0,0.0,0.0,0.0,0.0,0.0,0.0,0.0,0.0,0.0,0.0,0.0,0.0,0.0,0.0,0.0,0.0,0.0,0.0,0.0,0.0,0.0,0.0,0.0,0.0,0.0,0.0,0.0,0.0,0.0,0.0,0.0,0.0,0.0,0.0,0.0,0.0,0.0,0.0,0.0,0.0,0.0,0.0,0.0,0.0,0.0,0.0,0.0,0.0,0.0,0.0,0.0,0.0,-0.4009,-0.3289,-0.2844,0.0,-0.4055,0.0,0.0,0.0,0.0,0.0,0.0,0.0,0.0,0.0,0.0,0.0,0.0,0.0,0.0,0.0,0.0,0.0,0.0,0.0,0.0,0.0,0.0,0.0,0.0,0.0,0.0,0.0,0.0,0.0,0.0,0.0,0.0,0.0,0.0,0.0,0.0,0.0,0.0,0.0,0.0,0.0,0.0,0.0,0.0,0.0,0.0,0.0,0.0,0.0,0.0,0.0,0.0,0.0,0.0,0.0,0.0,0.0,0.0,0.0,0.0,0.0,0.0,0.0,0.0,0.0,0.0,0.0,0.0,0.0,0.0,0.0,0.0,0.0,0.0,0.0,0.0,0.0,0.0,0.0,0.0,0.0,0.0,0.0,0.0,0.0,0.0,0.0,0.0,0.0,0.0,0.0,0.0,0.0,0.0,0.0,0.0,0.0,0.0,0.0,0.0,0.0,0.0,0.0,0.0,0.0,0.0,0.0,0.0,0.0,0.0,0.0,0.0,-0.3349,-0.3527,-0.3797,0.0,0.0,0.0,0.0,0.0,0.0,0.0,0.0,0.0,0.0,0.0,0.0,0.0,0.0,0.0,0.0,0.0,0.0,0.0,0.0,0.0,0.0,0.0,0.0,0.0,0.0,0.0,0.0,0.0,0.0,0.0,0.0,0.0,0.0,0.0,0.0,0.0,0.0,0.0,0.0,0.0,0.0,0.0,0.0,0.0,0.0,0.0,0.0,0.0,0.0,0.0,0.0,0.0,0.0,0.0,0.0,0.0,0.0,0.0,0.0,0.0,0.0,0.0,0.0,0.0,0.0,0.0,0.0,0.0,0.0,0.0,0.0,0.0,0.0,0.0,0.0,0.0,0.0,0.0,0.0,0.0,0.0,0.0,0.0,0.0,0.0,0.0,0.0,0.0,0.0,0.0,0.0,0.0,0.0,0.0,0.0,0.0,0.0,0.0,0.0,0.0,0.0,0.0,0.0,0.0,0.0,0.0,0.0,0.0,0.0,-0.4582,-0.3525,-0.3619,-0.3695,-0.3625,0.0,0.0,0.0,0.0,0.0,0.0,0.0,0.0,0.0,0.0,0.0,0.0,0.0,0.0,0.0,0.0,0.0,0.0,0.0,0.0,0.0,0.0,0.0,0.0,0.0,0.0,0.0,0.0,0.0,0.0,0.0,0.0,0.0,0.0,0.0,0.0,0.0,0.0,0.0,0.0,0.0,0.0,0.0,0.0,0.0,0.0,0.0,0.0,0.0,0.0,0.0,0.0,0.0,0.0,0.0,0.0,0.0,0.0,0.0,0.0,0.0,0.0,0.0,0.0,0.0,0.0,0.0,0.0,0.0,0.0,0.0,0.0,0.0,0.0,0.0,0.0,0.0,0.0,0.0,0.0,0.0,0.0,0.0,0.0,0.0,0.0,0.0,0.0,0.0,0.0,0.0,0.0,0.0,0.0,0.0,0.0,0.0,0.0,0.0,0.0,0.0,0.0,0.0,0.0,0.0,0.0,0.0,0.0,0.0,0.0,0.0,0.0,0.0,0.0,-0.3626,0.0,0.0,0.0,0.0,0.0,0.0,0.0,0.0,0.0,0.0,0.0,0.0,0.0,0.0,0.0,0.0,0.0,0.0,0.0,0.0,0.0,0.0,0.0,0.0,0.0,0.0,0.0,0.0,0.0,0.0,0.0,0.0,0.0,0.0,0.0,0.0,0.0,0.0,0.0,0.0,0.0,0.0,0.0,0.0,0.0,0.0,0.0,0.0,0.0,0.0,0.0,0.0,0.0,0.0,0.0,0.0,0.0,0.0,0.0,0.0,0.0,0.0,0.0,0.0,0.0,0.0,0.0,0.0,0.0,0.0,0.0,0.0,0.0,0.0,0.0,0.0,0.0,0.0,0.0,0.0,0.0,0.0,0.0,0.0,0.0,0.0,0.0,0.0,0.0,0.0,0.0,0.0,0.0,0.0,0.0,0.0,0.0,0.0,0.0,0.0,0.0,0.0,0.0,0.0,0.0,0.0,0.0,0.0,0.0,0.0,0.0,0.0,0.0,0.0,0.0,0.0,0.0,0.0,0.0,0.0,0.0,0.0,0.0,0.0,0.0,0.0,0.0,0.0,0.0,0.0,0.0,0.0,0.0,0.0,0.0,0.0,0.0,0.0,0.0,0.0,0.0,0.0,0.0,0.0,0.0,0.0,0.0,0.0,0.0,0.0,0.0,0.0,0.0,0.0,0.0,0.0,0.0,0.0,0.0,0.0,0.0,0.0,0.0,0.0,0.0,0.0,0.0,0.0,0.0,0.0,0.0,0.0,0.0,0.0,0.0,0.0,0.0,0.0,0.0,0.0,0.0,0.0,0.0,0.0,0.0,0.0,0.0,0.0,0.0,0.0,0.0,0.0,0.0,0.0,0.0,0.0,0.0,0.0,0.0,0.0,0.0,0.0,0.0,0.0,0.0,0.0,0.0,0.0,0.0,0.0,0.0,0.0,0.0,0.0,0.0,0.0,0.0,0.0,0.0,0.0,0.0,0.0,0.0,0.0,0.0,0.0,0.0,0.0,0.0,0.0,0.0,0.0,0.0,0.0,0.0,0.0,0.0,0.0,0.0,0.0,0.0,0.0,0.0,0.0,0.0,0.0,0.0,0.0,0.0,0.0,0.0,0.0,0.0,0.0,0.0,0.0,0.0,0.0,0.0,0.0,0.0,0.0,0.0,0.0,0.0,0.0,0.0,0.0,0.0,0.0,0.0,0.0,0.0,0.0,0.0,0.0,0.0,0.0,0.0,0.0,0.0,0.0,0.0,0.0,0.0,0.0,0.0,0.0,0.0,0.0,0.0,0.0,0.0,0.0,0.0,0.0,0.0,0.0,0.0,0.0,0.0,0.0,0.0,0.0,0.0,0.0,0.0,0.0,0.0,0.0,0.0,0.0,0.0,0.0,0.0,0.0,0.0,0.0,0.0,0.0,0.0,0.0,0.0,0.0,0.0,0.0,0.0,0.0,0.0,0.0,0.0,0.0,0.0,0.0,0.0,0.0,0.0,0.0,0.0,0.0,0.0,0.0,0.0,0.0,0.0,0.0,0.0,0.0,0.0,0.0,0.0,0.0,0.0,0.0,0.0,0.0,0.0,0.0,0.0,0.0,0.0,0.0,0.0,0.0,0.0,0.0,0.0,0.0,0.0,0.0,0.0,0.0,0.0,0.0,0.0,0.0,0.0,0.0,0.0,0.0,0.0,0.0,0.0,0.0,0.0,0.0,0.0,0.0,0.0,0.0,0.0,0.0,0.0,0.0,0.0,0.0,0.0,0.0,0.0,0.0,0.0,0.0,0.0,0.0,0.0,0.0,0.0,0.0,0.0,0.0,0.0,0.0,0.0,0.0,0.0,0.0,0.0,0.0,0.0,0.0,0.0,0.0,0.0,0.0,0.0,0.0,0.0,0.0,0.0,0.0,0.0,0.0,0.0,0.0,0.0,0.0,0.0,0.0,0.0,0.0,0.0,0.0,0.0,0.0,0.0,0.0,0.0,0.0,0.0,0.0,0.0,0.0,0.0,0.0,0.0,0.0,0.0,0.0,0.0,0.0,0.0,0.0,0.0,0.0,0.0,0.0,0.0,0.0,0.0,0.0,0.0,0.0,0.0,0.0,0.0,0.0,0.0,0.0,0.0,0.0,0.0,0.0,0.0,0.0,0.0,0.0,0.0,0.0,0.0,0.0,0.0,0.0,0.0,0.0,0.0,0.0,0.0,0.0,0.0,0.0,0.0,0.0,0.0,0.0,0.0,0.0,0.0,0.0,0.0,0.0,0.0,0.0,0.0,0.0,0.0,0.0,0.0,0.0,0.0,0.0,0.0,0.0,0.0,0.0,0.0,0.0,0.0,0.0,0.0,0.0,0.0,0.0,0.0,0.0,0.0,0.0,0.0,0.0,0.0,0.0,0.0,0.0,0.0,0.0,0.0,0.0,0.0,0.0,0.0,0.0,0.0,0.0,0.0,0.0,0.0,0.0,0.0,0.0,0.0,0.0,0.0,0.0,0.0,0.0,0.0,0.0,0.0,0.0,0.0,0.0,0.0,0.0,0.0,0.0,0.0,0.0,0.0,0.0,0.0,0.0,0.0,0.0,0.0,0.0,0.0,0.0,0.0,0.0,0.0,0.0,0.0,0.0,0.0,0.0,0.0,0.0,0.0,0.0,0.0,0.0,0.0,0.0,0.0,0.0,0.0,0.0,0.0,0.0,0.0,0.0,0.0,0.0,0.0,0.0,0.0,0.0,0.0,0.0,0.0,0.0,0.0,0.0,0.0,0.0,0.0,0.0,0.0,0.0,0.0,0.0,0.0,0.0,0.0,0.0,0.0,0.0,0.0,0.0,0.0,0.0,0.0,0.0,0.0,0.0,0.0,0.0,0.0,0.0,0.0,0.0,0.0,0.0,0.0,0.0,0.0,0.0,0.0,0.0,0.0,0.0,0.0,0.0,0.0,0.0,0.0,0.0,0.0,0.0,0.0,0.0,0.0,0.0,0.0,0.0,0.0,0.0,0.0,0.0,0.0,0.0,0.0,0.0,0.0,0.0,0.0,0.0,0.0,0.0,0.0,0.0,0.0,0.0,0.0,0.0,0.0,0.0,0.0,0.0,0.0,0.0,0.0,0.0,0.0,0.0,0.0,0.0,0.0,0.0,0.0,0.0,0.0,0.0,0.0,0.0,0.0,0.0,0.0,0.0,0.0,0.0,0.0,0.0,0.0,0.0,0.0,0.0,0.0,0.0,0.0,0.0,0.0,0.0,0.0,0.0,0.0,0.0,0.0,0.0,0.0,0.0,0.0,0.0,0.0,0.0,0.0,0.0,0.0,0.0,0.0,0.0,0.0,0.0,0.0,0.0,0.0,0.0,0.0,0.0,0.0,0.0,0.0,0.0,0.0,0.0,0.0,0.0,0.0,0.0,0.0,0.0,0.0,0.0,0.0,0.0,0.0,0.0,0.0,0.0,0.0,0.0,0.0,0.0,0.0,0.0,0.0,0.0,0.0,0.0,0.0,0.0,0.0,0.0,0.0,0.0,0.0,0.0,0.0,0.0,0.0,0.0,0.0,0.0,0.0,0.0,0.0,0.0,0.0,0.0,0.0,0.0,0.0,0.0,0.0,0.0,0.0,0.0,0.0,0.0,0.0,0.0,0.0,0.0,0.0,0.0,0.0,0.0,0.0,0.0,0.0,0.0,0.0,0.0,0.0,0.0,0.0,0.0,0.0,0.0,0.0,0.0,0.0,0.0,0.0,0.0,0.0,0.0,0.0,0.0,0.0,0.0,0.0,0.0,0.0,0.0,0.0,0.0,0.0,0.0,0.0,0.0,0.0,0.0,0.0,0.0,0.0,0.0,0.0,0.0,0.0,0.0,0.0,0.0,0.0,0.0,0.0,0.0,0.0,0.0,0.0,0.0,0.0,0.0,0.0,0.0,0.0,0.0,0.0,0.0,0.0,0.0,0.0,0.0,0.0,0.0,0.0,0.0,0.0,0.0,0.0,0.0,0.0,0.0,0.0,0.0,0.0,0.0,0.0,0.0,0.0,0.0,0.0,0.0,0.0,0.0,0.0,0.0,0.0,0.0,0.0,0.0,0.0,0.0,0.0,0.0,0.0,0.0,0.0,0.0,0.0,0.0,0.0,0.0,0.0,0.0,0.0,0.0,0.0,0.0,0.0,0.0,0.0,0.0,0.0,0.0,0.0,0.0,0.0,0.0,0.0,0.0,0.0,0.0,0.0,0.0,0.0,0.0,0.0,0.0,0.0,0.0,0.0,0.0,0.0,0.0,0.0,0.0,0.0,0.0,0.0,0.0,0.0,0.0,0.0,0.0,0.0,0.0,0.0,0.0,0.0,0.0,0.0,0.0,0.0,0.0,0.0,0.0,0.0,0.0]}]]]